[[{"header":{"parameterUnit":"m.s-1","parameterCategory":1,"la1":30.6,"la2":29.2853,"lo1":-89.7004,"lo2":-87.6739,"dy":0.0162,"dx":0.0183,"nx":112,"ny":82,"refTime":"2026-02-24T12:00:00:Z","depth":0,"parameterNumber":2,"parameterNumberName":"U-component_of_WINDS"},"data":[0.0,0.0,0.0,0.0,0.0,0.0,0.0,0.0,0.0,0.0,0.0,0.0,0.0,0.0,0.0,0.0,0.0,0.0,0.0,0.0,0.0,0.0,0.0,0.0,0.0,0.0,0.0,0.0,0.0,0.0,0.0,0.0,0.0,0.0,0.0,0.0,0.0,0.0,0.0,0.0,0.0,0.0,0.0,0.0,0.0,0.0,0.0,0.0,0.0,0.0,0.0,0.0,0.0,0.0,0.0,0.0,0.0,0.0,0.0,0.0,0.0,0.0,0.0,0.0,0.0,0.0,0.0,0.0,0.0,0.0,0.0,0.0,0.0,0.0,0.0,0.0,0.0,0.0,0.0,0.0,0.0,0.0,0.0,0.0,0.0,0.0,0.0,0.0,0.0,0.0,-4.5975,-5.0301,-5.7115,-6.1292,-6.1168,-6.0088,-5.6176,-4.8532,0.0,0.0,0.0,0.0,0.0,0.0,0.0,0.0,0.0,0.0,0.0,0.0,0.0,0.0,0.0,0.0,0.0,0.0,0.0,0.0,0.0,0.0,0.0,0.0,0.0,0.0,0.0,0.0,0.0,0.0,0.0,0.0,0.0,0.0,0.0,0.0,0.0,0.0,0.0,0.0,0.0,0.0,0.0,0.0,0.0,0.0,0.0,0.0,0.0,0.0,0.0,0.0,0.0,0.0,0.0,0.0,0.0,0.0,0.0,0.0,0.0,0.0,0.0,0.0,0.0,0.0,0.0,0.0,0.0,0.0,0.0,0.0,0.0,0.0,0.0,0.0,0.0,0.0,0.0,0.0,0.0,0.0,0.0,0.0,0.0,0.0,0.0,0.0,0.0,0.0,0.0,0.0,0.0,0.0,0.0,0.0,0.0,0.0,0.0,0.0,0.0,0.0,0.0,0.0,-4.6158,-5.5405,-5.9161,-6.125,-6.1779,-5.9243,-5.5329,-5.0075,0.0,0.0,0.0,0.0,0.0,0.0,0.0,0.0,0.0,0.0,0.0,0.0,0.0,0.0,0.0,0.0,0.0,0.0,0.0,0.0,0.0,0.0,0.0,0.0,0.0,0.0,0.0,0.0,0.0,0.0,0.0,0.0,0.0,0.0,0.0,0.0,0.0,0.0,0.0,0.0,0.0,0.0,0.0,0.0,0.0,0.0,0.0,0.0,0.0,0.0,0.0,0.0,0.0,0.0,0.0,0.0,0.0,0.0,0.0,0.0,0.0,0.0,0.0,0.0,0.0,0.0,0.0,0.0,0.0,0.0,0.0,0.0,0.0,0.0,0.0,0.0,0.0,0.0,0.0,0.0,0.0,0.0,0.0,0.0,0.0,0.0,0.0,0.0,0.0,0.0,0.0,0.0,0.0,0.0,0.0,0.0,0.0,0.0,0.0,0.0,0.0,0.0,0.0,-4.5077,-4.9683,-5.734,-6.0248,-6.1742,-6.1969,-5.947,-5.5631,-5.0438,-4.6271,0.0,0.0,0.0,0.0,0.0,0.0,0.0,0.0,0.0,0.0,0.0,0.0,0.0,0.0,0.0,0.0,0.0,0.0,0.0,0.0,0.0,0.0,0.0,0.0,0.0,0.0,0.0,0.0,0.0,0.0,0.0,0.0,0.0,0.0,0.0,0.0,0.0,0.0,0.0,0.0,0.0,0.0,0.0,0.0,0.0,0.0,0.0,0.0,0.0,0.0,0.0,0.0,0.0,0.0,0.0,0.0,0.0,0.0,0.0,0.0,0.0,0.0,0.0,0.0,0.0,0.0,0.0,0.0,0.0,0.0,0.0,0.0,0.0,0.0,0.0,0.0,0.0,0.0,0.0,0.0,0.0,0.0,0.0,0.0,0.0,0.0,0.0,0.0,0.0,0.0,0.0,0.0,0.0,0.0,0.0,0.0,0.0,0.0,0.0,0.0,0.0,0.0,-5.017,-5.3731,-5.8623,-6.096,-6.2041,-6.1752,-5.9025,-5.5184,-5.0126,-4.4604,0.0,0.0,0.0,0.0,0.0,0.0,0.0,0.0,0.0,0.0,0.0,0.0,0.0,0.0,0.0,0.0,0.0,0.0,0.0,0.0,0.0,0.0,0.0,0.0,0.0,0.0,0.0,0.0,0.0,0.0,0.0,0.0,0.0,0.0,0.0,0.0,0.0,0.0,0.0,0.0,0.0,0.0,0.0,0.0,0.0,0.0,0.0,0.0,0.0,0.0,0.0,0.0,0.0,0.0,0.0,0.0,0.0,0.0,0.0,0.0,0.0,0.0,0.0,0.0,0.0,0.0,0.0,0.0,0.0,0.0,0.0,0.0,0.0,0.0,0.0,0.0,0.0,0.0,0.0,0.0,0.0,0.0,0.0,0.0,0.0,0.0,0.0,0.0,0.0,0.0,0.0,0.0,0.0,0.0,0.0,0.0,0.0,0.0,0.0,0.0,0.0,0.0,-5.2112,-5.7097,-6.0451,-6.1543,-6.1716,-6.0955,-5.672,-5.2645,-4.922,-4.176,0.0,0.0,0.0,0.0,0.0,0.0,0.0,0.0,0.0,0.0,0.0,0.0,0.0,0.0,0.0,0.0,0.0,0.0,0.0,0.0,0.0,0.0,0.0,0.0,0.0,0.0,0.0,0.0,0.0,0.0,0.0,0.0,0.0,0.0,0.0,0.0,0.0,0.0,0.0,0.0,0.0,0.0,0.0,0.0,0.0,0.0,0.0,0.0,0.0,0.0,0.0,0.0,0.0,0.0,0.0,0.0,0.0,0.0,0.0,0.0,0.0,0.0,0.0,0.0,0.0,0.0,0.0,0.0,0.0,0.0,0.0,0.0,0.0,0.0,0.0,0.0,0.0,0.0,0.0,0.0,0.0,0.0,0.0,0.0,0.0,0.0,0.0,0.0,0.0,0.0,0.0,0.0,0.0,0.0,0.0,0.0,0.0,0.0,0.0,0.0,0.0,0.0,-5.0933,-5.5716,-6.0382,-6.1562,-6.1652,-6.0883,-5.8264,-5.4447,-4.9257,0.0,0.0,0.0,0.0,0.0,0.0,0.0,0.0,0.0,0.0,0.0,0.0,0.0,0.0,0.0,0.0,0.0,0.0,0.0,0.0,0.0,0.0,0.0,0.0,0.0,0.0,0.0,0.0,0.0,0.0,0.0,0.0,0.0,0.0,0.0,0.0,0.0,0.0,0.0,0.0,0.0,0.0,0.0,0.0,0.0,0.0,0.0,0.0,0.0,0.0,0.0,0.0,0.0,0.0,0.0,0.0,0.0,0.0,0.0,0.0,0.0,0.0,0.0,0.0,0.0,0.0,0.0,0.0,0.0,0.0,0.0,0.0,0.0,0.0,0.0,0.0,0.0,0.0,0.0,0.0,0.0,0.0,0.0,0.0,0.0,0.0,0.0,0.0,0.0,0.0,0.0,0.0,0.0,0.0,0.0,0.0,0.0,0.0,0.0,0.0,0.0,0.0,-4.5529,-5.0828,-5.574,-6.0061,-6.1425,-6.1652,-6.0883,-5.8445,-5.4532,-4.8873,0.0,0.0,0.0,0.0,0.0,0.0,0.0,0.0,0.0,0.0,0.0,0.0,0.0,0.0,0.0,0.0,0.0,0.0,0.0,0.0,0.0,0.0,0.0,0.0,0.0,0.0,0.0,0.0,0.0,0.0,0.0,0.0,0.0,0.0,0.0,0.0,0.0,0.0,0.0,0.0,0.0,0.0,0.0,0.0,0.0,0.0,0.0,0.0,0.0,0.0,0.0,0.0,0.0,0.0,0.0,0.0,0.0,0.0,0.0,0.0,0.0,0.0,0.0,0.0,0.0,0.0,0.0,0.0,0.0,0.0,0.0,0.0,0.0,0.0,0.0,0.0,0.0,0.0,0.0,0.0,0.0,0.0,0.0,0.0,0.0,0.0,0.0,0.0,0.0,0.0,0.0,0.0,0.0,0.0,0.0,0.0,0.0,0.0,0.0,0.0,0.0,0.0,-4.5183,-5.2402,-5.7887,-5.971,-6.1168,-6.1652,-6.0883,-5.6527,-5.2087,0.0,0.0,0.0,0.0,0.0,0.0,0.0,0.0,0.0,0.0,0.0,0.0,0.0,0.0,0.0,0.0,0.0,0.0,0.0,0.0,0.0,0.0,0.0,0.0,0.0,0.0,0.0,0.0,0.0,0.0,0.0,0.0,0.0,0.0,0.0,0.0,0.0,0.0,0.0,0.0,0.0,0.0,0.0,0.0,0.0,0.0,0.0,0.0,0.0,0.0,0.0,0.0,0.0,0.0,0.0,0.0,0.0,0.0,0.0,0.0,0.0,0.0,0.0,0.0,0.0,0.0,0.0,0.0,0.0,0.0,0.0,0.0,0.0,0.0,0.0,0.0,0.0,0.0,0.0,0.0,0.0,0.0,0.0,0.0,0.0,0.0,0.0,0.0,0.0,0.0,0.0,0.0,0.0,0.0,0.0,0.0,0.0,0.0,0.0,0.0,0.0,0.0,0.0,-4.5358,-5.2623,-5.8232,-6.0322,-6.1425,-6.1652,-6.0883,-5.7974,-5.3771,-4.8061,0.0,0.0,0.0,0.0,0.0,0.0,0.0,0.0,0.0,0.0,0.0,0.0,0.0,0.0,0.0,0.0,0.0,0.0,0.0,0.0,0.0,0.0,0.0,0.0,0.0,0.0,0.0,0.0,0.0,0.0,0.0,0.0,0.0,0.0,0.0,0.0,0.0,0.0,0.0,0.0,0.0,0.0,0.0,0.0,0.0,0.0,0.0,0.0,0.0,0.0,0.0,0.0,0.0,0.0,0.0,0.0,0.0,0.0,0.0,0.0,0.0,0.0,0.0,0.0,0.0,0.0,0.0,0.0,0.0,0.0,0.0,0.0,0.0,0.0,0.0,0.0,0.0,0.0,0.0,0.0,0.0,0.0,0.0,0.0,0.0,0.0,0.0,0.0,0.0,0.0,0.0,0.0,0.0,0.0,0.0,0.0,0.0,0.0,0.0,0.0,0.0,0.0,-4.5013,-5.2264,-5.7826,-5.9771,-6.0892,-6.1326,-6.0819,-5.8311,-5.4146,-4.8098,0.0,0.0,0.0,0.0,0.0,0.0,0.0,0.0,0.0,0.0,0.0,0.0,0.0,0.0,0.0,0.0,0.0,0.0,0.0,0.0,0.0,0.0,0.0,0.0,0.0,0.0,0.0,0.0,0.0,0.0,0.0,0.0,0.0,0.0,0.0,0.0,0.0,0.0,0.0,0.0,0.0,0.0,0.0,0.0,0.0,0.0,0.0,0.0,0.0,0.0,0.0,0.0,0.0,0.0,0.0,0.0,0.0,0.0,0.0,0.0,0.0,0.0,0.0,0.0,0.0,0.0,0.0,0.0,0.0,0.0,0.0,0.0,0.0,0.0,0.0,0.0,0.0,0.0,0.0,0.0,0.0,0.0,0.0,0.0,0.0,0.0,0.0,0.0,0.0,0.0,0.0,0.0,0.0,0.0,0.0,0.0,0.0,0.0,0.0,0.0,0.0,0.0,-4.4448,-5.1702,-5.7072,-5.8494,-5.997,-6.0774,-6.0675,-5.7876,-5.3748,-4.8279,0.0,0.0,0.0,0.0,0.0,0.0,0.0,0.0,0.0,0.0,0.0,0.0,0.0,0.0,0.0,0.0,0.0,0.0,0.0,0.0,0.0,0.0,0.0,0.0,0.0,0.0,0.0,0.0,0.0,0.0,0.0,0.0,0.0,0.0,0.0,0.0,0.0,0.0,0.0,0.0,0.0,0.0,0.0,0.0,0.0,0.0,0.0,0.0,0.0,0.0,0.0,0.0,0.0,0.0,0.0,0.0,0.0,0.0,0.0,0.0,-5.3739,-5.0949,0.0,0.0,0.0,0.0,0.0,0.0,0.0,0.0,0.0,0.0,0.0,0.0,0.0,0.0,0.0,0.0,0.0,0.0,0.0,0.0,0.0,0.0,0.0,0.0,0.0,0.0,0.0,0.0,0.0,0.0,0.0,0.0,0.0,0.0,0.0,0.0,0.0,0.0,0.0,0.0,-4.4682,-5.2268,-5.7567,-5.8392,-5.9861,-6.0557,-5.9905,-5.8058,-5.4834,-4.9872,-4.5635,0.0,0.0,0.0,0.0,0.0,0.0,0.0,0.0,0.0,0.0,0.0,0.0,0.0,0.0,0.0,0.0,0.0,0.0,0.0,0.0,0.0,0.0,0.0,0.0,0.0,0.0,0.0,0.0,0.0,0.0,0.0,0.0,0.0,0.0,0.0,0.0,0.0,0.0,0.0,0.0,0.0,0.0,0.0,0.0,0.0,0.0,0.0,0.0,0.0,0.0,0.0,0.0,0.0,0.0,0.0,0.0,0.0,0.0,0.0,-5.8437,-5.5941,0.0,0.0,0.0,0.0,0.0,0.0,0.0,0.0,0.0,0.0,0.0,0.0,0.0,0.0,0.0,0.0,0.0,0.0,0.0,0.0,0.0,0.0,0.0,0.0,0.0,0.0,0.0,0.0,0.0,0.0,0.0,0.0,0.0,0.0,0.0,0.0,0.0,0.0,0.0,0.0,-4.5741,-5.1997,-5.6569,-5.8234,-5.9144,-5.947,-5.9072,-5.755,-5.4907,-5.0945,-4.7265,0.0,0.0,0.0,0.0,0.0,0.0,0.0,0.0,0.0,0.0,0.0,0.0,0.0,0.0,0.0,0.0,0.0,0.0,0.0,0.0,0.0,0.0,0.0,0.0,0.0,0.0,0.0,0.0,0.0,0.0,0.0,0.0,0.0,0.0,0.0,0.0,0.0,0.0,0.0,0.0,0.0,0.0,0.0,0.0,0.0,0.0,0.0,0.0,0.0,0.0,0.0,0.0,0.0,-6.2732,-6.3759,-6.4945,-6.5962,-6.6402,-6.6292,-6.4237,-6.2475,-6.0823,-5.7997,0.0,0.0,0.0,0.0,0.0,0.0,0.0,0.0,0.0,0.0,0.0,0.0,0.0,0.0,0.0,0.0,0.0,0.0,0.0,0.0,0.0,0.0,-4.8373,-4.8625,-5.0379,-5.0247,-4.3969,0.0,0.0,0.0,0.0,0.0,0.0,0.0,0.0,0.0,0.0,0.0,-4.6835,-5.1731,-5.5537,-5.7788,-5.826,-5.8347,-5.8202,-5.6971,-5.4907,-5.19,-4.8967,-4.5236,0.0,0.0,0.0,0.0,0.0,0.0,0.0,0.0,0.0,0.0,0.0,0.0,0.0,0.0,0.0,0.0,0.0,0.0,0.0,0.0,0.0,0.0,0.0,0.0,0.0,0.0,0.0,0.0,0.0,0.0,0.0,0.0,-4.9636,-5.0677,0.0,0.0,0.0,0.0,0.0,0.0,0.0,0.0,0.0,0.0,0.0,0.0,0.0,-6.104,-6.299,-6.6591,-6.8181,-6.7834,-7.2018,-7.378,-7.3377,-7.4852,-7.5549,-7.5512,-7.5182,0.0,-6.3503,-6.2365,0.0,0.0,0.0,0.0,0.0,0.0,0.0,0.0,0.0,0.0,0.0,0.0,0.0,0.0,0.0,0.0,0.0,0.0,0.0,0.0,0.0,0.0,-5.5281,-5.4737,-5.4839,-5.4669,-5.3041,-4.7131,-4.1265,-3.822,-3.5786,-3.3603,0.0,0.0,0.0,0.0,0.0,0.0,-4.7157,-5.2568,-5.6185,-5.6536,-5.7664,-5.813,-5.7406,-5.7152,-5.5993,-5.353,-5.1647,-4.8822,-4.4693,-4.0782,0.0,0.0,0.0,0.0,0.0,0.0,0.0,0.0,0.0,0.0,0.0,0.0,0.0,0.0,0.0,0.0,0.0,0.0,0.0,0.0,0.0,0.0,0.0,0.0,0.0,0.0,0.0,0.0,0.0,-4.8701,-5.1897,-5.2291,-5.2444,-5.145,0.0,0.0,0.0,0.0,0.0,0.0,0.0,0.0,0.0,-6.4108,-6.5167,-6.6925,-6.9449,-7.1248,-7.2642,-7.367,-7.5763,-7.7084,-7.7671,-7.8369,-7.8699,-7.8699,-7.8699,-7.5983,-7.1248,-6.7687,-6.4127,-6.0529,0.0,0.0,0.0,0.0,-5.484,-5.5244,-5.7997,-5.8327,-5.7409,-5.6492,0.0,0.0,0.0,0.0,0.0,0.0,0.0,-4.7313,-4.968,-5.2969,-5.599,-5.7273,-5.7541,-5.7374,-5.6596,-5.2976,-4.8372,-4.343,-4.1553,-3.9325,-3.4644,-3.4117,0.0,0.0,0.0,-4.4439,-4.8931,-5.2768,-5.5557,-5.6678,-5.7361,-5.7587,-5.7224,-5.7188,-5.6391,-5.4508,-5.3277,-5.1249,-4.8134,-4.4584,-4.1397,0.0,0.0,0.0,0.0,0.0,0.0,0.0,0.0,0.0,0.0,0.0,0.0,0.0,0.0,0.0,0.0,0.0,0.0,0.0,0.0,0.0,0.0,0.0,0.0,0.0,0.0,0.0,0.0,-5.1411,-5.4358,-5.4216,-5.5708,-5.5249,0.0,0.0,0.0,0.0,0.0,0.0,-6.1128,-6.2885,-6.5634,-6.9668,-7.0465,-7.2134,-7.4918,-7.4955,-7.5946,-7.7965,-7.8148,-7.8919,-8.0094,-8.0314,-8.0388,-8.0388,-8.0204,-7.9286,-7.7561,-7.2532,-6.8531,-6.5264,-6.1814,-5.9722,-5.8767,-5.9575,-5.9869,-6.0419,-6.4273,-6.4787,-6.3576,-6.2585,-5.9795,-5.6006,-5.1703,0.0,0.0,0.0,0.0,-4.9746,-5.3007,-5.5008,-5.6737,-5.9032,-5.9607,-5.9404,-5.8626,-5.7306,-5.4499,-4.8545,-4.709,-4.4993,-3.9183,-3.8531,0.0,-3.9783,-4.253,-4.6107,-5.0404,-5.3013,-5.5073,-5.6589,-5.7036,-5.7188,-5.7188,-5.7007,-5.6319,-5.4979,-5.4146,-5.2625,-5.022,-4.7591,-4.4983,-4.2356,0.0,0.0,0.0,0.0,0.0,0.0,0.0,0.0,0.0,0.0,0.0,0.0,0.0,0.0,0.0,0.0,0.0,0.0,0.0,0.0,0.0,0.0,0.0,0.0,0.0,0.0,0.0,0.0,0.0,-5.7747,-6.1225,0.0,0.0,0.0,0.0,-5.7954,-6.1356,-6.4196,-6.5956,-6.8724,-7.1413,-7.402,-7.4437,-7.5799,-7.8332,-7.8332,-7.8809,-7.9653,-8.0461,-8.0865,-8.0975,-8.1746,-8.2076,-8.2039,-8.1269,-8.0461,-7.9396,-7.6019,-7.2716,-6.9633,-6.7871,-6.5778,-6.3833,-6.464,-6.4934,-6.5081,-6.6109,-6.6366,-6.6439,-6.71,-6.409,-5.9627,-5.6907,-5.417,0.0,0.0,-5.2863,-5.4907,-5.7038,-5.8727,-6.0047,-6.096,-6.1197,-6.096,-6.0148,-5.8829,-5.663,-5.2739,-5.0845,-4.8883,-4.5737,0.0,-4.4479,-4.5196,-4.6684,-4.8511,-5.0907,-5.3571,-5.5326,-5.5455,-5.6528,-5.7188,-5.7188,-5.65,-5.574,-5.4943,-5.4146,-5.2625,-5.022,-4.922,-4.7228,-4.4041,-4.0039,0.0,0.0,0.0,0.0,0.0,0.0,0.0,0.0,0.0,0.0,0.0,0.0,0.0,0.0,0.0,0.0,0.0,0.0,0.0,0.0,0.0,0.0,0.0,0.0,0.0,0.0,0.0,0.0,-6.2682,-6.6506,0.0,-6.2772,-6.3407,-6.3842,-6.3288,-6.6142,-6.8753,-7.0685,-7.2472,-7.4556,-7.7024,-7.7212,-7.7965,-7.936,-7.936,-7.9764,-8.0571,-8.0865,-8.1269,-8.1782,-8.2076,-8.2186,-8.215,-8.1342,-8.0534,-7.9653,-7.7965,-7.5652,-7.3083,-7.1982,-7.0403,-6.8788,-6.9082,-6.9165,-6.9201,-6.9486,-6.9596,-6.9302,-6.7504,-6.5044,-6.2372,-6.0021,-5.8523,-5.7434,-5.6915,-5.7117,-5.7884,-5.9641,-6.0486,-6.1061,-6.1806,-6.1637,-6.1095,-6.0283,-5.9302,-5.7949,-5.5649,-5.3619,-5.1352,-4.8342,-4.8003,-4.7902,-4.7225,-4.8751,-5.0631,-5.2332,-5.3798,-5.5034,-5.5887,-5.6366,-5.6587,-5.6439,-5.6138,-5.5233,-5.3458,-5.3096,-5.2082,-5.0184,-4.8822,-4.7591,-4.6432,-4.2484,-3.8085,0.0,0.0,0.0,0.0,0.0,0.0,0.0,0.0,0.0,0.0,0.0,0.0,0.0,0.0,0.0,0.0,0.0,0.0,0.0,0.0,0.0,0.0,0.0,0.0,0.0,-6.0116,-6.4702,-6.6124,-7.0292,-7.1401,-6.7171,-6.866,-6.9444,-6.8294,-7.0622,-7.2712,-7.4081,-7.5132,-7.646,-7.8112,-7.8442,-7.8993,-7.9764,-8.0057,-8.0608,-8.1415,-8.1415,-8.1672,-8.2186,-8.2186,-8.2039,-8.1746,-8.0938,-8.0131,-7.9323,-7.8516,-7.7194,-7.5616,-7.4515,-7.3303,-7.2092,-7.1798,-7.1725,-7.1725,-7.1725,-7.1513,-7.0889,-6.8495,-6.6806,-6.5327,-6.3127,-6.2241,-6.1771,-6.0947,-6.0467,-6.0385,-6.14,-6.167,-6.1772,-6.2279,-6.2009,-6.1366,-6.0317,-5.9708,-5.893,-5.7442,-5.5784,-5.3754,-5.098,-5.0913,-5.0811,-4.9593,-5.0642,-5.2022,-5.3188,-5.3989,-5.4699,-5.5572,-5.5858,-5.5853,-5.5434,-5.5076,-5.4132,-5.2294,-5.1881,-5.0914,-4.9153,-4.7796,-4.6822,-4.626,-4.2059,-3.8185,-3.4715,0.0,0.0,0.0,0.0,0.0,0.0,0.0,0.0,0.0,0.0,0.0,0.0,0.0,0.0,0.0,0.0,0.0,0.0,0.0,0.0,0.0,0.0,0.0,-5.7963,-6.3159,-6.7171,-6.805,-7.2559,-7.401,-6.9906,-7.2288,-7.37,-7.2866,-7.4885,-7.616,-7.6093,-7.6864,-7.7273,-7.7273,-7.8185,-7.8993,-7.9764,-8.0608,-8.1415,-8.215,-8.215,-8.215,-8.2113,-8.2076,-8.1672,-8.0938,-8.0057,-7.9286,-7.8516,-7.7671,-7.7273,-7.709,-7.5579,-7.4441,-7.3634,-7.2826,-7.2532,-7.2496,-7.2496,-7.1982,-7.1138,-7.0367,-6.9522,-6.8458,-6.6191,-6.5259,-6.4725,-6.331,-6.265,-6.2381,-6.2381,-6.2381,-6.2381,-6.2381,-6.2381,-6.1975,-6.0419,-6.0114,-5.9674,-5.8186,-5.7306,-5.6156,-5.3957,-5.3551,-5.3281,-5.2469,-5.2334,0.0,-5.3416,-5.4011,-5.4391,-5.4391,-5.4944,-5.5016,-5.4208,-5.3229,-5.2335,-5.1565,-5.0577,-4.9081,-4.7075,-4.6252,-4.5086,-4.3444,-3.8788,-3.6007,-3.5154,0.0,0.0,0.0,0.0,0.0,0.0,0.0,0.0,0.0,0.0,0.0,0.0,0.0,0.0,0.0,0.0,0.0,0.0,0.0,0.0,0.0,-5.5365,-5.9376,-6.2089,-6.698,-7.1298,-7.3972,-7.6609,-7.7645,-7.6062,-7.7257,-7.7212,-7.5019,-7.6523,-7.7119,-7.616,-7.6864,-7.7273,-7.7273,-7.8699,-7.958,-7.98,-8.1158,-8.1672,-8.1342,-8.1342,-8.1012,-8.0424,-7.9837,-7.98,-8.0057,-7.8626,-7.8222,-7.8516,-7.7671,-7.6943,-7.6387,-7.5946,-7.5285,-7.4478,-7.367,-7.301,-7.2496,-7.2496,-7.1578,-7.0403,-7.0183,-6.9155,-6.7717,-6.6097,-6.528,-6.4697,-6.333,-6.2715,-6.2381,-6.2381,-6.2381,-6.2381,-6.2381,-6.2381,-6.1975,-6.0419,-6.0114,-5.9674,-5.8186,-5.7712,-5.707,-5.5378,-5.4668,-5.4025,-5.3281,-5.3179,-5.3247,-5.3484,-5.3651,-5.3913,-5.4359,-5.4094,-5.3709,-5.3344,-5.2475,-5.1326,-4.9935,-4.8897,-4.7688,-4.6195,-4.5329,-4.4525,-4.3706,-4.0693,-3.8389,0.0,0.0,0.0,0.0,0.0,0.0,0.0,0.0,0.0,0.0,0.0,0.0,0.0,0.0,0.0,0.0,0.0,0.0,0.0,0.0,0.0,0.0,-5.9873,-6.4382,-6.7439,-7.0381,-7.3476,-7.6838,-7.8256,-7.8921,-7.8861,-7.8973,-7.8353,-7.6677,-7.7311,-7.7437,-7.6644,-7.7047,-7.7273,-7.7273,-7.8589,-7.9286,-7.9286,-8.0534,-8.0938,-8.0498,-8.0167,-7.9764,-7.925,-7.8442,-7.8148,-7.8185,-7.6864,-7.6607,-7.6974,-7.6166,-7.5726,-7.5616,0.0,0.0,0.0,0.0,-7.2899,-7.2496,-7.2496,-7.1908,-7.0991,-7.033,-6.9449,-6.8367,-6.6494,-6.549,-6.4766,-6.3608,-6.2889,-6.2381,-6.2381,-6.2381,-6.2381,-6.2381,-6.2381,-6.1975,-6.0419,-6.0114,-5.9674,-5.8186,-5.7881,0.0,-5.6359,-5.5547,-5.4702,-5.3653,-5.3518,-5.3518,-5.3518,-5.3518,-5.3651,-5.3979,-5.3667,-5.3041,-5.2309,-5.1899,0.0,0.0,0.0,-4.6737,-4.4587,-4.3764,0.0,0.0,0.0,0.0,0.0,0.0,0.0,0.0,-3.3943,-3.3152,0.0,0.0,0.0,0.0,0.0,0.0,0.0,0.0,0.0,0.0,0.0,0.0,0.0,0.0,0.0,0.0,-6.5108,-7.0228,-7.2788,-7.3132,-7.4393,-7.7755,-7.8424,-7.876,-7.9209,-7.8647,-7.8117,-7.7691,-7.7504,-7.7365,-7.7273,-7.7273,0.0,0.0,0.0,-7.8589,-7.8589,-7.9286,-7.9617,-7.9507,-7.8699,-7.8259,-7.8148,-7.7304,-7.657,-7.5909,-7.5102,-7.4845,-7.4845,-7.4147,-7.4184,-7.4771,-7.4771,-7.4258,-7.3487,-7.2753,-7.2496,-7.2496,-7.2496,0.0,0.0,-7.055,-6.9963,-6.9383,-6.7076,-6.5748,-6.4799,-6.3936,-6.3087,-6.2381,-6.2381,-6.2381,-6.2381,-6.2381,-6.2381,-6.1975,-6.0419,-6.0114,-5.9674,-5.8186,-5.7881,-5.7645,-5.6934,-5.619,-5.5243,-5.3822,-5.3551,-5.3518,-5.3518,-5.3518,-5.3551,-5.3584,-5.355,0.0,-5.1645,-5.1632,-5.0799,-4.8794,-4.789,-4.6109,-4.3126,-4.2338,-4.1675,-4.1023,-4.1091,-4.14,-4.1984,-4.1716,-4.1523,-4.1283,-3.6333,-3.5415,0.0,0.0,0.0,0.0,0.0,0.0,0.0,0.0,0.0,0.0,0.0,0.0,0.0,0.0,0.0,-6.2624,-6.7133,-7.1068,-7.3628,-7.3972,-7.5233,-7.8634,-7.9113,-7.9089,-7.901,-7.9221,-7.8829,-7.7496,-7.7715,-7.7768,-7.7304,-7.7273,-7.7273,-7.7273,-7.8148,-7.8589,-7.8589,-7.8736,-7.8479,-7.7781,-7.6974,0.0,-7.5616,-7.4771,-7.4661,-7.5102,-7.4294,-7.4294,-7.4918,-7.4735,-7.4368,-7.3927,-7.3927,-7.345,-7.2716,-7.2569,-7.2496,-7.2496,-7.2496,-7.1651,-7.0513,-7.0183,-6.9146,-6.7816,-6.672,-6.5653,0.0,-6.397,-6.3121,-6.2381,-6.2381,-6.2381,-6.2381,-6.2381,-6.2381,-6.1975,-6.0419,-6.0114,-5.9674,-5.8186,-5.7881,-5.7645,-5.6934,-5.619,-5.5412,-5.4532,-5.389,-5.3518,-5.3518,-5.3518,-5.3718,-5.4171,-5.3685,-5.3422,-5.3619,-5.1962,-5.0733,-5.0276,-4.7438,-4.5474,-4.4837,-4.3697,-4.3003,-4.2867,-4.3505,-4.3607,-4.3071,-4.366,-4.391,-4.3849,-4.1425,-4.0277,0.0,0.0,0.0,0.0,0.0,0.0,0.0,0.0,0.0,0.0,0.0,-5.12,-5.418,0.0,-6.3236,-6.6216,-6.9502,-7.2291,-7.3972,-7.4927,-7.6002,-7.7455,-7.7769,-7.7959,-7.8288,-7.8415,-7.8282,-7.7739,-7.771,-7.7599,-7.7304,-7.7273,-7.7273,-7.7273,-7.7745,-7.7781,-7.7341,-7.7341,-7.6937,-7.6063,-7.5285,-7.4698,-7.4258,-7.3487,-7.3303,-7.367,-7.3266,-7.334,-7.3707,-7.3707,-7.345,-7.3083,-7.3083,-7.2863,-7.2496,-7.2496,-7.2496,-7.2496,-7.2496,-7.1725,-7.0596,-7.0136,-6.9136,-6.7786,-6.611,-6.5234,-6.4565,-6.3422,-6.2774,-6.2381,-6.2381,-6.2381,-6.2381,-6.2381,-6.2381,-6.2076,-6.096,-6.0385,-5.9776,-5.866,-5.8152,-5.778,-5.7408,-5.6731,-5.5886,-5.4769,-5.3957,-5.3518,-5.3518,-5.3518,-5.3618,-5.3913,-5.3891,-5.3821,-5.3774,-5.1864,-5.0656,-5.0565,-4.7979,-4.6266,-4.5861,-4.5375,-4.5094,-4.5094,-4.55,-4.55,-4.5094,-4.55,-4.5698,-4.5698,-4.4834,-4.4007,0.0,0.0,0.0,0.0,0.0,0.0,0.0,0.0,-4.835,-5.1017,-5.3963,-5.7008,-6.0026,-6.3618,-6.6904,-6.9311,-7.168,-7.342,-7.3982,-7.5356,-7.6104,-7.5539,-7.6143,-7.6761,-7.7267,-7.7255,-7.7341,-7.7709,-7.7466,-7.7273,-7.7273,-7.7127,-7.7053,-7.7053,-7.6907,-7.6503,-7.5873,-7.5726,-7.5322,-7.4661,-7.3854,-7.345,-7.345,-7.2789,-7.2496,-7.2496,-7.2496,-7.2496,-7.2496,-7.2496,-7.2496,-7.2496,-7.2496,-7.2496,-7.2496,-7.2496,-7.2496,-7.2496,-7.2496,-7.1843,-7.0869,-7.0161,-6.9112,-6.7753,-6.5643,-6.4803,-6.4288,-6.2969,-6.2498,-6.2381,-6.2381,-6.2381,-6.2381,-6.2381,-6.2381,-6.2178,-6.1467,-6.0655,-5.9877,-5.9167,-5.8389,-5.7881,-5.7881,-5.7273,-5.6359,-5.5006,-5.4194,-5.3653,-5.3518,-5.3518,-5.3517,-5.3685,-5.4235,-5.4329,-5.3718,-5.2369,-5.1273,-5.0571,-4.8982,-4.7651,-4.6728,-4.6748,-4.6786,-4.6786,-4.6921,-4.7022,-4.7022,-4.7158,-4.7225,-4.7225,-4.7225,-4.6752,-4.4701,-4.3431,-4.3624,-4.5778,-4.6462,-4.8337,0.0,0.0,-5.6433,-5.9637,-6.175,-6.3618,-6.5528,-6.7439,-6.9349,-7.1107,-7.2902,-7.3964,-7.3629,-7.4348,-7.459,-7.3715,-7.5712,-7.6851,-7.5999,-7.654,-7.6744,-7.6353,-7.6931,-7.7273,-7.7273,-7.6644,-7.624,-7.624,-7.5542,-7.5139,-7.5065,-7.4331,-7.3927,-7.3817,-7.301,-7.2642,-7.2642,-7.2532,-7.2496,-7.2496,-7.2496,-7.2496,-7.2496,-7.2496,-7.2496,-7.2496,-7.2496,-7.2496,-7.2496,-7.2496,-7.2496,-7.2496,-7.2496,-7.1419,-7.0023,-6.9949,-6.8239,-6.6182,-6.5887,-6.477,-6.3606,-6.3457,-6.2928,-6.2381,-6.2381,-6.2381,-6.2381,-6.2381,-6.2381,-6.2178,-6.1467,-6.0655,-5.9877,-5.9167,-5.8389,-5.7881,-5.7881,-5.7273,-5.6528,-5.5716,-5.4938,-5.4228,-5.3585,-5.3518,-5.3684,-5.4267,-5.4887,-5.5232,-5.498,-5.4804,-5.3635,-5.1159,-5.0224,-4.9119,-4.7789,-4.712,-4.6786,-4.6786,-4.7462,-4.78,-4.78,-4.8443,-4.8748,-4.8748,-4.8748,-4.8003,-4.924,-4.8856,-4.924,0.0,-5.2403,-5.5012,-5.8141,-5.9639,-6.1054,-6.337,-6.5176,-6.6713,-6.7935,-6.912,-7.0304,-7.1489,-7.2711,-7.3489,-7.3494,-7.3795,-7.3484,-7.2038,-7.283,-7.3777,-7.4487,-7.5289,-7.5624,-7.5395,-7.5726,-7.5879,-7.5879,-7.5579,-7.5395,-7.5395,-7.5102,-7.4698,-7.4221,-7.3854,-7.345,-7.301,-7.2679,-7.2496,-7.2496,-7.2496,-7.2496,-7.2496,-7.2496,-7.2496,-7.2459,-7.1982,-7.1798,-7.1762,-7.1284,-7.1394,-7.1872,-7.2349,-7.2496,-7.2393,-7.1859,-7.0893,-6.9725,-6.8615,-6.7189,-6.5725,-6.477,-6.4005,-6.342,-6.3004,-6.262,-6.2381,-6.2381,-6.2381,-6.2381,-6.2381,-6.2381,-6.2313,-6.2009,-6.096,-6.0013,-5.9708,-5.8693,-5.7881,-5.7881,-5.7645,-5.7171,-5.6461,-5.5716,-5.4972,-5.4228,-5.4126,-5.4193,-5.4397,-5.4641,-5.4929,-5.5292,-5.4576,-5.3579,-5.2451,-5.1298,-5.0243,-4.9221,-4.8883,-4.8511,-4.8071,-4.8376,-4.8545,-4.8545,-4.8849,-4.9018,-4.9018,-4.9018,-4.8619,-5.1471,0.0,0.0,-5.4056,-5.7175,-6.0264,-6.0865,-6.2766,-6.47,-6.5849,-6.74,-6.8776,-6.9425,-6.9999,-7.0686,-7.1565,-7.2406,-7.292,-7.2652,-7.2838,-7.2294,-7.0474,-7.0087,-7.0597,-7.2222,-7.3523,-7.4331,-7.4551,-7.4771,-7.4918,-7.4918,-7.4698,-7.4588,-7.4588,-7.4368,-7.3964,-7.3377,-7.3377,-7.3083,-7.2496,-7.2496,-7.2496,-7.2496,-7.2496,-7.2496,-7.2496,-7.2496,-7.2386,-7.2129,-7.1541,-7.1146,-7.0917,-7.033,-7.0587,-7.1366,-7.1924,-7.2255,-7.2299,-7.1406,-7.0514,-6.9508,-6.7914,-6.6558,-6.5303,-6.4147,-6.3496,-6.3083,-6.2576,-6.2381,-6.2381,-6.2381,-6.2381,-6.2381,-6.2381,-6.2245,-6.2076,-6.2076,-6.0892,-5.981,-5.981,-5.8761,-5.7881,-5.7881,-5.7881,-5.7712,-5.7171,-5.6664,-5.5987,-5.5006,-5.4735,-5.4533,-5.4397,-5.4391,-5.4672,-5.5343,-5.446,-5.371,-5.3318,-5.2335,-5.1376,-5.0439,-5.0405,-5.0168,-4.9627,-4.9627,-4.9627,-4.9627,-4.9627,-4.9627,-4.9627,-4.9565,-4.9502,0.0,0.0,-5.3797,-5.618,-5.9317,-6.2426,-6.4781,-6.6628,-6.7837,-6.7836,-6.9158,-7.0342,-7.0381,-7.0364,-7.0686,-7.1565,-7.2406,-7.2373,-7.0632,-7.1125,-7.0971,-6.9171,-6.8265,-6.8118,-6.8972,-7.1174,-7.2899,-7.367,-7.4478,-7.4918,-7.4918,-7.4147,-7.3744,-7.3744,-7.2973,-7.2569,-7.2532,-7.2532,-7.2532,-7.2496,-7.2496,-7.2496,-7.2496,-7.2496,-7.2496,-7.2496,-7.2496,-7.2055,-7.1329,-7.1293,-7.0844,-7.011,-7.011,-7.0587,-7.1293,-7.1186,-7.1641,-7.2219,-7.1377,-7.0369,-6.9302,-6.8436,-6.6558,-6.4635,-6.4601,-6.357,-6.242,-6.2381,-6.2381,-6.2381,-6.2381,-6.2381,-6.2381,-6.2381,-6.1839,-6.1332,-6.1332,-6.0114,-5.9032,-5.9032,-5.8423,-5.7881,-5.7881,-5.7881,-5.7881,-5.7848,-5.7848,-5.7306,-5.5852,-5.504,-5.4533,-5.4397,-5.4391,-5.4672,-5.5343,-5.5367,-5.475,-5.3383,-5.3253,-5.2598,-5.1217,-5.1183,-5.1183,-5.1117,-5.1117,-5.1117,-5.1117,-5.1117,-5.1117,-5.1117,-5.1021,-5.0956,-5.2344,0.0,-5.7939,-6.0393,-6.3551,-6.6413,-6.7729,-6.8434,-6.8808,-6.8776,-6.7859,-6.7095,-6.7095,-6.7095,-6.7362,-6.8241,-7.0495,-7.1687,-7.046,-7.1516,-7.1135,-6.771,-6.8017,-6.8164,-6.7393,-6.9009,-7.066,-7.2018,-7.2386,-7.2753,-7.3303,-7.3046,-7.2899,-7.2899,-7.2642,-7.2496,-7.2496,-7.2496,-7.2496,-7.2496,-7.2496,-7.2496,-7.2496,-7.2496,-7.2496,-7.2459,-7.1945,-7.1578,-7.1219,-7.0146,-6.9853,-7.0036,-6.9522,-7.0146,-7.1293,-7.115,-7.1216,-7.1172,-7.0281,-6.9718,-6.8977,-6.6578,-6.5286,-6.4428,-6.3422,-6.2813,-6.2381,-6.2381,-6.2381,-6.2381,-6.2381,-6.2381,-6.2381,-6.2381,-6.1839,-6.1298,-6.1298,-6.0114,-5.9032,-5.9032,-5.8389,-5.7881,-5.7881,-5.7881,-5.7881,-5.7881,-5.7476,-5.7002,-5.6494,-5.5344,-5.4567,-5.4532,-5.4089,-5.3915,-5.4108,-5.4108,-5.3909,-5.3442,-5.3442,-5.297,-5.1961,-5.1928,-5.1725,-5.1185,-5.1185,-5.1153,-5.1089,-5.1089,-5.099,-5.0859,-5.0826,-5.0726,-5.5346,-5.8274,-6.113,-6.4164,-6.6552,-6.8454,-6.946,-6.9206,-6.8661,-6.8356,-6.6522,-6.4764,-6.4153,-6.3809,-6.4191,-6.5948,-6.8547,-7.0317,-7.031,-7.1253,-7.0686,-6.7332,-6.7577,-6.765,-6.6586,-6.7687,-6.9265,-7.1146,-7.1293,-7.1651,-7.2459,-7.2496,-7.2496,-7.2496,-7.2496,-7.2496,-7.2496,-7.2496,-7.2496,-7.2496,-7.2496,-7.2496,-7.2496,-7.2202,-7.2092,-7.2055,-7.1211,-7.0881,-7.0807,-6.9779,-6.9633,-7.0036,-6.9522,-7.0119,-7.1207,-7.1063,-7.088,-7.0622,-6.9702,-6.917,-6.8458,-6.5863,-6.4806,-6.4393,-6.3158,-6.2615,-6.2381,-6.2381,-6.2381,-6.2381,-6.2381,-6.2381,-6.2381,-6.2381,-6.1603,-6.0858,-6.0858,-5.9674,-5.8626,-5.8626,-5.822,-5.7881,-5.7881,-5.7881,-5.7881,-5.7881,-5.7476,-5.7103,-5.6833,-5.5953,-5.5277,-5.5006,-5.4329,-5.389,-5.389,-5.3653,-5.3518,-5.3518,-5.3518,-5.3281,-5.2739,-5.2739,-5.2503,-5.2029,-5.2029,-5.193,-5.1798,-5.1798,-5.1665,-5.1497,-5.1395,-5.1327,-5.8469,-6.0964,-6.3372,-6.7285,-6.8292,-6.8684,-7.0031,-6.9043,-6.7591,-6.6674,-6.507,-6.3288,0.0,0.0,-6.1249,-6.4535,-6.6674,-6.8451,-7.0063,-7.0449,-6.985,-6.7994,-6.7173,-6.6696,-6.6623,-6.7357,-6.8752,-7.1101,-7.1248,-7.1615,-7.2459,-7.2496,-7.2496,-7.2496,-7.2496,-7.2496,-7.2496,-7.2496,-7.2496,-7.2496,-7.2496,-7.2496,-7.2422,-7.1651,-7.1256,-7.1183,-7.044,-7.011,-7.011,-7.011,-7.011,-7.0146,-7.0146,-7.0576,-7.1136,-7.085,-7.0665,-7.0399,-6.9599,-6.8754,-6.7752,-6.6137,-6.5174,-6.4463,-6.3679,-6.2966,-6.2381,-6.2381,-6.2381,-6.2381,-6.2381,-6.2381,-6.2381,-6.2381,-6.1231,-6.0148,-6.0114,-5.8964,-5.7949,-5.7881,-5.7881,-5.7881,-5.7881,-5.7881,-5.7881,-5.7881,-5.7881,-5.7645,-5.6934,-5.6833,-5.6528,-5.5852,-5.5108,-5.4668,-5.4668,-5.3991,-5.3551,-5.3551,-5.3518,-5.3518,-5.3518,-5.3518,-5.3518,-5.3518,-5.3518,-5.3382,-5.3179,-5.3179,-5.3076,-5.2868,-5.2659,-5.2589,-6.1082,-6.4462,-6.7166,-6.8704,-6.9596,-7.0003,-6.9666,-6.825,-6.6407,-6.4305,-6.1019,-5.781,0.0,0.0,-5.8268,-6.037,-6.4764,-6.8451,-7.0063,-7.1343,-7.1237,-6.885,-6.9486,-6.9633,-6.8421,-6.9009,-6.9743,-7.0367,-7.0403,-7.1027,-7.2422,-7.2496,-7.2496,-7.2496,-7.2496,-7.2496,-7.2496,-7.2496,-7.2496,-7.2496,-7.2496,-7.2202,-7.1615,-7.1366,-7.0991,-7.0403,-7.0183,-7.011,-7.011,-7.011,-7.044,-7.0962,-7.0885,-7.1304,-7.1867,-7.098,-7.0247,-6.9599,-6.8651,-6.8192,-6.7656,-6.5589,-6.4772,-6.4358,-6.3083,-6.2576,-6.2381,-6.2381,-6.2381,-6.2381,-6.2381,-6.2381,-6.2381,-6.2381,-6.167,-6.0825,-6.0216,-5.937,-5.8558,-5.8017,-5.7881,-5.7881,-5.7881,-5.7881,-5.7881,-5.7881,-5.7881,-5.7814,-5.7645,-5.7137,-5.6731,-5.6562,-5.5852,-5.5446,-5.5446,-5.4735,-5.4329,-5.4329,-5.3788,-5.3518,-5.3518,-5.3518,-5.3518,-5.3518,-5.3348,-5.3179,-5.2972,-5.2834,-5.2659,-5.2516,-5.248,-5.2445,-6.4385,-6.7126,-6.9047,-6.9778,-6.9773,-6.9115,-6.7454,-6.5444,-6.3006,-5.972,-5.6243,0.0,-5.1009,-5.2384,-5.4702,-5.7297,0.0,0.0,-6.9604,-7.1074,-7.138,-7.011,-7.077,-7.0807,-6.9559,-7.0146,-7.0477,-7.011,-7.011,-7.0477,-7.1394,-7.1468,-7.1468,-7.1468,-7.1468,-7.1468,-7.1468,-7.1798,-7.1798,-7.1468,-7.1468,-7.1211,-7.077,-7.0403,-7.0183,-7.0073,-6.9743,-6.9963,-7.0624,-7.0624,-7.1044,-7.172,-7.167,-7.1808,-7.1988,-7.1369,-7.0369,-6.9255,-6.87,-6.7836,-6.6751,-6.5115,-6.4601,-6.4323,-6.2851,-6.2381,-6.2381,-6.2381,-6.2381,-6.2381,-6.2381,-6.2381,-6.2381,-6.2381,-6.1839,-6.1095,-6.0283,-5.9539,-5.8795,-5.8017,-5.7881,-5.7881,-5.7881,-5.7881,-5.7881,-5.7881,-5.7881,-5.778,-5.7442,-5.734,-5.7273,-5.7273,-5.663,-5.619,-5.619,-5.5513,-5.5074,-5.5074,-5.4702,-5.4465,-5.4465,-5.416,-5.3991,-5.3991,-5.3449,-5.311,-5.2903,-5.2694,-5.2551,-5.2409,-5.2409,-5.2409,-6.7574,-6.9058,-6.9812,-7.0407,-6.9321,-6.737,-6.4541,-6.1913,-5.8842,-5.4486,0.0,-4.9289,-4.7597,-4.8835,-5.1358,-5.5193,0.0,-6.4594,-6.8825,-7.014,-7.0791,-7.1231,-7.1366,-7.1211,-7.0477,-7.0954,-7.1027,-7.0293,-7.0073,-7.0,-7.0073,-7.011,-7.0146,-7.0257,-7.0257,-7.0293,-7.0403,-7.1101,-7.1064,-7.0257,-7.0257,-7.0146,-6.9926,-6.9229,-6.9302,-6.9926,-6.9339,-6.9926,-7.1293,-7.1403,-7.1793,-7.2299,-7.227,-7.2061,-7.178,-7.164,-7.064,-6.9352,-6.9243,-6.7729,-6.5707,-6.4875,-6.4532,-6.4183,-6.2813,-6.2381,-6.2381,-6.2381,-6.2381,-6.2381,-6.2381,-6.2381,-6.2381,-6.2381,-6.1907,-6.1231,-6.0419,-5.9674,-5.893,-5.8186,-5.8051,-5.8017,-5.7915,-5.7881,-5.7881,-5.7881,-5.7881,-5.7645,-5.7036,-5.7408,-5.7746,-5.7746,-5.7171,-5.6833,-5.6934,-5.6292,-5.5852,-5.5852,-5.5749,-5.5681,-5.5681,-5.5108,-5.4735,-5.4735,-5.3887,-5.3378,-5.3205,-5.2959,-5.2782,-5.2672,-5.2672,-5.2672,-6.8559,-6.9903,-7.0441,-6.9927,-6.8944,-6.7063,-6.3121,-6.0196,0.0,0.0,-4.8945,-4.6653,-4.4961,-4.6968,-5.021,-5.4277,-5.8353,-6.2818,-6.7871,-6.9323,-7.0172,0.0,-7.1908,-7.2239,-7.2092,-7.1615,-7.1219,-7.1101,-6.9853,-6.9412,-7.0073,-7.011,-7.0403,-7.1064,-7.1101,-7.1431,-7.2092,-7.2239,-7.1908,-7.1101,-7.1101,-7.0403,-6.9119,-6.8972,-6.8972,-6.9155,-6.9669,-7.044,-7.1329,-7.1911,-7.2182,-7.227,-7.1964,-7.1847,-7.1713,-7.0936,-7.0439,-7.0113,-6.9461,-6.8089,-6.6456,-6.5051,-6.4183,-6.3533,-6.2659,-6.2381,-6.2381,-6.2381,-6.2381,-6.2381,-6.2381,-6.2381,-6.2381,-6.2381,-6.2279,-6.2009,-6.1264,-6.0486,-5.9708,-5.8964,-5.8829,-5.8626,-5.8017,-5.7881,-5.7881,-5.7881,-5.7881,-5.7848,-5.7712,-5.7273,-5.7002,-5.7002,-5.6867,-5.7036,-5.7645,-5.7036,-5.663,-5.663,-5.6055,-5.5681,-5.5681,-5.5581,-5.5513,-5.5513,-5.5026,-5.4747,-5.4711,-5.4349,-5.4129,-5.4162,-5.4162,-5.4162,-6.9582,-7.0451,-7.0652,-7.0268,-6.877,-6.6047,-6.0922,0.0,0.0,0.0,-4.5048,-4.352,-4.2287,-4.4954,0.0,-5.0734,-5.4453,-5.9014,-6.4707,-6.6223,-6.7867,-7.0945,-7.2018,-7.2496,-7.2496,-7.2165,-7.1578,-7.0734,-6.9963,-6.9522,-6.9486,-6.9082,-6.9009,-6.9412,-7.0257,-7.066,-7.0624,-7.1027,-7.0844,-7.0073,-6.9633,-6.9009,-6.8274,-6.8274,-6.8715,-6.9559,-6.9926,-7.0751,-7.1867,-7.2146,-7.221,-7.203,-7.1878,-7.1718,-7.1589,-7.1127,-7.0734,-7.0335,-6.9968,-6.8809,-6.7273,-6.5755,-6.446,-6.3383,-6.262,-6.2381,-6.2381,-6.2381,-6.2381,-6.2381,-6.2381,-6.2381,-6.2381,-6.2381,-6.211,-6.1738,-6.1366,-6.0655,-6.0013,-5.9641,-5.9573,-5.9336,-5.8592,-5.8457,-5.8355,-5.7949,-5.7881,-5.7746,-5.7374,-5.7036,-5.6934,-5.734,-5.7374,-5.7509,-5.7848,-5.7577,-5.7374,-5.7374,-5.7036,-5.6833,-5.6833,-5.6494,-5.622,-5.6113,-5.5458,-5.5077,-5.4935,-5.4638,-5.449,-5.449,-5.449,-5.449,-7.023,-7.0737,-7.0654,-7.0463,-6.8273,-6.4611,-5.8727,-5.46,0.0,0.0,-4.1741,-4.0997,-4.0489,0.0,-4.5714,0.0,-5.0819,-5.5225,-6.1202,-6.3356,-6.5962,-7.0265,-7.1798,0.0,-7.2496,-7.2202,-7.1541,-7.044,-7.0036,-6.9486,-6.8678,-6.8017,-6.776,-6.7944,-6.9192,-6.9633,-6.9155,-6.9779,-6.9779,-6.9155,-6.8531,-6.8091,-6.7944,-6.8128,-6.8898,-7.011,-7.0265,-7.106,-7.2299,-7.224,-7.2061,-7.1816,-7.1749,-7.1656,-7.1494,-7.1494,-7.1132,-7.0625,-7.0625,-6.9637,-6.8128,-6.6742,-6.5227,-6.383,-6.2926,-6.2753,-6.2854,-6.2854,-6.2854,-6.2821,-6.2685,-6.2618,-6.2584,-6.2415,-6.1941,-6.1535,-6.1535,-6.1028,-6.0554,-6.0385,-6.0351,-6.0114,-5.937,-5.9268,-5.8998,-5.8254,-5.8118,-5.7881,-5.7137,-5.7036,-5.7273,-5.7814,-5.7746,-5.7712,-5.7881,-5.7881,-5.7881,-5.7845,-5.7881,-5.7845,-5.7772,-5.7268,-5.6892,-5.6673,-5.5886,-5.5436,-5.5288,-5.5065,-5.499,-5.499,-5.499,-5.499,-6.995,-7.0601,-7.0394,-6.9643,-6.6904,-6.2892,-5.6969,0.0,0.0,-4.24,-4.0599,-4.0154,-4.0602,0.0,0.0,0.0,0.0,-5.3046,-5.8731,-6.2805,-6.6182,-6.8825,0.0,0.0,-7.2496,-7.1174,-7.055,-7.1174,-6.9853,-6.8641,-6.7834,-6.7724,-6.8017,-6.8788,-6.8935,-6.9339,-6.9963,-7.0073,-7.0073,-7.0,-6.9889,-6.9486,-6.8825,-6.9559,-6.9963,-7.0146,-7.0739,-7.1494,-7.2299,-7.2,-7.1847,-7.1786,-7.1625,-7.1494,-7.1494,-7.1494,-7.1458,-7.1386,-7.1386,-7.0429,-6.9055,-6.8152,-6.6867,-6.5313,-6.3838,-6.3869,-6.441,-6.441,-6.441,-6.4241,-6.3599,-6.3429,-6.3226,-6.255,-6.2347,-6.2279,-6.2279,-6.2245,-6.1975,-6.1332,-6.1197,-6.0926,-6.0148,-6.0013,-5.9742,-5.9032,-5.893,-5.8626,-5.7881,-5.778,-5.7814,-5.7881,-5.7306,-5.7171,-5.7814,-5.7881,-5.7808,-5.7625,-5.7808,-5.7735,-5.7364,-5.7446,-5.7413,-5.7226,-5.6972,-5.6825,-5.6787,-5.6596,-5.6481,-5.6481,-5.6481,-5.6481,-6.8863,-6.9819,-6.9858,-7.0049,-6.7118,-6.2777,-5.7351,0.0,-4.7635,-4.2425,-4.0587,-3.9965,-4.0178,-4.0512,0.0,0.0,0.0,0.0,-5.3371,-5.6381,-6.0015,-6.5375,-6.8128,-7.0367,-7.2312,-7.1505,-7.055,-6.9926,-6.8825,-6.8017,-6.7724,-6.7687,-6.7834,-6.8164,-6.8641,-6.9045,-6.9376,-6.9376,-6.9376,-6.9376,-6.8898,-6.8752,-6.8898,-6.9229,-6.9926,-7.0816,-7.1003,-7.1472,-7.2114,-7.1872,-7.1718,-7.1625,-7.1526,-7.1494,-7.1494,-7.1494,-7.1494,-7.1494,-7.1494,-7.1119,-7.0339,-6.8647,-6.7964,-6.7411,-6.492,-6.4377,-6.4613,-6.4613,-6.4613,-6.4546,-6.4241,-6.3835,-6.3429,-6.3125,-6.2719,-6.2381,-6.2381,-6.2381,-6.2313,-6.2009,-6.1941,-6.1704,-6.096,-6.0825,-6.0554,-5.9776,-5.9674,-5.9573,-5.9268,-5.8829,-5.8558,-5.8558,-5.7915,-5.7577,-5.7881,-5.7881,-5.7808,-5.7625,-5.7772,-5.7735,-5.7327,-5.7476,-5.7439,-5.7139,-5.7025,-5.6949,-5.6834,-5.6719,-5.668,-5.668,-5.668,-5.668,-6.7684,-6.9061,-6.9444,-7.004,-6.6797,-6.2089,0.0,-5.1964,-4.6926,-4.1916,-4.0312,-3.9739,-3.9587,-3.9903,-4.0644,0.0,0.0,0.0,-5.0105,-5.2821,-5.6455,-6.2291,-6.5154,-6.7687,-7.0477,-7.066,-7.0036,-6.8641,-6.8017,-6.7687,-6.7687,-6.7687,-6.7687,-6.7687,-6.8238,-6.8568,-6.8568,-6.8568,-6.8678,-6.8898,-6.8311,-6.8458,-6.9265,-6.9522,-7.0229,-7.1236,-7.1348,-7.1603,-7.1933,-7.178,-7.1625,-7.1494,-7.1593,-7.1526,-7.1494,-7.1593,-7.1526,-7.1494,-7.1494,-7.1494,-7.1163,-6.9106,-6.878,-6.873,-6.6023,-6.5256,-6.5256,-6.5256,-6.4952,-6.4647,-6.4884,-6.4241,-6.3565,-6.3768,-6.3429,-6.299,-6.2753,-6.2719,-6.2651,-6.2415,-6.2381,-6.2245,-6.1704,-6.1637,-6.1366,-6.0554,-6.0452,-6.0385,-6.0148,-5.9641,-5.9336,-5.9336,-5.8863,-5.8355,-5.7915,-5.7881,-5.7808,-5.7625,-5.7735,-5.7625,-5.7214,-5.7364,-5.7252,-5.6911,-5.6911,-5.6834,-5.668,-5.668,-5.668,-5.668,-5.668,-5.668,-6.656,-6.8547,-6.9196,-6.9196,-6.5375,-6.0293,0.0,-5.0168,-4.5197,-4.0501,-3.9514,-3.935,-3.8825,-3.9365,-4.0157,0.0,0.0,0.0,-5.0325,-5.4252,-5.7703,0.0,-6.2622,-6.4787,-6.6402,-6.8017,-6.8605,-6.776,-6.7687,-6.7687,-6.7687,-6.7687,-6.7687,-6.7687,-6.7714,-6.7687,-6.7687,-6.7687,-6.8091,-6.8898,-6.8898,-6.9302,-7.011,-7.0917,-7.1236,-7.1165,-7.1749,-7.1897,-7.1816,-7.1593,-7.1494,-7.1494,-7.1718,-7.1687,-7.1526,-7.1718,-7.1656,-7.1494,-7.1494,-7.1494,-7.1236,-6.9672,-6.9165,-6.8868,-6.7284,-6.6779,-6.6779,-6.6779,-6.573,-6.4783,-6.5493,-6.4613,-6.37,-6.441,-6.458,-6.4377,-6.3666,-6.3497,-6.3294,-6.2516,-6.2381,-6.2381,-6.2381,-6.2381,-6.2144,-6.14,-6.1298,-6.0994,-6.0216,-6.008,-6.008,-6.008,-6.008,-5.9471,-5.8017,-5.7881,-5.7808,-5.7625,-5.7588,-5.7439,-5.7025,-5.7025,-5.6911,-5.6719,-5.668,-5.668,-5.668,-5.668,-5.668,-5.668,-5.668,-5.668,-5.8995,-6.1095,-6.2122,-6.1309,-5.9212,-5.6205,-5.1697,-4.8525,-4.5241,-4.0711,-3.9635,-3.9401,-3.905,-3.9024,-3.9863,-4.2323,0.0,0.0,0.0,0.0,0.0,-5.9148,-6.4677,-6.8385,-6.8898,-6.8935,-6.8568,-6.776,-6.7687,-6.7687,-6.7687,-6.7687,-6.7687,-6.7687,-6.7687,-6.7687,-6.7687,-6.8238,-6.8385,-6.8091,-6.8641,-6.9045,-6.9302,-7.011,-7.0722,-7.1099,-7.1749,-7.1933,-7.1786,-7.1593,-7.1494,-7.1494,-7.1593,-7.1562,-7.1494,-7.1593,-7.1526,-7.1494,-7.1494,-7.1494,-7.1336,-7.0337,-6.9672,-6.898,-6.7935,-6.7236,-6.6812,-6.6812,-6.6474,-6.617,-6.6406,-6.573,-6.5053,-6.529,-6.4952,-6.4546,-6.4309,-6.4241,-6.4174,-6.3937,-6.3497,-6.3159,-6.3159,-6.2719,-6.2313,-6.2076,-6.2042,-6.1941,-6.1704,-6.1231,-6.0926,-6.0926,-6.0419,-5.9911,-5.9438,-5.9404,-5.9254,-5.8945,-5.8556,-5.8136,-5.7559,-5.7177,-5.6911,-5.668,-5.668,-5.668,-5.668,-5.668,-5.668,-5.668,-5.668,-5.668,0.0,-5.6548,-5.7835,-5.7104,-5.5687,-5.3416,-4.9519,-4.7035,-4.4467,-4.0537,-3.9623,-3.9389,-3.9021,-3.9046,-3.979,-4.1825,0.0,0.0,0.0,0.0,-5.4803,-5.9134,-6.4494,-6.7944,-6.8274,-6.8385,-6.8238,-6.7724,-6.7687,-6.7687,-6.7687,-6.7687,-6.7834,-6.8128,-6.8128,-6.8128,-6.8128,-6.8641,-6.8641,-6.8164,-6.8348,-6.8605,-6.8935,-6.9743,-7.0437,-7.1004,-7.1361,-7.1429,0.0,-7.1127,-7.106,-7.1127,-7.1542,-7.162,-7.1494,-7.1651,-7.1589,-7.1494,-7.1494,-7.1494,-7.1368,-7.0644,-6.9849,-6.9017,-6.8215,-6.7448,-6.6812,-6.6812,-6.6609,-6.644,-6.6745,-6.6237,-6.5696,-6.5696,-6.5358,-6.485,-6.4309,-6.4174,-6.4106,-6.3802,-6.3396,-6.3091,-6.3091,-6.2922,-6.2719,-6.2415,-6.2618,-6.2719,-6.2415,-6.2009,-6.1704,-6.1704,-6.1264,-6.096,-6.096,-6.0419,-5.9962,-5.9616,-5.9252,-5.8791,-5.8362,-5.793,-5.7664,-5.7508,-5.7508,-5.7508,-5.7508,-5.7243,-5.6945,-5.668,-5.668,-5.668,0.0,-5.3868,-5.535,-5.5222,-5.3655,-5.1314,-4.8094,-4.5573,0.0,-4.0113,-3.9514,-3.9375,-3.8958,-3.9386,-3.9937,-4.0267,-4.2837,0.0,0.0,-5.1075,-5.5611,-6.0419,-6.3025,-6.4751,-6.5558,-6.688,-6.7687,-6.7687,-6.7687,-6.7687,-6.7687,-6.7687,-6.8054,-6.8862,-6.8898,-6.8935,-6.8972,-6.9009,-6.8972,-6.8898,-6.8128,-6.8128,-6.8862,-6.9633,-7.0271,-7.0711,-7.0784,-7.0678,-7.0511,-7.0511,-7.0511,-7.0615,-7.1612,-7.1805,-7.1557,-7.1866,-7.1775,-7.1494,-7.1494,-7.1494,-7.1368,-7.0644,-6.9849,-6.9017,-6.8215,-6.7488,-6.6896,-6.6812,-6.6305,-6.5933,-6.6643,-6.6305,-6.5764,-6.5764,-6.5764,-6.5392,-6.4038,-6.3734,-6.3531,-6.2854,-6.2651,-6.2618,-6.255,-6.3091,-6.326,-6.2516,-6.299,-6.3193,-6.255,-6.2482,-6.2482,-6.2482,-6.2482,-6.2448,-6.2381,-6.1095,-6.0169,-5.9939,-5.9711,-5.9482,-5.9245,-5.9053,-5.8899,-5.8899,-5.8899,-5.8899,-5.8899,-5.8204,-5.7508,-5.6846,-5.6846,-5.6846,-4.2945,0.0,-4.7201,-4.5655,-4.567,-4.5545,0.0,-4.3023,0.0,0.0,0.0,0.0,-4.0415,-3.968,-4.0194,-4.3901,-4.5112,-4.6617,-4.9517,-5.5537,-6.1447,-6.6329,-6.743,-6.8091,-6.8898,-6.8201,-6.7687,-6.7687,-6.7687,-6.7687,-6.7687,-6.7687,-6.8054,-6.8862,-6.8898,-6.9192,-6.9816,-6.9816,-6.9522,-6.8898,-6.8715,-6.8385,-6.8017,-6.8825,-6.9521,-7.012,-7.0624,-7.1065,-7.1464,-7.1464,-7.1464,-7.1531,-7.1854,-7.1866,-7.1718,-7.1811,-7.1718,-7.1494,-7.1494,-7.1494,-7.1368,-7.0644,-6.9849,-6.9017,-6.8215,-6.7856,-6.761,-6.6946,-6.6677,-6.6576,-6.6779,-6.6677,-6.6542,-6.6542,-6.6542,-6.644,-6.6102,-6.6034,-6.6,-6.5797,-6.529,-6.4749,-6.4174,-6.3768,-6.326,-6.2516,-6.255,-6.2787,-6.3193,-6.326,-6.326,-6.326,-6.326,-6.3024,-6.2448,-6.2042,-6.1683,-6.1287,-6.0711,-6.0178,-5.9809,-5.9238,-5.8899,-5.8899,-5.8899,-5.8899,-5.8899,-5.8734,-5.8535,-5.8369,-5.8369,-5.8369,-3.9957,-4.2059,-4.403,-4.2963,-4.3327,-4.3663,0.0,0.0,0.0,0.0,0.0,0.0,0.0,0.0,0.0,-4.3754,-4.548,-4.8233,-5.3371,-5.8767,-6.3686,-6.7871,-6.8678,-6.9082,-6.9522,-6.8421,-6.7687,-6.7687,-6.7687,-6.7687,-6.7687,-6.7687,-6.8238,-6.9412,-6.9082,-6.9302,-7.0073,-6.9743,-6.9339,-6.8898,-6.8898,-6.8495,-6.7724,-6.9302,-6.9953,-6.9921,-7.0515,-7.0986,-7.1235,-7.081,-7.0822,-7.1179,-7.1326,-7.1484,-7.1656,-7.1786,-7.1656,-7.1494,-7.1494,-7.1494,-7.1368,-7.0644,-7.0337,-6.999,-6.8447,-6.8289,-6.8293,-6.7154,-6.6812,-6.6812,-6.6812,-6.6812,-6.6711,-6.6373,-6.6305,-6.6203,-6.5865,-6.5797,-6.5797,-6.5797,-6.5459,-6.5053,-6.4681,-6.4546,-6.4275,-6.3531,-6.37,-6.3937,-6.4005,-6.3734,-6.3531,-6.3531,-6.3531,-6.3193,-6.2448,-6.264,-6.2474,-6.1743,-6.126,-6.0824,-6.0523,-6.0125,-5.9926,-5.9926,-5.9926,-5.9761,-5.9396,-5.9396,-5.9231,-5.8899,-5.8899,-5.8899,-3.9902,-4.1918,-4.3748,-4.317,-4.3352,-4.3395,0.0,0.0,0.0,0.0,0.0,0.0,0.0,-4.0928,0.0,0.0,-4.603,-5.0672,-5.774,-6.119,-6.42,-6.7467,-6.8495,-6.8972,-6.9082,-6.8348,-6.7871,-6.7871,-6.7871,-6.7834,-6.7714,-6.7687,-6.8385,-6.9853,-6.9155,-6.9119,-6.9926,-6.9229,-6.8898,-6.8898,-6.8788,-6.8421,-6.7944,-6.9889,-7.0502,-7.0132,-7.0471,0.0,-7.0605,-6.9909,-6.9957,-7.0464,-7.0756,-7.1132,-7.1593,-7.1718,-7.1656,-7.1494,-7.1494,-7.1494,-7.1368,-7.0644,-7.0745,-7.0742,-6.8638,-6.837,-6.8562,-6.7195,-6.6812,-6.6812,-6.6812,-6.6812,-6.6643,-6.6,-6.5865,-6.5696,-6.5087,-6.4911,-6.4911,-6.4911,-6.487,-6.4836,-6.4742,-6.5208,-6.5343,-6.4715,-6.508,-6.5317,-6.485,-6.4241,-6.3835,-6.3835,-6.3829,-6.3525,-6.2747,-6.3047,-6.2878,-6.1903,-6.1573,-6.1334,-6.1119,-6.1119,-6.1119,-6.1119,-6.1119,-6.0788,-6.0191,-6.0191,-5.986,-5.9231,-5.9231,-5.9231,-4.2057,-4.3815,-4.4315,-4.1228,-4.1193,-4.1609,0.0,0.0,0.0,0.0,0.0,0.0,0.0,-4.258,-4.4048,-4.6911,-5.0692,-5.5354,-6.1227,-6.3135,-6.5081,-6.8348,-6.8825,-6.9192,-6.9853,-6.9192,-6.8715,-6.8715,-6.8715,-6.8421,-6.7724,-6.7687,-6.8128,-6.9045,-6.8311,-6.8274,-6.9082,-6.8972,-6.8898,-6.8898,-6.8201,-6.8164,-6.8715,-6.8385,-6.9302,-7.1044,0.0,-7.0259,-7.1041,-7.1404,-7.1235,-7.0834,-7.1706,-7.1915,-7.1786,-7.1816,-7.1656,-7.1494,-7.1494,-7.1494,-7.1368,-7.0644,-6.999,-6.9348,-6.8293,-6.761,-6.7112,-6.6896,-6.6812,-6.6812,-6.6812,-6.6812,-6.6779,-6.6677,-6.6643,-6.6609,-6.6508,-6.634,-6.6213,-6.6213,-6.6009,-6.5731,-6.5371,-6.5169,-6.4967,-6.4674,-6.4551,-6.478,-6.5459,-6.5425,-6.5358,-6.5358,-6.5192,-6.4798,-6.4057,-6.3718,-6.3199,-6.2424,-6.1791,-6.1334,-6.1119,-6.1119,-6.1119,-6.1119,-6.1119,-6.1053,-6.0953,-6.0953,-6.0887,-6.0755,-6.0755,-6.0755,-4.1064,-4.2677,-4.3621,-4.2208,-4.3255,-4.4273,0.0,0.0,0.0,0.0,0.0,0.0,0.0,0.0,-4.7572,-5.216,-5.5207,-5.851,-6.2879,-6.4971,-6.6769,-6.8678,-6.9302,-6.9522,-6.9449,-6.9119,-6.8898,-6.8898,-6.9302,-6.9376,-6.9009,-6.8568,-6.8715,-6.9522,-6.8348,-6.8091,-6.8898,-6.8458,-6.8238,-6.8238,-6.8311,-6.8531,-6.8935,-6.9412,-7.0201,-7.1178,0.0,-7.1149,-7.1484,-7.1314,-7.1223,-7.1199,-7.1314,-7.1257,-7.0976,-7.0575,-7.0842,-7.1431,-7.1042,-7.1175,-7.1304,-7.0129,-6.9778,-6.9528,-6.7856,-6.7366,-6.7366,-6.6938,-6.6812,-6.6812,-6.6812,-6.6812,-6.6812,-6.6812,-6.6812,-6.677,-6.6677,-6.655,-6.6464,-6.6302,-6.6182,-6.6081,-6.5993,-6.5917,-6.5783,-6.5657,-6.5665,-6.5766,-6.6104,-6.585,-6.5696,-6.5696,-6.5488,-6.5093,-6.4353,-6.4236,-6.3672,-6.2414,-6.165,-6.121,-6.1119,-6.1119,-6.1119,-6.1119,-6.1119,-6.1119,-6.1119,-6.1119,-6.1119,-6.1119,-6.1119,-6.1119,-4.0688,-4.1911,-4.3118,0.0,0.0,0.0,-4.5553,0.0,0.0,0.0,0.0,0.0,0.0,-4.7829,-5.1389,-5.6528,-5.8854,-6.1117,-6.4237,-6.6402,-6.7981,-6.8788,-6.9596,-6.9926,-6.9522,-6.9486,-6.9486,-6.9486,-6.9853,-7.0,-6.9816,-6.9045,-6.8898,-6.9522,-6.8311,-6.7981,-6.8605,-6.8017,-6.7687,-6.7714,-6.8311,-6.8825,-6.9229,-7.0257,-7.0979,-7.1385,-7.161,-7.1672,-7.1514,-7.0896,-7.0785,-7.0974,-7.0517,-7.0257,-7.0025,-6.9456,-7.006,-7.1139,-7.0611,-7.0778,-7.1009,-6.9672,-6.9492,-6.9456,-6.7407,-6.7236,-6.761,-6.6946,-6.6812,-6.6812,-6.6812,-6.6812,-6.6812,-6.6812,-6.6812,-6.6728,-6.655,-6.6464,-6.6302,-6.6052,-6.5965,-6.6009,-6.6292,-6.6335,-6.6378,-6.6464,-6.6635,-6.6686,-6.6592,-6.6171,-6.5883,-6.5883,-6.5632,-6.5261,-6.4606,-6.461,-6.4085,-6.2785,-6.2013,-6.1616,-6.1616,-6.1616,-6.1616,-6.1616,-6.1616,-6.1616,-6.1616,-6.1616,-6.1616,-6.1616,-6.1616,-6.1616,-4.3133,-4.3715,-4.3763,-4.4295,0.0,0.0,-4.6589,0.0,0.0,0.0,0.0,0.0,0.0,-5.1279,-5.506,-5.8487,-6.0982,-6.3429,-6.5962,-6.71,-6.7981,-6.8788,-6.9596,-7.0367,-7.1036,-7.1109,-7.1109,-7.1109,-7.0477,-6.9779,-6.9045,-6.8201,-6.7797,-6.7898,-6.7787,-6.7724,-6.7797,-6.7724,-6.7687,-6.7687,-6.7787,-6.8568,-7.0,-6.9376,-7.0209,-7.2153,-7.1245,-7.0894,-7.0864,-7.0791,-7.0299,-6.9565,-6.9653,-6.9519,-6.9275,-6.9202,-6.9743,-7.0474,-7.0406,-7.0406,-7.0337,-6.9492,-6.8752,-6.8014,-6.7071,-6.6854,-6.6896,-6.6812,-6.6812,-6.6812,-6.6812,-6.6812,-6.6812,-6.6812,-6.6812,-6.6728,-6.655,-6.6302,-6.6052,-6.5867,-6.5603,-6.5559,-6.578,-6.5824,-6.6032,-6.6421,-6.6507,-6.6592,-6.6728,-6.6567,-6.644,-6.644,-6.6019,-6.5636,-6.5349,-6.4774,-6.4343,-6.4167,-6.3504,-6.3107,-6.3107,-6.3107,-6.3107,-6.3107,-6.3107,-6.3107,-6.3107,-6.3107,-6.3107,-6.3107,-6.3107,-6.3107,-4.0723,-4.2136,-4.3463,-4.3982,0.0,0.0,0.0,0.0,0.0,-5.2291,-5.2821,0.0,0.0,-5.4913,-5.7519,-6.0236,-6.2768,-6.5044,-6.6953,-6.7944,-6.8385,-6.8164,-6.8862,-6.9265,-6.9082,-6.9522,-6.9816,-6.9816,-7.0,-6.9963,-6.9669,-6.8862,-6.8458,-6.8458,-6.7944,-6.7687,-6.7687,-6.7687,-6.7687,-6.7714,-6.8201,-6.9045,-7.0073,-6.9779,-7.0556,-7.2041,-7.1179,-7.0701,-7.0556,-7.0641,-7.0107,-6.9229,-6.8786,-6.8847,-6.9054,-6.8059,-6.8865,-7.0337,-6.9814,-7.0267,-7.0976,-7.0164,-6.9419,-6.86,-6.7776,-6.7195,-6.6812,-6.6812,-6.6812,-6.6812,-6.6812,-6.6812,-6.677,-6.6643,-6.6635,-6.6507,-6.6129,-6.5999,-6.5867,-6.5603,-6.547,-6.5514,-6.5736,-6.578,-6.5867,-6.6032,-6.6172,-6.6215,-6.6172,-6.6215,-6.6259,-6.6259,-6.5999,-6.5692,-6.5425,-6.5194,-6.5028,-6.4995,-6.3902,-6.3315,-6.3315,-6.3315,-6.3315,-6.3315,-6.3315,-6.3315,-6.3315,-6.3315,-6.3315,-6.3315,-6.3315,-6.3315,-3.9497,-4.0952,-4.2795,0.0,0.0,0.0,0.0,0.0,0.0,0.0,-5.6895,-5.6345,-5.6345,-5.7262,-5.8804,-6.119,-6.3686,-6.5852,-6.7467,-6.8385,-6.8715,-6.8128,-6.8788,-6.9045,-6.8495,-6.8972,-6.9302,-6.9302,-6.9559,-6.9706,-6.9706,-6.8972,-6.8531,-6.8531,-6.7981,-6.7687,-6.7687,-6.7687,-6.7687,-6.7714,-6.8531,-6.9311,-7.0054,-7.0054,-7.0726,-7.1927,-7.135,-7.0835,-7.0372,-7.0015,-6.92,-6.8117,-6.7757,-6.8132,-6.8676,-6.7284,-6.8331,-7.0268,-6.9492,-7.006,-7.1074,-7.0541,-6.9672,-6.8714,-6.8172,-6.7448,-6.688,-6.7083,-6.7151,-6.7218,-6.7455,-6.7184,-6.6728,-6.655,-6.6507,-6.6378,-6.5867,-6.578,-6.5736,-6.547,-6.5425,-6.547,-6.5647,-6.5736,-6.588,-6.6113,-6.6132,-6.6153,-6.6212,-6.6089,-6.5965,-6.5878,-6.578,-6.5603,-6.5425,-6.5425,-6.5425,-6.5425,-6.4498,-6.3935,-6.3935,-6.3935,-6.3935,-6.3935,-6.3935,-6.3935,-6.3935,-6.3935,-6.3935,-6.3935,-6.3935,-6.4011,-4.0304,-4.068,0.0,0.0,0.0,0.0,0.0,0.0,0.0,0.0,-5.9722,-5.8033,-5.8033,-5.8033,-5.8841,-6.1227,-6.3686,-6.5888,-6.7467,-6.8385,-6.8898,-6.8898,-6.9596,-7.0073,-7.0073,-7.0073,-7.0073,-7.0073,-6.9339,-6.8898,-6.8898,-6.8128,-6.7687,-6.7687,-6.7687,-6.7687,-6.7687,-6.7687,-6.7687,-6.7714,-6.8495,-6.9219,-6.9884,-6.9884,-7.0588,-7.178,-7.178,-7.1252,-7.0268,-6.8862,-6.7338,-6.5956,-6.6541,-6.7319,-6.7896,-6.7112,-6.8331,-7.0268,-6.9492,-6.9743,-7.0406,-7.0406,-6.931,-6.8014,-6.8014,-6.7448,-6.6981,-6.7692,-6.7895,-6.8098,-6.8876,-6.7963,-6.6762,-6.6583,-6.6541,-6.6412,-6.5901,-6.5813,-6.5725,-6.547,-6.5425,-6.5425,-6.5425,-6.5636,-6.6046,-6.6812,-6.6422,-6.6397,-6.7133,-6.6378,-6.5725,-6.5425,-6.5425,-6.5425,-6.5425,-6.5425,-6.5425,-6.5425,-6.5425,-6.5425,-6.5425,-6.5425,-6.5425,-6.5425,-6.5425,-6.5425,-6.5425,-6.5425,-6.5425,-6.5425,-6.5425,-6.5559,-3.8814,-4.0509,0.0,0.0,0.0,0.0,0.0,0.0,0.0,0.0,-6.3172,-6.1924,-6.075,-6.1484,-6.2328,-6.2438,-6.453,-6.6512,-6.754,-6.7907,-6.8054,-6.8054,-6.8274,-6.8385,-6.8385,-6.8385,-6.8385,-6.8385,-6.8164,-6.8054,-6.8054,-6.7834,-6.7687,-6.7687,-6.7687,-6.7687,-6.7687,-6.7687,-6.7687,-6.7687,-6.7944,-6.8467,-6.9183,-6.9685,-7.0318,-7.1059,-7.0393,-7.0235,-7.0273,-6.8742,-6.7194,-6.5838,-6.6534,-6.698,-6.7195,-6.7529,-6.8447,-6.96,-6.992,-7.0541,-7.1171,-7.1171,-7.0129,-6.8865,-6.8865,-6.824,-6.7624,-6.7827,-6.8301,-6.8765,-6.8793,-6.8479,-6.8099,-6.7835,-6.7658,-6.7435,-6.7119,-6.7074,-6.7119,-6.7222,-6.7222,-6.7222,-6.7222,-6.7267,-6.7367,-6.7418,-6.7252,-6.7231,-6.743,-6.7252,-6.6829,-6.6254,-6.6187,-6.5989,-6.5459,-6.5425,-6.5425,-6.5425,-6.5425,-6.5425,-6.5425,-6.5425,-6.5425,-6.5425,-6.5425,-6.5425,-6.5425,-6.5425,-6.5425,-6.5425,-6.5425,-6.5559,-4.01,0.0,0.0,0.0,0.0,0.0,0.0,0.0,0.0,0.0,-6.5081,-6.387,-6.3209,-6.3356,-6.3649,-6.3796,-6.5338,-6.6769,-6.7577,-6.7687,-6.7687,-6.7687,-6.7687,-6.7687,-6.7687,-6.7687,-6.7687,-6.7687,-6.7687,-6.7687,-6.7687,-6.7687,-6.7687,-6.7687,-6.7687,-6.7687,-6.7687,-6.7687,-6.7687,-6.7687,-6.7687,-6.7917,-6.8376,-6.9344,-7.0121,-7.0575,-6.97,-6.9357,-6.9397,-6.8078,-6.6831,-6.5739,-6.6513,-6.7195,-6.7776,-6.7935,-6.8903,-7.0129,-7.0337,-7.0711,-7.1042,-7.1042,-6.999,-6.8714,-6.8714,-6.8332,-6.7963,-6.8301,-6.8823,-6.941,-6.9547,-6.9469,-6.9121,-6.8338,-6.8102,-6.792,-6.7691,-6.7566,-6.7658,-6.7978,-6.8023,-6.8023,-6.8159,-6.8159,-6.8169,-6.8194,-6.8089,-6.7943,-6.7632,-6.7566,-6.74,-6.697,-6.6904,-6.6784,-6.632,-6.6287,-6.6287,-6.6287,-6.6287,-6.6287,-6.6287,-6.5724,-6.5425,-6.5425,-6.5425,-6.5425,-6.5425,-6.5425,-6.5425,-6.5425,-6.5425,-6.5603,0.0,0.0,0.0,0.0,0.0,0.0,0.0,-6.4787,-6.5778,-6.7357,0.0,-6.464,-6.5301,-6.4237,-6.3723,-6.5191,-6.6072,-6.6843,-6.7577,-6.7687,-6.7687,-6.7687,-6.7687,-6.7687,-6.7687,-6.7687,-6.7687,-6.7687,-6.7687,-6.7687,-6.7687,-6.7687,-6.7687,-6.7687,-6.7687,-6.7687,-6.7687,-6.7687,-6.7687,-6.7687,-6.7687,-6.7606,-6.7515,-6.8945,-6.9914,-7.0341,-6.9699,-6.8854,-6.79,-6.7225,-6.6439,-6.5764,-6.644,-6.7628,-6.8905,-6.8293,-6.9384,-7.1107,-7.0575,-7.0337,-7.0303,-7.0303,-6.9237,-6.7975,-6.8083,-6.8063,-6.8166,-6.8934,-6.9545,-7.0041,-7.0702,-7.0502,-6.9843,-6.8544,-6.8211,-6.812,-6.7857,-6.7857,-6.7949,-6.8223,-6.8269,-6.8359,-6.8618,-6.8585,-6.8729,-6.9123,-6.8945,-6.8539,-6.791,-6.7764,-6.7731,-6.7744,-6.7711,-6.7632,-6.7599,-6.7566,-6.7566,-6.7566,-6.7566,-6.7566,-6.7566,-6.6254,-6.5525,-6.5525,-6.5459,-6.5425,-6.5425,-6.5425,-6.5425,-6.5425,-6.5425,-6.5658,0.0,0.0,0.0,0.0,0.0,0.0,0.0,-6.5191,-6.5778,-6.7357,-6.7283,-6.6769,-6.6329,-6.6439,-6.6549,-6.6292,-6.6916,-6.7504,-6.7677,-6.7687,-6.7687,-6.7687,-6.7687,-6.7687,-6.7687,-6.7687,-6.7687,-6.7687,-6.7687,-6.7687,-6.7687,-6.7687,-6.7687,-6.7687,-6.7687,-6.7687,-6.7687,-6.7687,-6.7687,-6.7687,-6.7579,-6.7442,-6.7339,-6.8888,-6.9914,-7.0408,-7.083,-6.9542,-6.7199,-6.7651,-6.6992,-6.5696,-6.5865,-6.652,-6.7448,-6.8562,-6.8865,-6.894,-7.0025,-6.999,-6.9456,-6.9456,-6.879,-6.8118,-6.8664,-6.8884,-6.8934,-6.9501,-7.0153,-7.0623,-7.0423,-7.027,-7.011,-6.981,-6.971,-6.971,-6.9663,-6.9756,-6.9954,-7.0217,-7.0309,-7.0309,-7.0354,-7.0217,-6.9975,-6.9675,-6.9614,-6.95,-6.9334,-6.9334,-6.9103,-6.8539,-6.844,-6.8241,-6.7632,-6.7566,-6.7566,-6.7566,-6.7566,-6.7566,-6.7566,-6.6751,-6.6287,-6.6287,-6.5724,-6.5425,-6.5425,-6.5425,-6.5425,-6.5425,-6.5603,-6.5867,0.0,0.0,0.0,0.0,0.0,0.0,0.0,-6.5007,-6.5558,-6.6366,-6.7136,-6.7577,-6.7136,-6.7393,-6.754,-6.7136,-6.743,-6.7687,-6.7687,-6.7687,-6.7687,-6.7687,-6.7687,-6.7687,-6.7687,-6.7687,-6.7687,-6.7687,-6.7687,-6.7687,-6.7687,-6.7687,-6.7687,-6.7687,-6.7687,-6.7687,-6.7687,-6.7687,-6.7687,-6.7687,-6.7552,-6.7578,-6.7716,-6.8866,-6.9763,-7.0377,-7.0419,-6.9281,-6.7444,-6.7125,-6.6273,-6.523,-6.6016,-6.6759,-6.7575,-6.8763,-6.92,-6.92,-6.9672,-6.931,-6.8638,-6.8638,-6.8093,-6.7544,-6.8295,-6.8821,-6.9204,-6.9826,-7.0434,-7.0825,-7.0595,-7.0456,-7.0363,-7.0363,-7.027,-7.0223,-7.0316,-7.0456,-7.0561,-7.087,-7.0916,-7.0916,-7.1086,-7.0779,-7.0376,-7.0035,-6.9893,-6.9798,-6.9798,-6.9798,-6.9633,-6.9268,-6.9235,-6.9069,-6.8705,-6.8672,-6.8672,-6.8672,-6.8672,-6.8672,-6.8672,-6.7943,-6.7413,-6.7003,-6.6684,-6.6485,-6.6485,-6.6485,-6.6485,-6.6485,-6.6621,-6.6801,0.0,0.0,0.0,0.0,0.0,0.0,0.0,0.0,-6.5154,-6.5264,-6.6366,-6.7283,-6.7283,-6.7283,-6.7283,-6.7283,-6.7283,-6.7283,-6.7283,-6.7283,-6.7283,-6.7283,-6.7283,-6.7283,-6.7283,-6.7393,-6.7467,-6.7467,-6.7614,-6.7687,-6.7687,-6.7687,-6.7687,-6.7687,-6.7687,-6.7687,-6.7687,-6.7687,-6.7687,-6.7687,-6.7524,-6.764,-6.7978,-6.8657,-6.9502,-7.0346,-6.9705,-6.8889,-6.7969,-6.6382,-6.5284,-6.4729,-6.5994,-6.6969,-6.778,-6.8698,-6.9347,-6.9707,-6.92,-6.8447,-6.7776,-6.7776,-6.7325,-6.6981,-6.7827,-6.8571,-6.9282,-7.0083,-7.058,-7.087,-7.0825,-7.0687,-7.0515,-7.0561,-7.0456,-7.0363,-7.0515,-7.0608,-7.0699,-7.0916,-7.0961,-7.1007,-7.1131,-7.0779,-7.0423,-7.0176,-6.9941,-6.9798,-6.9798,-6.9798,-6.9798,-6.9798,-6.9798,-6.9798,-6.9798,-6.9798,-6.9798,-6.9798,-6.9798,-6.9798,-6.9798,-6.9202,-6.8606,-6.8009,-6.7698,-6.7566,-6.7566,-6.7566,-6.7566,-6.7566,-6.7645,-6.7783,0.0,0.0,0.0,0.0,0.0,0.0,0.0,0.0,-6.4457,0.0,-6.5485,-6.5632,-6.5632,-6.5632,-6.5632,-6.5632,-6.5632,-6.5632,-6.5632,-6.5632,-6.5632,-6.5632,-6.5632,-6.5632,-6.5632,-6.6256,-6.6659,-6.6659,-6.7283,-6.7687,-6.7687,-6.7687,-6.7687,-6.7687,-6.7687,-6.7687,-6.7687,-6.7687,-6.7687,-6.7687,-6.7378,-6.7141,-6.6997,-6.78,-6.8959,-7.0377,-7.0286,-6.9424,-6.797,-6.6453,-6.5294,-6.4613,-6.4803,-6.5332,-6.618,-6.762,-6.7776,-6.7366,-6.7935,-6.765,-6.698,-6.698,-6.6896,-6.7083,-6.8504,-6.9011,-6.934,-7.0468,-7.0849,-7.087,-7.0608,-7.0515,-7.0561,-7.0779,-7.0825,-7.0825,-7.0825,-7.1007,-7.1222,-7.1222,-7.1267,-7.1098,-7.0654,-7.0561,-7.033,-6.9941,-6.9846,-6.9798,-6.9798,-6.9798,-6.9798,-6.9798,-6.9798,-6.9798,-6.9798,-6.9798,-6.9798,-6.9798,-6.9798,-6.9798,-6.9798,-6.9699,-6.9599,-6.95,-6.8274,-6.7566,-6.7566,-6.7566,-6.7566,-6.7645,-6.7829,-6.7966,0.0,0.0,0.0,0.0,0.0,0.0,0.0,0.0,-6.3466,-6.3833,-6.3881,-6.42,-6.5154,-6.5301,-6.5301,-6.5301,-6.5301,-6.5301,-6.5301,-6.5301,-6.5301,-6.5301,-6.5301,-6.5301,-6.5301,-6.5632,-6.5852,-6.5852,-6.6549,-6.7026,-6.7026,-6.7467,-6.7687,-6.7687,-6.7687,-6.7687,-6.7687,-6.7687,-6.766,-6.7579,-6.7442,-6.7219,-6.6939,-6.7738,-6.8687,-6.9725,-6.9237,-6.8716,-6.7973,-6.6403,-6.5027,-6.4145,-6.588,-6.6248,-6.5999,-6.7919,-6.8137,-6.7448,-6.7366,-6.7112,-6.6812,-6.6812,-6.7083,-6.7624,-6.8774,-6.9383,-6.9925,-7.0873,-7.1098,-7.1131,-7.0961,-7.0961,-7.0961,-7.1131,-7.1098,-7.1098,-7.1098,-7.1222,-7.1312,-7.1312,-7.1312,-7.1176,-7.0779,-7.0608,-7.0376,-7.0082,-6.9893,-6.9798,-6.9798,-6.9798,-6.9798,-6.9798,-6.9798,-6.9798,-6.9798,-6.9798,-6.9798,-6.9798,-6.9798,-6.9798,-6.9798,-6.9798,-6.9798,-6.9798,-6.9169,-6.8837,-6.8837,-6.8837,-6.8837,-6.8837,-6.8931,-6.8978,0.0,0.0,0.0,0.0,0.0,0.0,0.0,0.0,-6.2548,0.0,-6.278,-6.3184,-6.4457,-6.4677,-6.4677,-6.4677,-6.4677,-6.4677,-6.4677,-6.4677,-6.4677,-6.4677,-6.4677,-6.4677,-6.4677,-6.4861,-6.5007,-6.5007,-6.5742,-6.6219,-6.6219,-6.6769,-6.71,-6.71,-6.71,-6.71,-6.71,-6.7283,-6.745,-6.747,-6.747,-6.7331,-6.7019,-6.7637,-6.8384,-6.9151,-6.8567,-6.822,-6.7986,-6.6596,-6.5132,-6.4021,-6.6532,-6.6808,-6.6028,-6.7885,-6.8215,-6.761,-6.6988,-6.6812,-6.6846,-6.7015,-6.7455,-6.8098,-6.9079,-6.9755,-7.0331,-7.1109,-7.1312,-7.1312,-7.1312,-7.1312,-7.1312,-7.1312,-7.1312,-7.1312,-7.1312,-7.1312,-7.1312,-7.1312,-7.1312,-7.1222,-7.087,-7.0608,-7.0376,-7.0129,-6.9941,-6.9798,-6.9798,-6.9798,-6.9798,-6.9798,-6.9798,-6.9798,-6.9798,-6.9798,-6.9798,-6.9798,-6.9798,-6.9798,-6.9798,-6.9798,-6.9798,-6.9798,-6.9798,-6.9798,-6.9798,-6.9798,-6.9798,-6.9798,-6.9798,-6.9798,0.0,0.0,0.0,0.0,0.0,0.0,0.0,0.0,-6.1887,-6.2658,-6.278,-6.2817,-6.289,-6.2927,-6.2927,-6.2927,-6.2927,-6.2927,-6.2927,-6.2927,-6.2927,-6.2927,-6.2927,-6.2927,-6.2927,-6.3686,-6.4163,-6.4163,-6.4897,-6.5375,-6.5375,-6.5411,-6.5411,-6.5411,-6.5411,-6.5411,-6.5411,-6.6182,-6.6873,-6.747,-6.747,-6.7331,-6.7019,-6.7055,-6.784,-6.9182,-6.9138,-6.8732,-6.8052,-6.72,-6.5924,-6.4634,-6.5503,-6.5759,-6.5812,-6.6633,-6.6896,-6.6854,-6.6812,-6.6812,-6.6914,-6.7624,-6.7861,-6.8166,-6.9688,-7.0161,-7.0331,-7.1109,-7.1312,-7.1312,-7.1312,-7.1312,-7.1312,-7.1312,-7.1312,-7.1312,-7.1312,-7.1312,-7.1312,-7.1312,-7.1312,-7.1131,-7.0608,-7.0515,-7.033,-6.9893,-6.9798,-6.9798,-6.9798,-6.9798,-6.9798,-6.9798,-6.9798,-6.9798,-6.9798,-6.9798,-6.9798,-6.9798,-6.9798,-6.9798,-6.9798,-6.9798,-6.9798,-6.9798,-6.9798,-6.9798,-6.9798,-6.9798,-6.9798,-6.9798,-6.9798,-6.9798,0.0,0.0,0.0,0.0,0.0,0.0,0.0,-5.8364,-6.0309,-6.108,-6.1667,-6.2181,-6.267,-6.278,-6.278,-6.278,-6.278,-6.278,-6.278,-6.278,-6.278,-6.278,-6.278,-6.278,-6.278,-6.3099,-6.3282,-6.3282,-6.4053,-6.453,-6.453,-6.5007,-6.5301,-6.5301,-6.5301,-6.5558,-6.6072,-6.6366,-6.689,-6.7633,-6.7524,-6.7359,-6.7126,-6.704,-6.7803,-6.9176,-6.8641,-6.8584,-6.8665,-6.6877,-6.5793,-6.5405,-6.6708,-6.6566,-6.5846,-6.7093,-6.7236,-6.6812,-6.6812,-6.7117,-6.7608,-6.8473,-6.9399,-7.0374,-7.1462,-7.1774,-7.1713,-7.1987,-7.1688,-7.1312,-7.1312,-7.1312,-7.1312,-7.1312,-7.1312,-7.1312,-7.1312,-7.1312,-7.1312,-7.1312,-7.1312,-7.1222,-7.1052,-7.0733,-7.0289,-6.9682,-6.9736,-6.9633,-6.9136,-6.95,-6.9798,-6.9798,-6.9798,-6.9798,-6.9798,-6.9798,-6.9798,-6.9798,-6.9798,-6.9798,-6.9798,-6.9798,-6.9798,-6.9798,-6.9798,-6.9893,-7.0035,-6.9893,-6.9893,-7.0035,-6.9893,-6.9798,-3.3316,0.0,0.0,0.0,0.0,0.0,0.0,0.0,-5.807,-5.9685,-6.0639,-6.1447,-6.2254,-6.2401,-6.2511,-6.2768,-6.278,-6.278,-6.278,-6.278,-6.278,-6.278,-6.278,-6.278,-6.278,-6.278,-6.278,-6.278,-6.3356,-6.3649,-6.3649,-6.4163,-6.4457,-6.4457,-6.4457,-6.5007,-6.6109,-6.6109,-6.6623,-6.7687,-6.7552,-6.7387,-6.721,-6.704,-6.7803,-6.914,-6.7806,-6.7981,-6.9043,-6.6963,-6.6109,-6.6145,-6.6918,-6.6743,-6.6185,-6.7236,-6.7277,-6.6846,-6.7083,-6.7667,-6.852,-6.9617,-7.0811,-7.2001,-7.2801,-7.2817,-7.249,-7.249,-7.1917,-7.1312,-7.1312,-7.1312,-7.1379,-7.1616,-7.1684,-7.1751,-7.1988,-7.165,-7.1379,-7.1616,-7.1684,-7.1706,-7.1886,-7.1564,-7.1038,-7.0556,-7.0515,-7.0361,-6.9864,-7.0229,-7.0428,-7.0196,-7.0163,-7.0063,-6.9798,-6.9798,-6.9898,-7.0163,-7.0163,-7.0262,-7.0527,-7.0527,-7.0428,-7.0163,-7.0163,-7.0206,-7.0176,-6.9941,-6.9893,-7.0035,-6.9893,-6.9798,0.0,0.0,0.0,0.0,0.0,0.0,-5.3188,0.0,-5.506,-5.834,-5.9648,-6.0456,-6.1374,-6.1557,-6.1814,-6.2622,-6.2743,-6.278,-6.278,-6.278,-6.278,-6.278,-6.278,-6.278,-6.278,-6.278,-6.278,-6.278,-6.278,-6.278,-6.278,-6.278,-6.278,-6.278,-6.278,-6.3587,-6.5301,-6.5301,-6.6109,-6.7687,-6.7552,-6.7387,-6.721,-6.704,-6.7767,-6.9068,-6.6724,-6.7034,-6.9037,-6.7518,-6.6835,-6.674,-6.6043,-6.6194,-6.6812,-6.6812,-6.6854,-6.6956,-6.7701,-6.8534,-6.9514,-7.1,-7.2086,-7.2929,-7.3667,-7.3241,-7.2533,-7.2533,-7.196,-7.1312,-7.1345,-7.1379,-7.1548,-7.2259,-7.2428,-7.2631,-7.3341,-7.2394,-7.1582,-7.2293,-7.2428,-7.2573,-7.305,-7.2868,-7.2596,-7.2389,-7.2147,-7.1985,-7.1985,-7.1985,-7.1686,-7.1024,-7.0924,-7.0626,-6.9931,-6.9864,-7.0163,-7.0891,-7.0924,-7.1256,-7.1985,-7.2018,-7.1653,-7.0958,-7.0924,-7.0737,-7.0243,-6.9974,-6.9798,-6.9798,-6.9798,-6.9798,-3.1604,0.0,0.0,0.0,0.0,0.0,0.0,0.0,-4.882,-5.3827,-5.5038,-5.6345,-6.0052,-6.075,-6.0786,-6.1043,-6.201,-6.278,-6.278,-6.278,-6.278,-6.278,-6.278,-6.278,-6.278,-6.278,-6.278,0.0,-6.278,-6.278,-6.278,-6.278,-6.278,-6.278,-6.278,-6.3587,-6.5301,-6.5301,-6.6056,-6.7552,-6.7534,-6.7331,-6.704,-6.7048,-6.7477,-6.8271,-6.7041,-6.7216,-6.8211,-6.6662,-6.6339,-6.6847,-6.7235,-6.7131,-6.6896,-6.7448,-6.769,-6.7793,-6.8554,-6.9703,-7.1112,-7.2705,-7.3749,-7.4614,-7.537,-7.4567,-7.3442,-7.3442,-7.2398,-7.1447,-7.1954,-7.2496,-7.2935,-7.3138,-7.3172,-7.324,-7.3443,-7.3034,-7.2705,-7.3092,-7.3172,-7.3147,-7.3117,-7.2868,-7.2462,-7.1723,-7.1416,-7.1189,-7.1189,-7.1189,-7.1322,-7.1653,-7.1686,-7.162,-7.1421,-7.1388,-7.1488,-7.1686,-7.1686,-7.1786,-7.1985,-7.2018,-7.1918,-7.1686,-7.1686,-7.1636,-7.1485,-7.0376,-6.9893,-7.0082,-6.9893,-6.9798,-3.3476,-3.4578,-3.6303,-3.634,0.0,0.0,-4.2139,-4.3424,-4.5333,0.0,-5.2491,-5.3885,-5.7703,-5.84,-5.8731,-5.9758,-6.0689,-6.1533,-6.2218,-6.2291,-6.2438,-6.2768,-6.278,-6.278,-6.278,-6.278,-6.278,-6.278,-6.278,-6.278,-6.278,-6.278,-6.278,-6.278,-6.278,-6.3587,-6.5301,-6.5223,-6.594,-6.747,-6.7359,-6.719,-6.7019,-6.6961,-6.7309,-6.7981,-6.7148,-6.7257,-6.7951,-6.7045,-6.691,-6.7339,-6.7477,-6.7649,-6.7816,-6.7935,-6.8423,-6.9076,-6.9485,-7.0919,-7.2717,-7.401,-7.4941,-7.562,-7.576,-7.4863,-7.3791,-7.3781,-7.3,-7.2326,-7.2732,-7.3172,-7.3578,-7.3883,-7.395,-7.4052,-7.4356,-7.4236,-7.3993,-7.3797,-7.3716,-7.3676,-7.3869,-7.3663,-7.3335,-7.2789,-7.2479,-7.225,-7.225,-7.225,-7.2316,-7.2448,-7.2481,-7.2349,-7.2051,-7.2018,-7.2117,-7.2448,-7.2481,-7.2614,-7.2912,-7.2912,-7.278,-7.2481,-7.2481,-7.2316,-7.2018,-7.0825,-7.0192,-7.0035,-6.9893,-6.9798,-3.5848,-3.6105,-3.7257,-3.9056,-3.711,0.0,-4.3167,-4.3314,-4.3534,0.0,-5.0435,-5.172,-5.4289,-5.4876,-5.5611,-5.7643,-5.8377,-5.9318,-6.119,-6.1484,-6.1741,-6.2475,-6.2523,-6.2523,-6.2523,-6.2597,-6.2695,-6.2695,-6.2743,-6.278,-6.278,-6.278,-6.278,-6.278,-6.278,-6.3587,-6.5238,-6.5071,-6.5796,-6.7442,-6.7162,-6.6983,-6.699,-6.6845,-6.7184,-6.7836,-6.7112,-6.7221,-6.7873,-6.7981,-6.7986,-6.7952,-6.7479,-6.8081,-6.9091,-6.8486,-6.9241,-7.0539,-7.058,-7.2088,-7.4154,-7.4977,-7.5725,-7.6174,-7.5478,-7.4636,-7.3882,-7.3729,-7.3683,-7.3612,-7.3612,-7.368,-7.3916,-7.4593,-7.4728,-7.4897,-7.5574,-7.547,-7.5075,-7.4402,-7.4109,-7.4165,-7.4868,-7.4771,-7.4606,-7.4556,-7.4256,-7.4122,-7.4221,-7.4155,-7.384,-7.3276,-7.3243,-7.2978,-7.2316,-7.225,-7.2515,-7.3177,-7.3243,-7.3508,-7.4188,-7.4221,-7.3873,-7.3243,-7.3243,-7.2879,-7.2117,-7.1388,-7.0693,-7.003,-7.003,-7.003,-3.8417,-3.904,-3.9627,-3.7514,-3.8836,0.0,-3.7646,-3.8799,-4.1038,0.0,-4.4085,-4.5333,-4.904,-5.0288,-5.0712,-5.0472,-5.3188,-5.6565,-6.0126,-6.0639,-6.0676,-6.086,-6.086,-6.086,-6.086,-6.1447,-6.1814,-6.1814,-6.2438,-6.278,-6.278,-6.278,-6.278,-6.278,-6.278,-6.35,-6.5034,-6.5018,-6.5715,-6.7105,-6.7048,-6.6961,-6.6815,-6.6786,-6.6895,-6.704,-6.6858,-6.6895,-6.7076,-6.7728,-6.7986,-6.8123,-6.9293,-6.9517,-6.9238,-6.9743,-7.0558,-7.1446,-7.2085,-7.3439,-7.5024,-7.5819,-7.6174,-7.6275,-7.6106,-7.5401,-7.4525,-7.3772,-7.3954,-7.439,-7.439,-7.483,-7.5303,-7.5439,-7.5473,-7.5506,-7.5676,-7.5373,-7.5033,-7.4865,-7.4783,-7.4752,-7.4722,-7.4622,-7.4556,-7.4322,-7.3724,-7.3508,-7.4105,-7.3674,-7.3475,-7.3906,-7.3972,-7.3906,-7.374,-7.374,-7.3807,-7.3972,-7.3972,-7.4038,-7.4221,-7.4221,-7.4155,-7.3972,-7.3972,-7.3608,-7.2879,-7.215,-7.172,-7.1587,-7.1587,-7.1587,-4.1038,-4.0781,-4.0912,-4.0084,-3.99,0.0,0.0,-3.8065,-3.8909,-4.1735,-4.1662,-4.2213,-4.5847,-4.6507,-4.6948,-4.8122,-5.0729,-5.3445,-5.5868,-5.829,-5.9942,-6.0346,-6.0419,-6.0419,-6.0419,-6.075,-6.1153,-6.1557,-6.1961,-6.2401,-6.278,-6.278,-6.278,-6.278,-6.273,-6.3511,-6.5124,-6.4911,-6.5551,-6.7097,-6.6961,-6.6874,-6.6786,-6.6786,-6.6786,-6.6786,-6.6786,-6.6786,-6.6865,-6.7688,-6.8215,-6.871,-6.9922,-7.0357,-7.0336,-7.0371,-7.1396,-7.2744,-7.2795,-7.4073,-7.5768,-7.6167,-7.6275,-7.6208,-7.5829,-7.5304,-7.4737,-7.4196,-7.4593,-7.5168,-7.5168,-7.5439,-7.5709,-7.5709,-7.5709,-7.5709,-7.5709,-7.5325,-7.5018,-7.5018,-7.4771,-7.4573,-7.4423,-7.4372,-7.4322,-7.4221,-7.3873,-7.3773,-7.4155,-7.3873,-7.3773,-7.4188,-7.4221,-7.4221,-7.4221,-7.4221,-7.4221,-7.4221,-7.4221,-7.4221,-7.4221,-7.4221,-7.4221,-7.4221,-7.4221,-7.4005,-7.3641,-7.3276,-7.2713,-7.2018,-7.2018,-7.2018,-4.4048,-4.324,-4.3057,-4.3473,-4.1724,-4.001,0.0,0.0,0.0,-4.0877,-4.0289,0.0,0.0,0.0,0.0,-4.581,0.0,0.0,0.0,-5.4252,0.0,-5.8657,-5.9208,-5.9465,-5.9465,-5.9355,-5.9832,-6.1263,-6.0933,-6.1227,-6.2511,-6.2732,-6.278,-6.278,-6.2705,-6.3485,-6.5212,-6.484,-6.5504,-6.7154,-6.6932,-6.6786,-6.6786,-6.6786,-6.6786,-6.6786,-6.6668,-6.668,-6.6873,-6.7511,-6.8222,-6.9057,-7.0044,-7.0857,-7.1467,-7.1024,-7.2061,-7.3624,-7.3187,-7.4224,-7.5829,-7.5829,-7.6041,-7.6116,-7.529,-7.5118,-7.5223,-7.492,-7.5236,-7.5709,-7.5709,-7.5709,-7.5709,-7.5709,-7.5709,-7.5709,-7.5662,-7.5325,-7.5018,-7.4919,-7.4573,-7.4272,-7.4221,-7.4221,-7.4221,-7.4221,-7.4221,-7.4221,-7.4221,-7.4221,-7.4221,-7.4221,-7.4221,-7.4221,-7.4221,-7.4221,-7.4221,-7.4221,-7.4221,-7.4221,-7.4221,-7.4221,-7.4221,-7.4221,-7.4221,-7.4221,-7.4221,-7.4221,-7.3575,-7.2415,-7.2415,-7.2415,-4.7902,-4.8636,-4.8767,-4.4831,-4.6177,-4.6763,-4.0122,0.0,-4.0653,-3.8771,0.0,-3.7262,-3.8162,0.0,0.0,0.0,0.0,0.0,-4.4525,-4.7388,-5.0398,-5.2674,-5.484,-5.6147,-5.6147,-5.55,-5.6602,-6.0272,-5.8547,-5.8621,-6.1594,-6.2401,-6.278,-6.278,-6.278,-6.35,-6.5008,-6.4858,-6.5523,-6.7011,-6.6874,-6.6786,-6.6786,-6.6786,-6.6786,-6.6757,-6.611,-6.6185,-6.6803,-6.6951,-6.7482,-6.8293,-6.9807,-7.0839,-7.1603,-7.2195,-7.2595,-7.294,-7.3583,-7.3895,-7.4072,-7.4072,-7.5064,-7.6111,-7.5164,-7.5805,-7.6768,-7.582,-7.5642,-7.5709,-7.5709,-7.5709,-7.5709,-7.5709,-7.5709,-7.5662,-7.5422,-7.5325,-7.5131,-7.4722,-7.4606,-7.4473,-7.4221,-7.4221,-7.4221,-7.4221,-7.4221,-7.4221,-7.4221,-7.4221,-7.4221,-7.4221,-7.4221,-7.4221,-7.4221,-7.4221,-7.4221,-7.4221,-7.4221,-7.4221,-7.4221,-7.4221,-7.4221,-7.4221,-7.4221,-7.4221,-7.4221,-7.4221,-7.4122,-7.3989,-7.3989,-7.3989,-4.8783,-4.9306,-4.9676,-4.6746,-4.6722,-4.6217,-4.1477,-4.0077,-3.9589,-3.8951,0.0,0.0,0.0,0.0,0.0,0.0,-4.0671,0.0,0.0,0.0,-4.7131,0.0,0.0,0.0,-5.2637,-5.2931,-5.4473,-5.8033,-5.6528,-5.7005,-6.0713,-6.1667,-6.2278,-6.2679,-6.2679,-6.3397,-6.4848,-6.4749,-6.5476,-6.7019,-6.6845,-6.6786,-6.6793,-6.6361,-6.6391,-6.6727,-6.5568,-6.5734,-6.6779,-6.6389,-6.6904,-6.8112,-6.9246,-7.0164,-7.1018,-7.2239,-7.2701,-7.2798,-7.3619,-7.3854,-7.3799,-7.3799,-7.4944,-7.6216,-7.5703,-7.6314,-7.7083,-7.6654,-7.6148,-7.5709,-7.5709,-7.5709,-7.5709,-7.5709,-7.5709,-7.5662,-7.5373,-7.5179,-7.5018,-7.4705,-7.4473,-7.4322,-7.4221,-7.4221,-7.4221,-7.4221,-7.4221,-7.4221,-7.4221,-7.4221,-7.4221,-7.4221,-7.4221,-7.4221,-7.4221,-7.4221,-7.4221,-7.4221,-7.4221,-7.4221,-7.4221,-7.4221,-7.4221,-7.4221,-7.4221,-7.4221,-7.4221,-7.4221,-7.4221,-7.4221,-7.4221,-7.4221,-5.0655,-5.0988,-5.1304,-4.809,-4.6862,-4.5601,-4.2222,-4.046,-3.9679,-4.02,-3.9314,0.0,0.0,0.0,-3.7845,-3.8579,0.0,-4.0414,0.0,-4.0855,0.0,0.0,0.0,0.0,0.0,-5.0178,-5.161,-5.5537,-5.3922,-5.4766,-5.9501,-6.0713,-6.1581,-6.2288,-6.2544,-6.3346,-6.4858,-6.4694,-6.5448,-6.7019,-6.6845,-6.6786,-6.6757,-6.6233,-6.6172,-6.6421,-6.5141,-6.5335,-6.6458,-6.5686,-6.6324,-6.7759,-6.877,-6.967,-7.0556,-7.2133,-7.2712,-7.2798,-7.3322,-7.3343,-7.3148,-7.3356,-7.4522,-7.5885,-7.5735,-7.6377,-7.7109,-7.6813,-7.6241,-7.5709,-7.5709,-7.5709,-7.5709,-7.5709,-7.5709,-7.5614,-7.5277,-7.5164,-7.4968,-7.4573,-7.4372,-7.4338,-7.4487,-7.4405,-7.4322,-7.4322,-7.4372,-7.4372,-7.4322,-7.4372,-7.4372,-7.4322,-7.4322,-7.4322,-7.4322,-7.4221,-7.4221,-7.4221,-7.4221,-7.4221,-7.4221,-7.4272,-7.4322,-7.4322,-7.4322,-7.4322,-7.4322,-7.4221,-7.4221,-7.4221,-7.4221,-7.4221,-5.4876,-5.5602,-5.5411,-4.845,-4.755,-4.7011,-4.1587,-4.1552,-4.2598,-4.2356,-4.2662,-4.2926,-4.2716,-4.1736,-4.0435,-3.8946,-3.9386,0.0,0.0,0.0,0.0,0.0,0.0,0.0,0.0,-4.6801,-4.7278,0.0,-5.0325,-5.1316,-5.774,-5.9575,-6.0823,-6.1594,-6.2377,-6.35,-6.4981,-6.4858,-6.5559,-6.7019,-6.6845,-6.6786,-6.6786,-6.6757,-6.6391,-6.5697,-6.4941,-6.502,-6.5704,-6.4948,-6.55,-6.6995,-6.8566,-6.9693,-7.058,-7.2157,-7.2691,-7.2691,-7.2563,-7.2013,-7.1503,-7.2214,-7.3533,-7.4791,-7.466,-7.5777,-7.6906,-7.6007,-7.5757,-7.5709,-7.5709,-7.5709,-7.5709,-7.5709,-7.5709,-7.5566,-7.5115,-7.5131,-7.5082,-7.4372,-7.4423,-7.4705,-7.5183,-7.4921,-7.4606,-7.4606,-7.4821,-7.487,-7.4656,-7.4821,-7.487,-7.4573,-7.4606,-7.4606,-7.4606,-7.4322,-7.4221,-7.4221,-7.4221,-7.4221,-7.4221,-7.4423,-7.4606,-7.4606,-7.4606,-7.4606,-7.4606,-7.4322,-7.4221,-7.4221,-7.4221,-7.4221,-5.7804,-5.8728,-5.8432,-5.2651,-5.0854,-4.9198,-4.3948,-4.3428,-4.3725,-4.2579,-4.3895,-4.4898,-4.3748,-4.2627,-4.1368,-3.9753,-3.9276,0.0,0.0,0.0,0.0,0.0,0.0,0.0,0.0,0.0,0.0,-5.0508,-4.926,-5.0652,-5.5976,-5.839,-5.9883,-6.0505,-6.1933,-6.332,-6.4722,-6.4703,-6.5165,-6.6076,-6.6562,-6.6533,-6.6025,-6.6048,-6.5918,-6.5665,-6.4918,-6.5031,-6.5696,-6.5453,-6.5899,-6.6946,-6.86,-6.9693,-7.0652,-7.272,-7.3503,-7.3402,-7.2731,-7.2665,-7.2834,-7.2519,-7.3854,-7.5602,-7.5523,-7.6276,-7.6996,-7.6713,-7.6194,-7.5709,-7.5709,-7.5709,-7.5709,-7.5709,-7.6115,-7.6343,-7.5771,-7.6123,-7.6392,-7.5698,-7.5647,-7.5849,-7.6269,-7.6306,-7.6241,-7.6089,-7.5857,-7.5705,-7.5606,-7.522,-7.4968,-7.487,-7.4672,-7.4806,-7.5305,-7.5484,-7.5595,-7.5595,-7.5595,-7.5698,-7.5936,-7.5521,-7.5439,-7.5556,-7.4939,-7.4606,-7.4606,-7.4322,-7.4221,-7.4221,-7.4221,-7.4221,-5.991,-6.0612,-6.0357,-5.5602,-5.3895,-5.204,-4.6959,-4.6725,-4.7163,-4.5685,-4.6659,-4.7818,-4.7799,-4.5488,-4.3057,0.0,0.0,0.0,0.0,-3.2742,0.0,0.0,0.0,-3.9958,0.0,-4.1919,-4.3975,-4.8379,-4.7094,-4.8449,0.0,-5.6466,-5.8359,-5.959,-6.1222,-6.2933,-6.4556,-6.4302,-6.4791,-6.6025,-6.6279,-6.6243,-6.6033,-6.6078,-6.5949,-6.57,-6.5512,-6.568,-6.615,-6.645,-6.697,-6.7776,-6.9126,-7.0272,-7.1442,-7.2896,-7.3617,-7.3889,-7.3861,-7.4008,-7.4114,-7.3792,-7.4748,-7.6016,-7.5935,-7.6245,-7.6622,-7.6622,-7.6194,-7.5709,-7.5709,-7.5709,-7.5777,-7.6048,-7.6521,-7.6815,-7.6508,-7.6844,-7.7026,-7.6428,-7.6324,-7.6494,-7.7052,-7.7325,-7.736,-7.711,-7.6927,-7.6725,-7.6625,-7.6288,-7.6068,-7.5921,-7.5673,-7.5622,-7.5885,-7.6163,-7.6324,-7.6324,-7.6428,-7.6532,-7.6583,-7.6389,-7.6223,-7.6324,-7.5706,-7.5372,-7.5372,-7.5086,-7.4933,-7.4933,-7.4668,-7.4619]},{"header":{"parameterUnit":"m.s-1","parameterCategory":1,"la1":30.6,"la2":29.2853,"lo1":-89.7004,"lo2":-87.6739,"dy":0.0162,"dx":0.0183,"nx":112,"ny":82,"refTime":"2026-02-24T12:00:00:Z","depth":0,"parameterNumber":3,"parameterNumberName":"V-component_of_WINDS"},"data":[0.0,0.0,0.0,0.0,0.0,0.0,0.0,0.0,0.0,0.0,0.0,0.0,0.0,0.0,0.0,0.0,0.0,0.0,0.0,0.0,0.0,0.0,0.0,0.0,0.0,0.0,0.0,0.0,0.0,0.0,0.0,0.0,0.0,0.0,0.0,0.0,0.0,0.0,0.0,0.0,0.0,0.0,0.0,0.0,0.0,0.0,0.0,0.0,0.0,0.0,0.0,0.0,0.0,0.0,0.0,0.0,0.0,0.0,0.0,0.0,0.0,0.0,0.0,0.0,0.0,0.0,0.0,0.0,0.0,0.0,0.0,0.0,0.0,0.0,0.0,0.0,0.0,0.0,0.0,0.0,0.0,0.0,0.0,0.0,0.0,0.0,0.0,0.0,0.0,0.0,-1.679,-1.8495,-2.1354,-2.3451,-2.4095,-2.3745,-2.227,-1.9608,0.0,0.0,0.0,0.0,0.0,0.0,0.0,0.0,0.0,0.0,0.0,0.0,0.0,0.0,0.0,0.0,0.0,0.0,0.0,0.0,0.0,0.0,0.0,0.0,0.0,0.0,0.0,0.0,0.0,0.0,0.0,0.0,0.0,0.0,0.0,0.0,0.0,0.0,0.0,0.0,0.0,0.0,0.0,0.0,0.0,0.0,0.0,0.0,0.0,0.0,0.0,0.0,0.0,0.0,0.0,0.0,0.0,0.0,0.0,0.0,0.0,0.0,0.0,0.0,0.0,0.0,0.0,0.0,0.0,0.0,0.0,0.0,0.0,0.0,0.0,0.0,0.0,0.0,0.0,0.0,0.0,0.0,0.0,0.0,0.0,0.0,0.0,0.0,0.0,0.0,0.0,0.0,0.0,0.0,0.0,0.0,0.0,0.0,0.0,0.0,0.0,0.0,0.0,0.0,-1.7086,-2.1129,-2.3006,-2.4204,-2.4882,-2.386,-2.2284,-2.0168,0.0,0.0,0.0,0.0,0.0,0.0,0.0,0.0,0.0,0.0,0.0,0.0,0.0,0.0,0.0,0.0,0.0,0.0,0.0,0.0,0.0,0.0,0.0,0.0,0.0,0.0,0.0,0.0,0.0,0.0,0.0,0.0,0.0,0.0,0.0,0.0,0.0,0.0,0.0,0.0,0.0,0.0,0.0,0.0,0.0,0.0,0.0,0.0,0.0,0.0,0.0,0.0,0.0,0.0,0.0,0.0,0.0,0.0,0.0,0.0,0.0,0.0,0.0,0.0,0.0,0.0,0.0,0.0,0.0,0.0,0.0,0.0,0.0,0.0,0.0,0.0,0.0,0.0,0.0,0.0,0.0,0.0,0.0,0.0,0.0,0.0,0.0,0.0,0.0,0.0,0.0,0.0,0.0,0.0,0.0,0.0,0.0,0.0,0.0,0.0,0.0,0.0,0.0,-1.6742,-1.8699,-2.2298,-2.3657,-2.4554,-2.5037,-2.4027,-2.2476,-2.0314,-1.8636,0.0,0.0,0.0,0.0,0.0,0.0,0.0,0.0,0.0,0.0,0.0,0.0,0.0,0.0,0.0,0.0,0.0,0.0,0.0,0.0,0.0,0.0,0.0,0.0,0.0,0.0,0.0,0.0,0.0,0.0,0.0,0.0,0.0,0.0,0.0,0.0,0.0,0.0,0.0,0.0,0.0,0.0,0.0,0.0,0.0,0.0,0.0,0.0,0.0,0.0,0.0,0.0,0.0,0.0,0.0,0.0,0.0,0.0,0.0,0.0,0.0,0.0,0.0,0.0,0.0,0.0,0.0,0.0,0.0,0.0,0.0,0.0,0.0,0.0,0.0,0.0,0.0,0.0,0.0,0.0,0.0,0.0,0.0,0.0,0.0,0.0,0.0,0.0,0.0,0.0,0.0,0.0,0.0,0.0,0.0,0.0,0.0,0.0,0.0,0.0,0.0,0.0,-1.907,-2.0693,-2.3092,-2.4089,-2.4752,-2.4949,-2.3773,-2.2226,-2.0252,-1.7965,0.0,0.0,0.0,0.0,0.0,0.0,0.0,0.0,0.0,0.0,0.0,0.0,0.0,0.0,0.0,0.0,0.0,0.0,0.0,0.0,0.0,0.0,0.0,0.0,0.0,0.0,0.0,0.0,0.0,0.0,0.0,0.0,0.0,0.0,0.0,0.0,0.0,0.0,0.0,0.0,0.0,0.0,0.0,0.0,0.0,0.0,0.0,0.0,0.0,0.0,0.0,0.0,0.0,0.0,0.0,0.0,0.0,0.0,0.0,0.0,0.0,0.0,0.0,0.0,0.0,0.0,0.0,0.0,0.0,0.0,0.0,0.0,0.0,0.0,0.0,0.0,0.0,0.0,0.0,0.0,0.0,0.0,0.0,0.0,0.0,0.0,0.0,0.0,0.0,0.0,0.0,0.0,0.0,0.0,0.0,0.0,0.0,0.0,0.0,0.0,0.0,0.0,-2.0331,-2.2491,-2.3888,-2.4631,-2.4935,-2.4627,-2.2701,-2.1003,-1.9886,-1.6661,0.0,0.0,0.0,0.0,0.0,0.0,0.0,0.0,0.0,0.0,0.0,0.0,0.0,0.0,0.0,0.0,0.0,0.0,0.0,0.0,0.0,0.0,0.0,0.0,0.0,0.0,0.0,0.0,0.0,0.0,0.0,0.0,0.0,0.0,0.0,0.0,0.0,0.0,0.0,0.0,0.0,0.0,0.0,0.0,0.0,0.0,0.0,0.0,0.0,0.0,0.0,0.0,0.0,0.0,0.0,0.0,0.0,0.0,0.0,0.0,0.0,0.0,0.0,0.0,0.0,0.0,0.0,0.0,0.0,0.0,0.0,0.0,0.0,0.0,0.0,0.0,0.0,0.0,0.0,0.0,0.0,0.0,0.0,0.0,0.0,0.0,0.0,0.0,0.0,0.0,0.0,0.0,0.0,0.0,0.0,0.0,0.0,0.0,0.0,0.0,0.0,0.0,-2.0127,-2.2158,-2.4167,-2.4794,-2.4987,-2.4598,-2.3466,-2.186,-1.9901,0.0,0.0,0.0,0.0,0.0,0.0,0.0,0.0,0.0,0.0,0.0,0.0,0.0,0.0,0.0,0.0,0.0,0.0,0.0,0.0,0.0,0.0,0.0,0.0,0.0,0.0,0.0,0.0,0.0,0.0,0.0,0.0,0.0,0.0,0.0,0.0,0.0,0.0,0.0,0.0,0.0,0.0,0.0,0.0,0.0,0.0,0.0,0.0,0.0,0.0,0.0,0.0,0.0,0.0,0.0,0.0,0.0,0.0,0.0,0.0,0.0,0.0,0.0,0.0,0.0,0.0,0.0,0.0,0.0,0.0,0.0,0.0,0.0,0.0,0.0,0.0,0.0,0.0,0.0,0.0,0.0,0.0,0.0,0.0,0.0,0.0,0.0,0.0,0.0,0.0,0.0,0.0,0.0,0.0,0.0,0.0,0.0,0.0,0.0,0.0,0.0,0.0,-1.88,-2.06,-2.252,-2.4955,-2.513,-2.4987,-2.4598,-2.3539,-2.1963,-1.9808,0.0,0.0,0.0,0.0,0.0,0.0,0.0,0.0,0.0,0.0,0.0,0.0,0.0,0.0,0.0,0.0,0.0,0.0,0.0,0.0,0.0,0.0,0.0,0.0,0.0,0.0,0.0,0.0,0.0,0.0,0.0,0.0,0.0,0.0,0.0,0.0,0.0,0.0,0.0,0.0,0.0,0.0,0.0,0.0,0.0,0.0,0.0,0.0,0.0,0.0,0.0,0.0,0.0,0.0,0.0,0.0,0.0,0.0,0.0,0.0,0.0,0.0,0.0,0.0,0.0,0.0,0.0,0.0,0.0,0.0,0.0,0.0,0.0,0.0,0.0,0.0,0.0,0.0,0.0,0.0,0.0,0.0,0.0,0.0,0.0,0.0,0.0,0.0,0.0,0.0,0.0,0.0,0.0,0.0,0.0,0.0,0.0,0.0,0.0,0.0,0.0,0.0,-2.0294,-2.2109,-2.3977,-2.6273,-2.565,-2.4987,-2.4598,-2.2552,-2.0715,0.0,0.0,0.0,0.0,0.0,0.0,0.0,0.0,0.0,0.0,0.0,0.0,0.0,0.0,0.0,0.0,0.0,0.0,0.0,0.0,0.0,0.0,0.0,0.0,0.0,0.0,0.0,0.0,0.0,0.0,0.0,0.0,0.0,0.0,0.0,0.0,0.0,0.0,0.0,0.0,0.0,0.0,0.0,0.0,0.0,0.0,0.0,0.0,0.0,0.0,0.0,0.0,0.0,0.0,0.0,0.0,0.0,0.0,0.0,0.0,0.0,0.0,0.0,0.0,0.0,0.0,0.0,0.0,0.0,0.0,0.0,0.0,0.0,0.0,0.0,0.0,0.0,0.0,0.0,0.0,0.0,0.0,0.0,0.0,0.0,0.0,0.0,0.0,0.0,0.0,0.0,0.0,0.0,0.0,0.0,0.0,0.0,0.0,0.0,0.0,0.0,0.0,0.0,-1.9899,-2.2881,-2.4868,-2.5141,-2.513,-2.4987,-2.4598,-2.335,-2.1657,-1.9418,0.0,0.0,0.0,0.0,0.0,0.0,0.0,0.0,0.0,0.0,0.0,0.0,0.0,0.0,0.0,0.0,0.0,0.0,0.0,0.0,0.0,0.0,0.0,0.0,0.0,0.0,0.0,0.0,0.0,0.0,0.0,0.0,0.0,0.0,0.0,0.0,0.0,0.0,0.0,0.0,0.0,0.0,0.0,0.0,0.0,0.0,0.0,0.0,0.0,0.0,0.0,0.0,0.0,0.0,0.0,0.0,0.0,0.0,0.0,0.0,0.0,0.0,0.0,0.0,0.0,0.0,0.0,0.0,0.0,0.0,0.0,0.0,0.0,0.0,0.0,0.0,0.0,0.0,0.0,0.0,0.0,0.0,0.0,0.0,0.0,0.0,0.0,0.0,0.0,0.0,0.0,0.0,0.0,0.0,0.0,0.0,0.0,0.0,0.0,0.0,0.0,0.0,-2.0573,-2.3406,-2.5218,-2.5141,-2.4989,-2.4855,-2.465,-2.3559,-2.1876,-1.9433,0.0,0.0,0.0,0.0,0.0,0.0,0.0,0.0,0.0,0.0,0.0,0.0,0.0,0.0,0.0,0.0,0.0,0.0,0.0,0.0,0.0,0.0,0.0,0.0,0.0,0.0,0.0,0.0,0.0,0.0,0.0,0.0,0.0,0.0,0.0,0.0,0.0,0.0,0.0,0.0,0.0,0.0,0.0,0.0,0.0,0.0,0.0,0.0,0.0,0.0,0.0,0.0,0.0,0.0,0.0,0.0,0.0,0.0,0.0,0.0,0.0,0.0,0.0,0.0,0.0,0.0,0.0,0.0,0.0,0.0,0.0,0.0,0.0,0.0,0.0,0.0,0.0,0.0,0.0,0.0,0.0,0.0,0.0,0.0,0.0,0.0,0.0,0.0,0.0,0.0,0.0,0.0,0.0,0.0,0.0,0.0,0.0,0.0,0.0,0.0,0.0,0.0,-2.1679,-2.3698,-2.5187,-2.5738,-2.5071,-2.4554,-2.4591,-2.3384,-2.1715,-1.9506,0.0,0.0,0.0,0.0,0.0,0.0,0.0,0.0,0.0,0.0,0.0,0.0,0.0,0.0,0.0,0.0,0.0,0.0,0.0,0.0,0.0,0.0,0.0,0.0,0.0,0.0,0.0,0.0,0.0,0.0,0.0,0.0,0.0,0.0,0.0,0.0,0.0,0.0,0.0,0.0,0.0,0.0,0.0,0.0,0.0,0.0,0.0,0.0,0.0,0.0,0.0,0.0,0.0,0.0,0.0,0.0,0.0,0.0,0.0,0.0,-1.9559,-1.8544,0.0,0.0,0.0,0.0,0.0,0.0,0.0,0.0,0.0,0.0,0.0,0.0,0.0,0.0,0.0,0.0,0.0,0.0,0.0,0.0,0.0,0.0,0.0,0.0,0.0,0.0,0.0,0.0,0.0,0.0,0.0,0.0,0.0,0.0,0.0,0.0,0.0,0.0,0.0,0.0,-2.1193,-2.3682,-2.5031,-2.4187,-2.4414,-2.4466,-2.4203,-2.3457,-2.2154,-2.015,-1.8438,0.0,0.0,0.0,0.0,0.0,0.0,0.0,0.0,0.0,0.0,0.0,0.0,0.0,0.0,0.0,0.0,0.0,0.0,0.0,0.0,0.0,0.0,0.0,0.0,0.0,0.0,0.0,0.0,0.0,0.0,0.0,0.0,0.0,0.0,0.0,0.0,0.0,0.0,0.0,0.0,0.0,0.0,0.0,0.0,0.0,0.0,0.0,0.0,0.0,0.0,0.0,0.0,0.0,0.0,0.0,0.0,0.0,0.0,0.0,-2.1269,-2.0361,0.0,0.0,0.0,0.0,0.0,0.0,0.0,0.0,0.0,0.0,0.0,0.0,0.0,0.0,0.0,0.0,0.0,0.0,0.0,0.0,0.0,0.0,0.0,0.0,0.0,0.0,0.0,0.0,0.0,0.0,0.0,0.0,0.0,0.0,0.0,0.0,0.0,0.0,0.0,0.0,-2.1695,-2.4178,-2.526,-2.375,-2.3896,-2.4027,-2.3866,-2.3252,-2.2184,-2.0518,-1.9096,0.0,0.0,0.0,0.0,0.0,0.0,0.0,0.0,0.0,0.0,0.0,0.0,0.0,0.0,0.0,0.0,0.0,0.0,0.0,0.0,0.0,0.0,0.0,0.0,0.0,0.0,0.0,0.0,0.0,0.0,0.0,0.0,0.0,0.0,0.0,0.0,0.0,0.0,0.0,0.0,0.0,0.0,0.0,0.0,0.0,0.0,0.0,0.0,0.0,0.0,0.0,0.0,0.0,-2.2832,-2.3207,-2.3718,-2.4008,-2.4168,-2.4128,-2.338,-2.2739,-2.2138,-2.1109,0.0,0.0,0.0,0.0,0.0,0.0,0.0,0.0,0.0,0.0,0.0,0.0,0.0,0.0,0.0,0.0,0.0,0.0,0.0,0.0,0.0,0.0,-2.3789,-2.4509,-2.6226,-2.6646,-2.2889,0.0,0.0,0.0,0.0,0.0,0.0,0.0,0.0,0.0,0.0,0.0,-2.2843,-2.4744,-2.5456,-2.4011,-2.3686,-2.3574,-2.3515,-2.3018,-2.2184,-2.0969,-1.9784,-1.8277,0.0,0.0,0.0,0.0,0.0,0.0,0.0,0.0,0.0,0.0,0.0,0.0,0.0,0.0,0.0,0.0,0.0,0.0,0.0,0.0,0.0,0.0,0.0,0.0,0.0,0.0,0.0,0.0,0.0,0.0,0.0,0.0,-1.0155,-1.0714,0.0,0.0,0.0,0.0,0.0,0.0,0.0,0.0,0.0,0.0,0.0,0.0,0.0,-2.0572,-2.2693,-2.3991,-2.4648,-2.469,-2.6213,-2.6854,-2.6707,-2.7336,-2.7591,-2.7578,-2.7457,0.0,-2.3113,-2.2699,0.0,0.0,0.0,0.0,0.0,0.0,0.0,0.0,0.0,0.0,0.0,0.0,0.0,0.0,0.0,0.0,0.0,0.0,0.0,0.0,0.0,0.0,-3.1277,-3.1048,-3.1264,-3.1167,-3.0238,-2.6801,-2.3287,-2.0968,-2.0041,-1.906,0.0,0.0,0.0,0.0,0.0,0.0,-2.4548,-2.5074,-2.5162,-2.495,-2.4106,-2.3486,-2.3193,-2.3091,-2.2623,-2.1628,-2.0867,-1.9725,-1.8057,-1.6477,0.0,0.0,0.0,0.0,0.0,0.0,0.0,0.0,0.0,0.0,0.0,0.0,0.0,0.0,0.0,0.0,0.0,0.0,0.0,0.0,0.0,0.0,0.0,0.0,0.0,0.0,0.0,0.0,0.0,-0.9853,-1.0795,-1.0817,-1.0849,-1.0643,0.0,0.0,0.0,0.0,0.0,0.0,0.0,0.0,0.0,-2.0367,-2.141,-2.3044,-2.5277,-2.5932,-2.644,-2.6814,-2.7575,-2.8056,-2.827,-2.8524,-2.8644,-2.8644,-2.8644,-2.7655,-2.5932,-2.4636,-2.334,-2.2031,0.0,0.0,0.0,0.0,-1.996,-2.0107,-2.1109,-2.1229,-2.0895,-2.0561,0.0,0.0,0.0,0.0,0.0,0.0,0.0,-2.6158,-2.7609,-2.9969,-3.2163,-3.3066,-3.3305,-3.3125,-3.2676,-3.0586,-2.7857,-2.4697,-2.3809,-2.259,-1.9601,-1.95,0.0,0.0,0.0,-2.4003,-2.4597,-2.5381,-2.5319,-2.4131,-2.3613,-2.3267,-2.312,-2.3106,-2.2784,-2.2023,-2.1525,-2.0706,-1.9447,-1.8013,-1.6726,0.0,0.0,0.0,0.0,0.0,0.0,0.0,0.0,0.0,0.0,0.0,0.0,0.0,0.0,0.0,0.0,0.0,0.0,0.0,0.0,0.0,0.0,0.0,0.0,0.0,0.0,0.0,0.0,-1.0635,-1.143,-1.1154,-1.1461,-1.1366,0.0,0.0,0.0,0.0,0.0,0.0,-1.6665,-1.8627,-2.0852,-2.3226,-2.392,-2.519,-2.7268,-2.7281,-2.7642,-2.8377,-2.8444,-2.8724,-2.9152,-2.9232,-2.9259,-2.9259,-2.9192,-2.8858,-2.823,-2.64,-2.4943,-2.3754,-2.2498,-2.1737,-2.139,-2.1683,-2.179,-2.1991,-2.3394,-2.3581,-2.314,-2.2779,-2.1764,-2.0523,-1.9653,0.0,0.0,0.0,0.0,-2.8288,-3.0296,-3.144,-3.251,-3.4082,-3.4414,-3.4297,-3.3848,-3.3086,-3.1465,-2.8027,-2.7187,-2.5977,-2.2679,-2.2246,0.0,-2.2969,-2.4617,-2.5755,-2.5752,-2.6215,-2.5901,-2.424,-2.3479,-2.3106,-2.3106,-2.3032,-2.2754,-2.2213,-2.1876,-2.1262,-2.0227,-1.9228,-1.8174,-1.7167,0.0,0.0,0.0,0.0,0.0,0.0,0.0,0.0,0.0,0.0,0.0,0.0,0.0,0.0,0.0,0.0,0.0,0.0,0.0,0.0,0.0,0.0,0.0,0.0,0.0,0.0,0.0,0.0,0.0,-1.2209,-1.2944,0.0,0.0,0.0,0.0,-1.492,-1.7304,-1.9016,-1.9537,-2.1834,-2.3548,-2.4498,-2.6177,-2.7589,-2.8511,-2.8511,-2.8684,-2.8991,-2.9285,-2.9432,-2.9472,-2.9753,-2.9873,-2.986,-2.9579,-2.9285,-2.8898,-2.7669,-2.6466,-2.5344,-2.4703,-2.3941,-2.3233,-2.3527,-2.3634,-2.3688,-2.4062,-2.4155,-2.4182,-2.4422,-2.3327,-2.222,-2.379,-2.4118,0.0,0.0,-2.968,-3.1302,-3.2848,-3.3906,-3.4668,-3.5195,-3.5332,-3.5195,-3.4726,-3.3965,-3.2695,-3.0449,-2.9355,-2.8223,-2.6406,0.0,-2.5615,-2.6094,-2.6953,-2.8008,-2.9169,-2.7962,-2.691,-2.6823,-2.4579,-2.3106,-2.3106,-2.2828,-2.252,-2.2198,-2.1876,-2.1262,-2.0227,-1.9886,-1.9081,-1.7794,-1.6126,0.0,0.0,0.0,0.0,0.0,0.0,0.0,0.0,0.0,0.0,0.0,0.0,0.0,0.0,0.0,0.0,0.0,0.0,0.0,0.0,0.0,0.0,0.0,0.0,0.0,0.0,0.0,0.0,-1.3038,-1.3833,0.0,-1.2985,-1.5662,-1.7106,-1.6294,-2.0538,-2.3005,-2.2627,-2.4689,-2.631,-2.7181,-2.7817,-2.8377,-2.8885,-2.8885,-2.9032,-2.9325,-2.9432,-2.9579,-2.9766,-2.9873,-2.9913,-2.99,-2.9606,-2.9312,-2.8991,-2.8377,-2.7535,-2.66,-2.6199,-2.5625,-2.5037,-2.5144,-2.5259,-2.5273,-2.5291,-2.5331,-2.5224,-2.4569,-2.3674,-2.3243,-2.5555,-2.644,-2.7395,-3.0661,-3.2315,-3.3335,-3.4434,-3.4922,-3.5254,-3.5684,-3.5586,-3.5273,-3.4805,-3.4238,-3.3457,-3.2129,-3.0957,-2.9648,-2.791,-2.7715,-2.7656,-2.7266,-2.8217,-2.8865,-2.8785,-2.8454,-2.7589,-2.5912,-2.4949,-2.3947,-2.2874,-2.2681,-2.2315,-2.1598,-2.1452,-2.1042,-2.0212,-1.9725,-1.9228,-1.876,-1.7165,-1.5436,0.0,0.0,0.0,0.0,0.0,0.0,0.0,0.0,0.0,0.0,0.0,0.0,0.0,0.0,0.0,0.0,0.0,0.0,0.0,0.0,0.0,0.0,0.0,0.0,0.0,-1.271,-1.3679,-1.3754,-1.4621,-1.4851,-1.3895,-1.7517,-1.9422,-1.8299,-2.3202,-2.6017,-2.5418,-2.679,-2.7829,-2.843,-2.8551,-2.8751,-2.9032,-2.9138,-2.9339,-2.9633,-2.9633,-2.9726,-2.9913,-2.9913,-2.986,-2.9753,-2.9459,-2.9165,-2.8871,-2.8577,-2.8096,-2.7522,-2.7121,-2.668,-2.6239,-2.6132,-2.6106,-2.6106,-2.6106,-2.6117,-2.5889,-2.493,-2.4315,-2.4263,-2.6229,-2.7793,-2.9463,-3.1981,-3.369,-3.4863,-3.5449,-3.5605,-3.5664,-3.5957,-3.5801,-3.543,-3.4824,-3.4473,-3.4023,-3.3164,-3.2207,-3.1035,-2.9434,-2.9394,-2.9336,-2.8633,-2.9238,-2.9658,-2.9255,-2.9009,-2.8247,-2.6581,-2.5973,-2.5233,-2.396,-2.3307,-2.263,-2.1862,-2.1225,-2.07,-2.036,-1.9859,-1.9454,-1.928,-1.7583,-1.6012,-1.4691,0.0,0.0,0.0,0.0,0.0,0.0,0.0,0.0,0.0,0.0,0.0,0.0,0.0,0.0,0.0,0.0,0.0,0.0,0.0,0.0,0.0,0.0,0.0,-1.232,-1.3425,-1.4278,-1.4464,-1.5423,-1.5731,-1.4939,-1.8779,-2.1307,-2.1239,-2.5238,-2.7626,-2.7696,-2.7976,-2.8221,-2.8221,-2.8457,-2.8751,-2.9032,-2.9339,-2.9633,-2.99,-2.99,-2.99,-2.9887,-2.9873,-2.9726,-2.9459,-2.9138,-2.8858,-2.8577,-2.827,-2.8221,-2.8154,-2.7509,-2.7094,-2.68,-2.6507,-2.64,-2.6386,-2.6386,-2.6199,-2.5892,-2.5611,-2.5304,-2.5256,-2.6157,-2.8206,-3.0526,-3.1738,-3.4016,-3.6016,-3.6016,-3.6016,-3.6016,-3.6016,-3.6016,-3.5781,-3.4883,-3.4707,-3.4453,-3.3594,-3.3086,-3.2422,-3.1152,-3.0918,-3.0762,-3.0293,-3.0215,0.0,-3.084,-2.9785,-2.892,-2.892,-2.7769,-2.6833,-2.6439,-2.468,-2.3438,-2.2958,-2.1209,-2.033,-2.0652,-2.0291,-1.9838,-1.9399,-1.7371,-1.622,-1.6021,0.0,0.0,0.0,0.0,0.0,0.0,0.0,0.0,0.0,0.0,0.0,0.0,0.0,0.0,0.0,0.0,0.0,0.0,0.0,0.0,0.0,-1.1768,-1.2621,-1.3197,-1.4237,-1.5155,-1.5723,-1.6284,-1.7036,-1.8173,-1.9531,-2.1231,-2.3563,-2.5141,-2.6554,-2.7626,-2.7976,-2.8221,-2.8221,-2.8644,-2.8965,-2.9045,-2.9539,-2.9726,-2.9606,-2.9606,-2.9486,-2.9272,-2.9058,-2.9045,-2.9138,-2.8617,-2.847,-2.8577,-2.827,-2.81,-2.7802,-2.7642,-2.7402,-2.7108,-2.6814,-2.6573,-2.6386,-2.6386,-2.6052,-2.5625,-2.5545,-2.517,-2.5234,-2.7632,-2.9321,-3.0859,-3.3408,-3.5032,-3.6016,-3.6016,-3.6016,-3.6016,-3.6016,-3.6016,-3.5781,-3.4883,-3.4707,-3.4453,-3.3594,-3.332,-3.2949,-3.1973,-3.1562,-3.1191,-3.0762,-3.0703,-3.0742,-3.0879,-3.0587,-2.9962,-2.8979,-2.831,-2.744,-2.6162,-2.4261,-2.2919,-2.2298,-2.0567,-1.9814,-2.0326,-2.0063,-2.0232,-2.0788,-1.9573,-1.8775,0.0,0.0,0.0,0.0,0.0,0.0,0.0,0.0,0.0,0.0,0.0,0.0,0.0,0.0,0.0,0.0,0.0,0.0,0.0,0.0,0.0,0.0,-1.2726,-1.3685,-1.4335,-1.496,-1.5618,-1.6332,-1.7349,-1.813,-1.8388,-2.07,-2.2653,-2.3626,-2.5493,-2.6948,-2.7896,-2.8043,-2.8221,-2.8221,-2.8604,-2.8858,-2.8858,-2.9312,-2.9459,-2.9299,-2.9179,-2.9032,-2.8845,-2.8551,-2.8444,-2.8457,-2.7976,-2.7883,-2.8016,-2.7722,-2.7562,-2.7522,0.0,0.0,0.0,0.0,-2.6533,-2.6386,-2.6386,-2.6172,-2.5838,-2.5598,-2.5277,-2.5391,-2.7798,-2.9329,-3.0805,-3.3466,-3.504,-3.6016,-3.6016,-3.6016,-3.6016,-3.6016,-3.6016,-3.5781,-3.4883,-3.4707,-3.4453,-3.3594,-3.3418,0.0,-3.2539,-3.207,-3.1582,-3.0976,-3.0898,-3.0898,-3.0898,-3.0898,-3.0587,-2.9844,-2.9519,-2.8874,-2.7594,-2.5383,0.0,0.0,0.0,-1.9658,-2.0378,-2.0757,0.0,0.0,0.0,0.0,0.0,0.0,0.0,0.0,-1.9646,-1.9528,0.0,0.0,0.0,0.0,0.0,0.0,0.0,0.0,0.0,0.0,0.0,0.0,0.0,0.0,0.0,0.0,-1.3839,-1.4927,-1.5472,-1.5545,-1.5813,-1.6527,-1.8196,-1.8818,-1.756,-2.1903,-2.4256,-2.3105,-2.6027,-2.7968,-2.8221,-2.8221,0.0,0.0,0.0,-2.8604,-2.8604,-2.8858,-2.8978,-2.8938,-2.8644,-2.8484,-2.8444,-2.8136,-2.7869,-2.7629,-2.7335,-2.7241,-2.7241,-2.6987,-2.7001,-2.7215,-2.7215,-2.7028,-2.6747,-2.648,-2.6386,-2.6386,-2.6386,0.0,0.0,-2.5678,-2.5464,-2.5683,-2.71,-2.8844,-3.0734,-3.2665,-3.4521,-3.6016,-3.6016,-3.6016,-3.6016,-3.6016,-3.6016,-3.5781,-3.4883,-3.4707,-3.4453,-3.3594,-3.3418,-3.3281,-3.2871,-3.2441,-3.1894,-3.1074,-3.0918,-3.0898,-3.0898,-3.0898,-3.084,-3.0704,-3.0606,0.0,-2.9294,-2.695,-2.5051,-2.3996,-2.1322,-2.0229,-2.1092,-2.2216,-2.2628,-2.2274,-2.2311,-2.2479,-2.2795,-2.3602,-2.4094,-2.4196,-2.167,-2.1227,0.0,0.0,0.0,0.0,0.0,0.0,0.0,0.0,0.0,0.0,0.0,0.0,0.0,0.0,0.0,-1.3311,-1.427,-1.5106,-1.565,-1.5723,-1.5991,-1.6714,-1.7087,-1.8441,-2.1171,-2.1135,-2.2697,-2.6779,-2.6381,-2.6588,-2.8136,-2.8221,-2.8221,-2.8221,-2.8444,-2.8604,-2.8604,-2.8657,-2.8564,-2.831,-2.8016,0.0,-2.7522,-2.7215,-2.7175,-2.7335,-2.7041,-2.7041,-2.7268,-2.7201,-2.7068,-2.6907,-2.6907,-2.6734,-2.6466,-2.6413,-2.6386,-2.6386,-2.6386,-2.6079,-2.5665,-2.5545,-2.5424,-2.5524,-2.7041,-2.9059,0.0,-3.277,-3.454,-3.6016,-3.6016,-3.6016,-3.6016,-3.6016,-3.6016,-3.5781,-3.4883,-3.4707,-3.4453,-3.3594,-3.3418,-3.3281,-3.2871,-3.2441,-3.1992,-3.1484,-3.1113,-3.0898,-3.0898,-3.0898,-3.047,-2.9412,-2.8997,-2.833,-2.71,-2.5696,-2.4744,-2.4521,-2.3652,-2.3295,-2.359,-2.4221,-2.4578,-2.4501,-2.4802,-2.486,-2.4617,-2.5081,-2.5352,-2.538,-2.434,-2.3903,0.0,0.0,0.0,0.0,0.0,0.0,0.0,0.0,0.0,0.0,0.0,-1.0883,-1.1516,0.0,-1.3441,-1.4075,-1.4773,-1.5366,-1.5723,-1.5926,-1.6502,-1.7704,-1.876,-2.0252,-2.2172,-2.3414,-2.4776,-2.6673,-2.6758,-2.7194,-2.8136,-2.8221,-2.8221,-2.8221,-2.8297,-2.831,-2.815,-2.815,-2.8003,-2.7779,-2.7402,-2.7188,-2.7028,-2.6747,-2.668,-2.6814,-2.6667,-2.6694,-2.6827,-2.6827,-2.6734,-2.66,-2.66,-2.652,-2.6386,-2.6386,-2.6386,-2.6386,-2.6386,-2.6106,-2.5782,-2.5788,-2.5677,-2.5936,-2.8403,-2.9987,-3.1403,-3.39,-3.5245,-3.6016,-3.6016,-3.6016,-3.6016,-3.6016,-3.6016,-3.584,-3.5195,-3.4863,-3.4512,-3.3867,-3.3574,-3.3359,-3.3144,-3.2754,-3.2266,-3.1621,-3.1152,-3.0898,-3.0898,-3.0898,-3.0645,-2.9962,-2.9108,-2.8242,-2.7399,-2.5718,-2.4365,-2.3646,-2.4315,-2.473,-2.4577,-2.5542,-2.6035,-2.6035,-2.6269,-2.6269,-2.6035,-2.6269,-2.6317,-2.6317,-2.6016,-2.5729,0.0,0.0,0.0,0.0,0.0,0.0,0.0,0.0,-0.9617,-1.0612,-1.1409,-1.2117,-1.2759,-1.3522,-1.4221,-1.4732,-1.5236,-1.569,-1.6232,-1.6534,-1.7482,-1.9624,-2.0848,-2.183,-2.2613,-2.5662,-2.7103,-2.5907,-2.7337,-2.8221,-2.8221,-2.8167,-2.814,-2.814,-2.8087,-2.7939,-2.7615,-2.7562,-2.7415,-2.7175,-2.6881,-2.6734,-2.6734,-2.6493,-2.6386,-2.6386,-2.6386,-2.6386,-2.6386,-2.6386,-2.6386,-2.6386,-2.6386,-2.6386,-2.6386,-2.6386,-2.6386,-2.6386,-2.6386,-2.6238,-2.6057,-2.6058,-2.6184,-2.6774,-2.9656,-3.0909,-3.2053,-3.4815,-3.5811,-3.6016,-3.6016,-3.6016,-3.6016,-3.6016,-3.6016,-3.5898,-3.5488,-3.5019,-3.457,-3.416,-3.3711,-3.3418,-3.3418,-3.3066,-3.2539,-3.1758,-3.1289,-3.0976,-3.0898,-3.0898,-3.082,-3.0528,-2.9294,-2.8282,-2.7593,-2.5755,-2.425,-2.3447,-2.4756,-2.5537,-2.5437,-2.6448,-2.7012,-2.7012,-2.709,-2.7148,-2.7148,-2.7226,-2.7266,-2.7266,-2.7266,-2.6992,-0.7882,-0.7658,-0.7692,-0.8072,-0.8245,-0.8632,0.0,0.0,-1.1225,-1.2133,-1.2914,-1.3522,-1.3928,-1.4335,-1.4741,-1.5114,-1.5496,-1.6313,-1.7932,-1.8279,-1.9551,-2.2889,-2.1086,-2.0772,-2.3962,-2.4962,-2.5958,-2.732,-2.7906,-2.8221,-2.8221,-2.7896,-2.7749,-2.7749,-2.7495,-2.7348,-2.7321,-2.7054,-2.6907,-2.6867,-2.6573,-2.644,-2.644,-2.64,-2.6386,-2.6386,-2.6386,-2.6386,-2.6386,-2.6386,-2.6386,-2.6386,-2.6386,-2.6386,-2.6386,-2.6386,-2.6386,-2.6386,-2.6386,-2.6259,-2.6093,-2.6066,-2.7138,-2.8434,-2.8819,-3.1067,-3.3554,-3.3918,-3.4971,-3.6016,-3.6016,-3.6016,-3.6016,-3.6016,-3.6016,-3.5898,-3.5488,-3.5019,-3.457,-3.416,-3.3711,-3.3418,-3.3418,-3.3066,-3.2637,-3.2168,-3.1719,-3.1309,-3.0937,-3.0898,-3.045,-2.9235,-2.7966,-2.6566,-2.4984,-2.4615,-2.501,-2.6419,-2.6354,-2.66,-2.7383,-2.7136,-2.7012,-2.7012,-2.7402,-2.7598,-2.7598,-2.7969,-2.8144,-2.8144,-2.8144,-2.7715,-0.8682,-0.8615,-0.8682,0.0,-0.9417,-1.0134,-1.1038,-1.1728,-1.2422,-1.3181,-1.3705,-1.418,-1.444,-1.4692,-1.4944,-1.5195,-1.5455,-1.6292,-1.8154,-1.8399,-1.9604,-2.2886,-2.218,-2.2556,-2.5557,-2.6108,-2.6687,-2.7442,-2.7562,-2.7712,-2.7712,-2.7509,-2.7442,-2.7442,-2.7335,-2.7188,-2.7014,-2.6881,-2.6734,-2.6573,-2.6453,-2.6386,-2.6386,-2.6386,-2.6386,-2.6386,-2.6386,-2.6386,-2.6373,-2.6199,-2.6132,-2.6119,-2.5945,-2.5985,-2.6159,-2.6333,-2.6386,-2.6439,-2.6421,-2.633,-2.633,-2.7461,-2.8261,-2.9091,-3.1067,-3.27,-3.3988,-3.4834,-3.5519,-3.6016,-3.6016,-3.6016,-3.6016,-3.6016,-3.6016,-3.5976,-3.5801,-3.5195,-3.4648,-3.4473,-3.3887,-3.3418,-3.3418,-3.3281,-3.3008,-3.2598,-3.2168,-3.1738,-3.1309,-3.125,-3.0661,-2.9076,-2.8444,-2.7537,-2.6077,-2.6398,-2.7006,-2.7742,-2.8071,-2.8282,-2.8418,-2.8223,-2.8008,-2.7754,-2.793,-2.8027,-2.8027,-2.8203,-2.8301,-2.8301,-2.8301,-2.8212,-0.9076,0.0,0.0,-0.9714,-1.0468,-1.1373,-1.1969,-1.2627,-1.331,-1.3922,-1.4326,-1.4619,-1.4757,-1.4879,-1.5025,-1.5212,-1.539,-1.6333,-1.862,-1.8837,-1.9964,-2.3153,-2.3451,-2.4136,-2.6109,-2.676,-2.7054,-2.7134,-2.7215,-2.7268,-2.7268,-2.7188,-2.7148,-2.7148,-2.7068,-2.6921,-2.6707,-2.6707,-2.66,-2.6386,-2.6386,-2.6386,-2.6386,-2.6386,-2.6386,-2.6386,-2.6386,-2.6346,-2.6253,-2.6039,-2.5983,-2.5812,-2.5598,-2.5692,-2.6063,-2.6356,-2.6477,-2.6583,-2.652,-2.6452,-2.6682,-2.8044,-2.894,-2.9932,-3.2421,-3.3762,-3.4609,-3.5675,-3.6016,-3.6016,-3.6016,-3.6016,-3.6016,-3.6016,-3.5937,-3.584,-3.584,-3.5156,-3.4531,-3.4531,-3.3926,-3.3418,-3.3418,-3.3418,-3.332,-3.3008,-3.2715,-3.2324,-3.1758,-3.1601,-3.0853,-2.9076,-2.892,-2.8385,-2.7142,-2.7599,-2.8034,-2.8275,-2.8861,-2.9215,-2.9121,-2.9101,-2.8965,-2.8652,-2.8652,-2.8652,-2.8652,-2.8652,-2.8652,-2.8652,-2.876,-2.8869,0.0,0.0,-0.9607,-1.0476,-1.1128,-1.1923,-1.3106,-1.3631,-1.3956,-1.4342,-1.47,-1.4952,-1.496,-1.5037,-1.5025,-1.5212,-1.539,-1.6625,-1.9671,-2.0227,-2.1444,-2.4665,-2.4762,-2.4709,-2.5104,-2.5905,-2.6533,-2.6814,-2.7108,-2.7268,-2.7268,-2.6987,-2.6841,-2.6841,-2.656,-2.6413,-2.64,-2.64,-2.64,-2.6386,-2.6386,-2.6386,-2.6386,-2.6386,-2.6386,-2.6386,-2.6386,-2.6226,-2.605,-2.6037,-2.5785,-2.5518,-2.5518,-2.5692,-2.6037,-2.6439,-2.6785,-2.6912,-2.6598,-2.6836,-2.7212,-2.6958,-2.894,-3.1437,-3.1508,-3.3623,-3.5947,-3.6016,-3.6016,-3.6016,-3.6016,-3.6016,-3.6016,-3.6016,-3.5703,-3.541,-3.541,-3.4707,-3.4082,-3.4082,-3.373,-3.3418,-3.3418,-3.3418,-3.3418,-3.3398,-3.3398,-3.3086,-3.2246,-3.1777,-3.0853,-2.9076,-2.892,-2.8385,-2.7142,-2.7004,-2.7372,-2.8235,-2.8315,-2.8707,-2.957,-2.9551,-2.9551,-2.9587,-2.9587,-2.9587,-2.9587,-2.9587,-2.9587,-2.9587,-2.9829,-2.9941,-0.9524,0.0,-1.0412,-1.1534,-1.2281,-1.2909,-1.3703,-1.4156,-1.4469,-1.4619,-1.4424,-1.4261,-1.4261,-1.4261,-1.4318,-1.4505,-1.4984,-1.6468,-1.9706,-2.0422,-2.1579,-2.4227,-2.4756,-2.481,-2.4529,-2.5117,-2.5718,-2.6213,-2.6346,-2.648,-2.668,-2.6587,-2.6533,-2.6533,-2.644,-2.6386,-2.6386,-2.6386,-2.6386,-2.6386,-2.6386,-2.6386,-2.6386,-2.6386,-2.6386,-2.6373,-2.6186,-2.6052,-2.601,-2.5531,-2.5424,-2.5491,-2.5304,-2.5531,-2.6037,-2.6425,-2.6804,-2.7142,-2.7066,-2.7112,-2.7606,-2.9382,-3.0617,-3.186,-3.39,-3.5177,-3.6016,-3.6016,-3.6016,-3.6016,-3.6016,-3.6016,-3.6016,-3.6016,-3.5703,-3.5391,-3.5391,-3.4707,-3.4082,-3.4082,-3.3711,-3.3418,-3.3418,-3.3418,-3.3418,-3.3418,-3.3184,-3.291,-3.2617,-3.1953,-3.1267,-3.0696,-3.0369,-3.0039,-2.9608,-2.9608,-2.9728,-3.0005,-3.0005,-3.0046,-3.0,-2.998,-2.9863,-2.9626,-2.9626,-2.9682,-2.9869,-2.9869,-2.996,-3.0183,-3.0314,-3.0404,-1.0258,-1.0538,-1.0985,-1.24,-1.3012,-1.3461,-1.4211,-1.4474,-1.4594,-1.4529,-1.414,-1.3766,-1.3636,-1.3563,-1.3644,-1.4018,-1.457,-1.6153,-1.9664,-2.0347,-2.1442,-2.4009,-2.4596,-2.4623,-2.4235,-2.4636,-2.5211,-2.5983,-2.6037,-2.6079,-2.6373,-2.6386,-2.6386,-2.6386,-2.6386,-2.6386,-2.6386,-2.6386,-2.6386,-2.6386,-2.6386,-2.6386,-2.6386,-2.6279,-2.6239,-2.6226,-2.5919,-2.5798,-2.5772,-2.5398,-2.5344,-2.5491,-2.5304,-2.5608,-2.627,-2.6658,-2.7031,-2.7375,-2.7369,-2.7334,-2.7746,-2.9929,-3.1084,-3.193,-3.4471,-3.5606,-3.6016,-3.6016,-3.6016,-3.6016,-3.6016,-3.6016,-3.6016,-3.6016,-3.5566,-3.5137,-3.5137,-3.4453,-3.3848,-3.3848,-3.3613,-3.3418,-3.3418,-3.3418,-3.3418,-3.3418,-3.3184,-3.2969,-3.2812,-3.2305,-3.1914,-3.1758,-3.1367,-3.1113,-3.1113,-3.0976,-3.0898,-3.0898,-3.0898,-3.0762,-3.0449,-3.0449,-3.0312,-3.0039,-3.0039,-3.0209,-3.0435,-3.0435,-3.0661,-3.0942,-3.1111,-3.1223,-1.0771,-1.1024,-1.1317,-1.2927,-1.3275,-1.3506,-1.4726,-1.4676,-1.4367,-1.4172,-1.3831,-1.338,0.0,0.0,-1.3019,-1.3717,-1.4172,-1.5725,-1.9677,-2.0035,-2.1105,-2.4245,-2.4449,-2.4275,-2.4249,-2.4516,-2.5024,-2.5879,-2.5932,-2.6066,-2.6373,-2.6386,-2.6386,-2.6386,-2.6386,-2.6386,-2.6386,-2.6386,-2.6386,-2.6386,-2.6386,-2.6386,-2.636,-2.6079,-2.6023,-2.5996,-2.5638,-2.5518,-2.5518,-2.5518,-2.5518,-2.5531,-2.5531,-2.5949,-2.6685,-2.7108,-2.748,-2.7731,-2.7416,-2.743,-2.7718,-2.8929,-3.0305,-3.1789,-3.3415,-3.4902,-3.6016,-3.6016,-3.6016,-3.6016,-3.6016,-3.6016,-3.6016,-3.6016,-3.5351,-3.4726,-3.4707,-3.4043,-3.3457,-3.3418,-3.3418,-3.3418,-3.3418,-3.3418,-3.3418,-3.3418,-3.3418,-3.3281,-3.2871,-3.2812,-3.2637,-3.2246,-3.1816,-3.1562,-3.1562,-3.1172,-3.0918,-3.0918,-3.0898,-3.0898,-3.0898,-3.0898,-3.0898,-3.0898,-3.0898,-3.1054,-3.1325,-3.1325,-3.1498,-3.1845,-3.219,-3.2305,-1.1252,-1.1657,-1.207,-1.3199,-1.3528,-1.3686,-1.4174,-1.4274,-1.4115,-1.3669,-1.297,-1.2288,0.0,0.0,-1.2385,-1.2832,-1.3766,-1.5725,-1.9677,-2.0457,-2.1779,-2.4635,-2.5291,-2.5344,-2.4903,-2.5117,-2.5384,-2.5611,-2.5625,-2.5852,-2.636,-2.6386,-2.6386,-2.6386,-2.6386,-2.6386,-2.6386,-2.6386,-2.6386,-2.6386,-2.6386,-2.6279,-2.6066,-2.6063,-2.5838,-2.5625,-2.5545,-2.5518,-2.5518,-2.5518,-2.5638,-2.5916,-2.6239,-2.6571,-2.6959,-2.7424,-2.7583,-2.7416,-2.7476,-2.7465,-2.7851,-3.015,-3.1155,-3.2,-3.4609,-3.5675,-3.6016,-3.6016,-3.6016,-3.6016,-3.6016,-3.6016,-3.6016,-3.6016,-3.5605,-3.5117,-3.4766,-3.4277,-3.3809,-3.3496,-3.3418,-3.3418,-3.3418,-3.3418,-3.3418,-3.3418,-3.3418,-3.3379,-3.3281,-3.2988,-3.2754,-3.2656,-3.2246,-3.2012,-3.2012,-3.1601,-3.1367,-3.1367,-3.1055,-3.0898,-3.0898,-3.0898,-3.0898,-3.0898,-3.1112,-3.1325,-3.1672,-3.1903,-3.219,-3.2498,-3.2555,-3.2612,-1.186,-1.229,-1.2641,-1.3406,-1.3641,-1.3748,-1.3877,-1.3761,-1.3392,-1.2694,-1.1955,0.0,-1.0842,-1.1135,-1.1877,-1.3162,0.0,0.0,-2.07,-2.1645,-2.2763,-2.5172,-2.5758,-2.5772,-2.5317,-2.5531,-2.5651,-2.5518,-2.5518,-2.5651,-2.5985,-2.6012,-2.6012,-2.6012,-2.6012,-2.6012,-2.6012,-2.6132,-2.6132,-2.6012,-2.6012,-2.5919,-2.5758,-2.5625,-2.5545,-2.5504,-2.5384,-2.5464,-2.5705,-2.5705,-2.6034,-2.6459,-2.6707,-2.7116,-2.7633,-2.7933,-2.7808,-2.7543,-2.7669,-2.7925,-2.8592,-3.0797,-3.1508,-3.207,-3.5108,-3.6016,-3.6016,-3.6016,-3.6016,-3.6016,-3.6016,-3.6016,-3.6016,-3.6016,-3.5703,-3.5273,-3.4805,-3.4375,-3.3945,-3.3496,-3.3418,-3.3418,-3.3418,-3.3418,-3.3418,-3.3418,-3.3418,-3.3359,-3.3164,-3.3105,-3.3066,-3.3066,-3.2695,-3.2441,-3.2441,-3.2051,-3.1797,-3.1797,-3.1582,-3.1445,-3.1445,-3.1269,-3.1172,-3.1172,-3.1249,-3.1441,-3.1787,-3.2133,-3.244,-3.2669,-3.2669,-3.2669,-1.2448,-1.2799,-1.3018,-1.3447,-1.371,-1.3707,-1.3498,-1.3089,-1.2507,-1.1581,0.0,-1.0477,-1.0171,-1.0547,-1.1621,-1.3889,0.0,-1.7762,-2.2031,-2.279,-2.3686,-2.575,-2.6063,-2.5919,-2.5651,-2.5825,-2.5852,-2.5585,-2.5504,-2.5478,-2.5504,-2.5518,-2.5531,-2.5571,-2.5571,-2.5585,-2.5625,-2.5879,-2.5865,-2.5571,-2.5571,-2.5531,-2.5451,-2.5197,-2.5224,-2.5451,-2.5237,-2.5451,-2.6037,-2.6077,-2.6486,-2.7032,-2.711,-2.7661,-2.8275,-2.831,-2.8183,-2.7932,-2.7888,-2.8488,-2.9513,-3.1031,-3.1649,-3.2351,-3.5177,-3.6016,-3.6016,-3.6016,-3.6016,-3.6016,-3.6016,-3.6016,-3.6016,-3.6016,-3.5742,-3.5351,-3.4883,-3.4453,-3.4023,-3.3594,-3.3516,-3.3496,-3.3437,-3.3418,-3.3418,-3.3418,-3.3418,-3.3281,-3.293,-3.3144,-3.334,-3.334,-3.3008,-3.2812,-3.2871,-3.25,-3.2246,-3.2246,-3.2268,-3.2229,-3.2229,-3.1816,-3.1601,-3.1601,-3.1584,-3.1678,-3.1968,-3.2374,-3.2662,-3.2913,-3.2913,-3.2913,-1.2707,-1.2956,-1.3055,-1.3039,-1.3401,-1.3644,-1.2842,-1.2521,0.0,0.0,-1.0404,-0.9916,-0.9608,-1.0843,-1.2402,-1.3848,-1.5704,-1.8161,-2.1807,-2.2524,-2.3564,0.0,-2.6172,-2.6293,-2.6239,-2.6066,-2.601,-2.5879,-2.5424,-2.5264,-2.5504,-2.5518,-2.5625,-2.5865,-2.5879,-2.5999,-2.6239,-2.6293,-2.6172,-2.5879,-2.5879,-2.5625,-2.5157,-2.5104,-2.5104,-2.517,-2.5358,-2.5638,-2.605,-2.6619,-2.6898,-2.711,-2.7805,-2.8211,-2.8339,-2.839,-2.837,-2.8238,-2.7976,-2.8639,-2.9849,-3.1115,-3.2351,-3.3692,-3.5451,-3.6016,-3.6016,-3.6016,-3.6016,-3.6016,-3.6016,-3.6016,-3.6016,-3.6016,-3.5957,-3.5801,-3.5371,-3.4922,-3.4473,-3.4043,-3.3965,-3.3848,-3.3496,-3.3418,-3.3418,-3.3418,-3.3418,-3.3398,-3.332,-3.3066,-3.291,-3.291,-3.2832,-3.293,-3.3281,-3.293,-3.2695,-3.2695,-3.2363,-3.2229,-3.2229,-3.209,-3.2051,-3.2051,-3.2575,-3.2814,-3.2874,-3.3469,-3.3824,-3.3844,-3.3844,-3.3844,-1.2975,-1.3216,-1.3414,-1.3341,-1.3679,-1.3738,-1.2672,0.0,0.0,0.0,-0.9575,-0.925,-0.9037,-1.0534,0.0,-1.3951,-1.5872,-1.8466,-2.2044,-2.2802,-2.3783,-2.5734,-2.6213,-2.6386,-2.6386,-2.6266,-2.6052,-2.5745,-2.5464,-2.5304,-2.5291,-2.5144,-2.5117,-2.5264,-2.5571,-2.5718,-2.5705,-2.5852,-2.5785,-2.5504,-2.5344,-2.5117,-2.485,-2.485,-2.501,-2.5317,-2.5451,-2.5926,-2.6513,-2.6884,-2.7268,-2.774,-2.8133,-2.8431,-2.8651,-2.8647,-2.8578,-2.8417,-2.818,-2.8942,-3.0128,-3.1363,-3.2667,-3.4057,-3.5519,-3.6016,-3.6016,-3.6016,-3.6016,-3.6016,-3.6016,-3.6016,-3.6016,-3.6016,-3.5859,-3.5644,-3.543,-3.5019,-3.4648,-3.4434,-3.4394,-3.4258,-3.3828,-3.375,-3.3691,-3.3457,-3.3418,-3.334,-3.3125,-3.293,-3.2871,-3.3105,-3.3125,-3.3203,-3.3398,-3.3242,-3.3125,-3.3125,-3.293,-3.2812,-3.2812,-3.2617,-3.2623,-3.2806,-3.2994,-3.3175,-3.3335,-3.3893,-3.4132,-3.4132,-3.4132,-3.4132,-1.3334,-1.359,-1.3814,-1.3776,-1.3968,-1.3734,-1.2483,-1.1606,0.0,0.0,-0.9158,-0.9089,-0.9208,0.0,-1.2463,0.0,-1.6267,-1.8746,-2.2125,-2.306,-2.4008,-2.5661,-2.6132,0.0,-2.6386,-2.6279,-2.6039,-2.5638,-2.5491,-2.5291,-2.4997,-2.4756,-2.4663,-2.473,-2.5184,-2.5344,-2.517,-2.5398,-2.5398,-2.517,-2.4943,-2.4783,-2.473,-2.4796,-2.5077,-2.5518,-2.5661,-2.6216,-2.7032,-2.7189,-2.7661,-2.8289,-2.8353,-2.8588,-2.8886,-2.8886,-2.8739,-2.8534,-2.8534,-2.9291,-3.0511,-3.1834,-3.3056,-3.4297,-3.5692,-3.623,-3.6289,-3.6289,-3.6289,-3.6269,-3.6191,-3.6152,-3.6133,-3.6035,-3.5762,-3.5527,-3.5527,-3.5234,-3.4961,-3.4863,-3.4844,-3.4707,-3.4277,-3.4219,-3.4062,-3.3633,-3.3555,-3.3418,-3.2988,-3.293,-3.3066,-3.3379,-3.334,-3.332,-3.3418,-3.3418,-3.3418,-3.3481,-3.3418,-3.3481,-3.3607,-3.323,-3.3178,-3.355,-3.3497,-3.3639,-3.3881,-3.4242,-3.4362,-3.4362,-3.4362,-3.4362,-1.4152,-1.4284,-1.4322,-1.409,-1.384,-1.3368,-1.2109,0.0,0.0,-1.013,-0.9935,-1.0105,-1.1165,0.0,0.0,0.0,0.0,-1.9176,-2.1376,-2.2859,-2.4088,-2.505,0.0,0.0,-2.6386,-2.5905,-2.5678,-2.5905,-2.5424,-2.4983,-2.469,-2.4649,-2.4756,-2.5037,-2.509,-2.5237,-2.5464,-2.5504,-2.5504,-2.5478,-2.5438,-2.5291,-2.505,-2.5317,-2.5464,-2.5531,-2.6185,-2.6731,-2.7032,-2.7819,-2.8211,-2.8368,-2.8666,-2.8886,-2.8886,-2.8886,-2.8871,-2.8842,-2.8842,-2.9624,-3.0926,-3.2507,-3.3795,-3.5002,-3.6302,-3.6875,-3.7187,-3.7187,-3.7187,-3.709,-3.6719,-3.6621,-3.6504,-3.6113,-3.5996,-3.5957,-3.5957,-3.5937,-3.5781,-3.541,-3.5332,-3.5176,-3.4726,-3.4648,-3.4492,-3.4082,-3.4023,-3.3848,-3.3418,-3.3359,-3.3379,-3.3418,-3.3086,-3.3008,-3.3379,-3.3418,-3.3544,-3.3859,-3.3544,-3.367,-3.4298,-3.4007,-3.3988,-3.43,-3.4571,-3.4737,-3.4799,-3.5108,-3.5293,-3.5293,-3.5293,-3.5293,-1.401,-1.4205,-1.4213,-1.4252,-1.3961,-1.3344,-1.219,0.0,-1.018,-0.9503,-0.9651,-1.0057,-1.0484,-1.2048,0.0,0.0,0.0,0.0,-1.9426,-2.0521,-2.1844,-2.3794,-2.4796,-2.5611,-2.6319,-2.6026,-2.5678,-2.5451,-2.505,-2.4756,-2.4649,-2.4636,-2.469,-2.481,-2.4983,-2.513,-2.5251,-2.5251,-2.5251,-2.5251,-2.5077,-2.5024,-2.5077,-2.5197,-2.5451,-2.5862,-2.6371,-2.69,-2.7412,-2.804,-2.8431,-2.8666,-2.8808,-2.8886,-2.8886,-2.8886,-2.8886,-2.8886,-2.8886,-2.9186,-3.0038,-3.2376,-3.3609,-3.4533,-3.645,-3.7168,-3.7305,-3.7305,-3.7305,-3.7266,-3.709,-3.6855,-3.6621,-3.6445,-3.6211,-3.6016,-3.6016,-3.6016,-3.5976,-3.5801,-3.5762,-3.5625,-3.5195,-3.5117,-3.4961,-3.4512,-3.4453,-3.4394,-3.4219,-3.3965,-3.3809,-3.3809,-3.3437,-3.3242,-3.3418,-3.3418,-3.3544,-3.3859,-3.3607,-3.367,-3.436,-3.411,-3.4173,-3.4673,-3.4859,-3.4984,-3.517,-3.5356,-3.5418,-3.5418,-3.5418,-3.5418,-1.3924,-1.4208,-1.4286,-1.4489,-1.397,-1.3197,0.0,-1.1045,-1.0135,-0.9629,-0.9957,-1.0463,-1.1025,-1.2438,-1.3698,0.0,0.0,0.0,-1.8237,-1.9225,-2.0548,-2.2672,-2.3714,-2.4636,-2.5651,-2.5718,-2.5491,-2.4983,-2.4756,-2.4636,-2.4636,-2.4636,-2.4636,-2.4636,-2.4836,-2.4957,-2.4957,-2.4957,-2.4997,-2.5077,-2.4863,-2.4917,-2.5211,-2.5304,-2.5648,-2.6192,-2.6676,-2.7217,-2.7883,-2.8275,-2.8666,-2.8886,-2.8744,-2.8808,-2.8886,-2.8744,-2.8808,-2.8886,-2.8886,-2.8886,-2.9386,-3.2316,-3.3453,-3.4174,-3.688,-3.7676,-3.7676,-3.7676,-3.75,-3.7324,-3.7461,-3.709,-3.6699,-3.6816,-3.6621,-3.6367,-3.623,-3.6211,-3.6172,-3.6035,-3.6016,-3.5937,-3.5625,-3.5586,-3.543,-3.4961,-3.4902,-3.4863,-3.4726,-3.4434,-3.4258,-3.4258,-3.3984,-3.3691,-3.3437,-3.3418,-3.3544,-3.3859,-3.367,-3.3859,-3.4548,-3.4298,-3.4485,-3.5046,-3.5046,-3.517,-3.5418,-3.5418,-3.5418,-3.5418,-3.5418,-3.5418,-1.4148,-1.457,-1.4708,-1.4708,-1.3896,-1.2816,0.0,-1.0664,-1.0175,-1.1089,-1.1284,-1.1843,-1.3701,-1.4279,-1.4616,0.0,0.0,0.0,-1.8317,-1.9746,-2.1002,0.0,-2.2792,-2.3581,-2.4168,-2.4756,-2.497,-2.4663,-2.4636,-2.4636,-2.4636,-2.4636,-2.4636,-2.4636,-2.4562,-2.4636,-2.4636,-2.4636,-2.4783,-2.5077,-2.5077,-2.5224,-2.5518,-2.5812,-2.6192,-2.6607,-2.7273,-2.7869,-2.8289,-2.8744,-2.8886,-2.8886,-2.8431,-2.851,-2.8808,-2.8431,-2.8588,-2.8886,-2.8886,-2.8886,-2.9416,-3.2674,-3.3734,-3.4336,-3.7585,-3.8555,-3.8555,-3.8555,-3.7949,-3.7402,-3.7812,-3.7305,-3.6777,-3.7187,-3.7285,-3.7168,-3.6758,-3.666,-3.6543,-3.6094,-3.6016,-3.6016,-3.6016,-3.6016,-3.5879,-3.5449,-3.5391,-3.5215,-3.4766,-3.4687,-3.4687,-3.4687,-3.4687,-3.4336,-3.3496,-3.3418,-3.3544,-3.3859,-3.3922,-3.4173,-3.4859,-3.4859,-3.5046,-3.5356,-3.5418,-3.5418,-3.5418,-3.5418,-3.5418,-3.5418,-3.5418,-3.5418,-1.362,-1.3544,-1.3417,-1.4014,-1.3195,-1.1947,-1.0988,-1.0314,-0.9978,-1.0292,-1.0852,-1.1671,-1.2924,-1.3724,-1.4509,-1.5404,0.0,0.0,0.0,0.0,0.0,-2.1601,-2.3541,-2.489,-2.5077,-2.509,-2.4957,-2.4663,-2.4636,-2.4636,-2.4636,-2.4636,-2.4636,-2.4636,-2.4636,-2.4636,-2.4636,-2.4836,-2.489,-2.4783,-2.4983,-2.513,-2.5224,-2.5518,-2.6003,-2.6671,-2.7273,-2.7883,-2.8368,-2.8744,-2.8886,-2.8886,-2.8744,-2.8822,-2.8886,-2.8744,-2.8808,-2.8886,-2.8886,-2.8886,-2.9275,-3.1408,-3.2766,-3.4111,-3.6312,-3.7751,-3.8574,-3.8574,-3.8379,-3.8203,-3.834,-3.7949,-3.7559,-3.7695,-3.75,-3.7266,-3.7129,-3.709,-3.7051,-3.6914,-3.666,-3.6465,-3.6465,-3.6211,-3.5976,-3.584,-3.582,-3.5762,-3.5625,-3.5351,-3.5176,-3.5176,-3.4883,-3.459,-3.4316,-3.4297,-3.4556,-3.5156,-3.4664,-3.4759,-3.5705,-3.521,-3.5046,-3.5418,-3.5418,-3.5418,-3.5418,-3.5418,-3.5418,-3.5418,-3.5418,-3.5418,0.0,-1.3446,-1.3087,-1.3643,-1.2665,-1.1354,-1.0526,-0.9998,-0.9858,-1.0342,-1.0895,-1.1714,-1.3009,-1.3779,-1.4482,-1.5172,0.0,0.0,0.0,0.0,-1.9947,-2.1523,-2.3474,-2.473,-2.485,-2.489,-2.4836,-2.4649,-2.4636,-2.4636,-2.4636,-2.4636,-2.469,-2.4796,-2.4796,-2.4796,-2.4796,-2.4983,-2.4983,-2.481,-2.4877,-2.497,-2.509,-2.5384,-2.5986,-2.6813,-2.7304,-2.7777,0.0,-2.8647,-2.871,-2.8647,-2.8452,-2.8573,-2.8886,-2.8495,-2.8651,-2.8886,-2.8886,-2.8886,-2.9197,-3.0809,-3.2386,-3.4035,-3.57,-3.7291,-3.8574,-3.8574,-3.8457,-3.8359,-3.8535,-3.8242,-3.793,-3.793,-3.7734,-3.7441,-3.7129,-3.7051,-3.7012,-3.6836,-3.6601,-3.6426,-3.6426,-3.6328,-3.6211,-3.6035,-3.6152,-3.6211,-3.6035,-3.5801,-3.5625,-3.5625,-3.5371,-3.5195,-3.5195,-3.4883,-3.4969,-3.5556,-3.5251,-3.5413,-3.6115,-3.5848,-3.5684,-3.5935,-3.5935,-3.5935,-3.5935,-3.5769,-3.5583,-3.5418,-3.5418,-3.5418,0.0,-1.3869,-1.3416,-1.3449,-1.2264,-1.0907,-1.0277,-0.9739,0.0,-1.103,-1.1284,-1.1897,-1.3796,-1.4335,-1.4536,-1.4656,-1.5591,0.0,0.0,-1.8653,-2.0241,-2.1991,-2.2939,-2.3567,-2.3861,-2.4342,-2.4636,-2.4636,-2.4636,-2.4636,-2.4636,-2.4636,-2.477,-2.5064,-2.5077,-2.509,-2.5104,-2.5117,-2.5104,-2.5077,-2.4796,-2.4796,-2.5064,-2.5344,-2.6099,-2.7144,-2.7172,-2.7663,-2.8399,-2.8399,-2.8399,-2.8351,-2.7848,-2.8104,-2.873,-2.7947,-2.8182,-2.8886,-2.8886,-2.8886,-2.9197,-3.0809,-3.2386,-3.4035,-3.57,-3.7217,-3.8428,-3.8574,-3.8281,-3.8066,-3.8476,-3.8281,-3.7969,-3.7969,-3.7969,-3.7754,-3.6973,-3.6797,-3.668,-3.6289,-3.6172,-3.6152,-3.6113,-3.6426,-3.6523,-3.6094,-3.6367,-3.6484,-3.6113,-3.6074,-3.6074,-3.6074,-3.6074,-3.6055,-3.6016,-3.5273,-3.5002,-3.5395,-3.5701,-3.6006,-3.6395,-3.6632,-3.6804,-3.6804,-3.6804,-3.6804,-3.6804,-3.637,-3.5935,-3.5521,-3.5521,-3.5521,-1.3181,0.0,-1.1714,-1.2233,-1.107,-0.9681,0.0,-0.9145,0.0,0.0,0.0,0.0,-1.4361,-1.4442,-1.4629,-1.5979,-1.642,-1.6967,-1.8023,-2.0214,-2.2365,-2.4142,-2.4543,-2.4783,-2.5077,-2.4823,-2.4636,-2.4636,-2.4636,-2.4636,-2.4636,-2.4636,-2.477,-2.5064,-2.5077,-2.5184,-2.5411,-2.5411,-2.5304,-2.5077,-2.501,-2.489,-2.4756,-2.505,-2.5648,-2.6391,-2.6933,-2.7636,-2.8331,-2.8331,-2.8331,-2.8267,-2.7762,-2.7947,-2.8431,-2.8197,-2.8431,-2.8886,-2.8886,-2.8886,-2.9197,-3.0809,-3.2386,-3.4035,-3.57,-3.646,-3.6996,-3.8263,-3.8496,-3.8437,-3.8555,-3.8496,-3.8418,-3.8418,-3.8418,-3.8359,-3.8164,-3.8125,-3.8105,-3.7988,-3.7695,-3.7383,-3.7051,-3.6816,-3.6523,-3.6094,-3.6113,-3.625,-3.6484,-3.6523,-3.6523,-3.6523,-3.6523,-3.6387,-3.6055,-3.582,-3.5973,-3.6643,-3.6389,-3.6517,-3.7192,-3.6926,-3.6804,-3.6804,-3.6804,-3.6804,-3.6804,-3.6701,-3.6577,-3.6473,-3.6473,-3.6473,-1.2264,-1.1614,-1.1029,-1.1412,-1.0452,-0.9331,0.0,0.0,0.0,0.0,0.0,0.0,0.0,0.0,0.0,-1.5925,-1.6553,-1.7555,-1.9426,-2.139,-2.318,-2.4703,-2.4997,-2.5144,-2.5304,-2.4903,-2.4636,-2.4636,-2.4636,-2.4636,-2.4636,-2.4636,-2.4836,-2.5264,-2.5144,-2.5224,-2.5504,-2.5384,-2.5237,-2.5077,-2.5077,-2.493,-2.4649,-2.5224,-2.572,-2.6142,-2.6892,-2.7516,-2.806,-2.8072,-2.8255,-2.8308,-2.7827,-2.8068,-2.8588,-2.8368,-2.8588,-2.8886,-2.8886,-2.8886,-2.9197,-3.0809,-3.1408,-3.2081,-3.5253,-3.5644,-3.5551,-3.7897,-3.8574,-3.8574,-3.8574,-3.8574,-3.8516,-3.832,-3.8281,-3.8223,-3.8027,-3.7988,-3.7988,-3.7988,-3.7793,-3.7559,-3.7344,-3.7266,-3.7109,-3.668,-3.6777,-3.6914,-3.6953,-3.6797,-3.668,-3.668,-3.668,-3.6484,-3.6055,-3.6348,-3.6708,-3.7099,-3.6991,-3.7182,-3.7819,-3.757,-3.7446,-3.7446,-3.7446,-3.7343,-3.7115,-3.7115,-3.7011,-3.6804,-3.6804,-3.6804,-1.163,-1.1085,-1.0705,-1.0764,-1.0009,-0.9273,0.0,0.0,0.0,0.0,0.0,0.0,0.0,-1.4897,0.0,0.0,-1.6754,-1.8506,-2.1015,-2.2271,-2.3367,-2.4556,-2.493,-2.5104,-2.5144,-2.4877,-2.4703,-2.4703,-2.4703,-2.469,-2.4562,-2.4636,-2.489,-2.5424,-2.517,-2.5157,-2.5451,-2.5197,-2.5077,-2.5077,-2.5037,-2.4903,-2.473,-2.5438,-2.5922,-2.6134,-2.6787,0.0,-2.7634,-2.7802,-2.7998,-2.8202,-2.7783,-2.8109,-2.8744,-2.8431,-2.8588,-2.8886,-2.8886,-2.8886,-2.9197,-3.0809,-3.0577,-3.0485,-3.4879,-3.5402,-3.5028,-3.7824,-3.8574,-3.8574,-3.8574,-3.8574,-3.8476,-3.8105,-3.8027,-3.793,-3.7578,-3.7571,-3.7571,-3.7571,-3.7642,-3.7622,-3.7473,-3.7838,-3.7916,-3.7363,-3.7669,-3.7806,-3.7441,-3.709,-3.6855,-3.6855,-3.6945,-3.6768,-3.6318,-3.7045,-3.7408,-3.7287,-3.7455,-3.777,-3.8191,-3.8191,-3.8191,-3.8191,-3.8191,-3.7984,-3.7612,-3.7612,-3.7405,-3.7011,-3.7011,-3.7011,-1.1911,-1.0924,-0.9824,-0.9993,-0.9463,-0.9034,0.0,0.0,0.0,0.0,0.0,0.0,0.0,-1.5498,-1.6032,-1.7074,-1.845,-2.0147,-2.2285,-2.2979,-2.3688,-2.4877,-2.505,-2.5184,-2.5424,-2.5184,-2.501,-2.501,-2.501,-2.4903,-2.4649,-2.4636,-2.4796,-2.513,-2.4863,-2.485,-2.5144,-2.5104,-2.5077,-2.5077,-2.4823,-2.481,-2.501,-2.489,-2.5224,-2.6034,0.0,-2.6794,-2.6826,-2.7409,-2.7523,-2.7368,-2.7167,-2.7605,-2.8368,-2.8289,-2.8588,-2.8886,-2.8886,-2.8886,-2.9197,-3.0809,-3.2081,-3.3356,-3.5551,-3.6996,-3.797,-3.8428,-3.8574,-3.8574,-3.8574,-3.8574,-3.8555,-3.8496,-3.8476,-3.8457,-3.8398,-3.8688,-3.8905,-3.8905,-3.9174,-3.9106,-3.841,-3.8675,-3.8556,-3.7434,-3.7645,-3.7873,-3.7793,-3.7773,-3.7734,-3.7734,-3.8019,-3.8074,-3.7639,-3.8286,-3.8539,-3.816,-3.7773,-3.777,-3.8191,-3.8191,-3.8191,-3.8191,-3.8191,-3.815,-3.8088,-3.8088,-3.8046,-3.7964,-3.7964,-3.7964,-1.0955,-1.0147,-0.9521,-1.0426,-1.0584,-1.0527,0.0,0.0,0.0,0.0,0.0,0.0,0.0,0.0,-1.7315,-1.8985,-2.0094,-2.1296,-2.2886,-2.3647,-2.4302,-2.4997,-2.5224,-2.5304,-2.5277,-2.5157,-2.5077,-2.5077,-2.5224,-2.5251,-2.5117,-2.4957,-2.501,-2.5304,-2.4877,-2.4783,-2.5077,-2.4917,-2.4836,-2.4836,-2.4863,-2.4943,-2.509,-2.5264,-2.5725,-2.6347,0.0,-2.7311,-2.7529,-2.7643,-2.7876,-2.8046,-2.7643,-2.8429,-3.0036,-3.087,-3.0253,-2.9042,-2.9881,-2.9664,-2.9353,-3.1775,-3.2538,-3.307,-3.646,-3.7438,-3.7438,-3.8355,-3.8574,-3.8574,-3.8574,-3.8574,-3.8574,-3.8574,-3.8574,-3.8647,-3.8885,-3.9103,-3.9248,-3.9445,-3.957,-3.951,-3.897,-3.9022,-3.8942,-3.8386,-3.8295,-3.8354,-3.855,-3.821,-3.793,-3.793,-3.8287,-3.8343,-3.7907,-3.8788,-3.9114,-3.8623,-3.815,-3.7971,-3.8191,-3.8191,-3.8191,-3.8191,-3.8191,-3.8191,-3.8191,-3.8191,-3.8191,-3.8191,-3.8191,-3.8191,-1.0998,-1.0159,-0.9806,0.0,0.0,0.0,-1.2312,0.0,0.0,0.0,0.0,0.0,0.0,-1.7408,-1.8704,-2.0575,-2.1494,-2.2245,-2.338,-2.4168,-2.4743,-2.5037,-2.5331,-2.5451,-2.5304,-2.5291,-2.5291,-2.5291,-2.5424,-2.5478,-2.5411,-2.513,-2.5077,-2.5304,-2.4863,-2.4743,-2.497,-2.4756,-2.4636,-2.4562,-2.4863,-2.505,-2.5197,-2.5571,-2.6098,-2.669,-2.7309,-2.7692,-2.799,-2.7748,-2.824,-2.9127,-2.8491,-2.9732,-3.2004,-3.3222,-3.1928,-2.9649,-3.0886,-3.05,-2.9959,-3.2766,-3.3146,-3.3222,-3.7364,-3.7751,-3.6996,-3.8263,-3.8574,-3.8574,-3.8574,-3.8574,-3.8574,-3.8574,-3.8574,-3.872,-3.9103,-3.9248,-3.9445,-3.9786,-3.993,-3.9858,-3.9538,-3.9465,-3.9393,-3.9248,-3.8958,-3.8793,-3.903,-3.859,-3.823,-3.823,-3.866,-3.8826,-3.8628,-3.9303,-3.9561,-3.9137,-3.875,-3.8502,-3.8502,-3.8502,-3.8502,-3.8502,-3.8502,-3.8502,-3.8502,-3.8502,-3.8502,-3.8502,-3.8502,-3.8502,-1.3496,-1.2072,-1.081,-1.2024,0.0,0.0,-1.4745,0.0,0.0,0.0,0.0,0.0,0.0,-1.8664,-2.004,-2.136,-2.2271,-2.3086,-2.4008,-2.4422,-2.4743,-2.5037,-2.5331,-2.5611,-2.5943,-2.597,-2.597,-2.597,-2.5651,-2.5398,-2.513,-2.4823,-2.4676,-2.4629,-2.4589,-2.4649,-2.4676,-2.4649,-2.4636,-2.4636,-2.4589,-2.4957,-2.5478,-2.5251,-2.5815,-2.6977,-2.717,-2.7214,-2.7291,-2.7263,-2.8403,-3.0157,-2.9655,-3.1134,-3.3507,-3.3658,-3.2614,-3.1101,-3.1255,-3.1255,-3.1408,-3.3146,-3.4654,-3.6164,-3.8044,-3.8501,-3.8428,-3.8574,-3.8574,-3.8574,-3.8574,-3.8574,-3.8574,-3.8574,-3.8574,-3.872,-3.9103,-3.9445,-3.9786,-4.0166,-4.0596,-4.0668,-4.031,-4.0238,-3.9971,-3.9321,-3.9176,-3.903,-3.872,-3.8918,-3.9136,-3.9136,-3.9766,-4.032,-4.0636,-4.0377,-4.0108,-4.0096,-3.9682,-3.9433,-3.9433,-3.9433,-3.9433,-3.9433,-3.9433,-3.9433,-3.9433,-3.9433,-3.9433,-3.9433,-3.9433,-3.9433,-1.3084,-1.2481,-1.2104,-1.3394,0.0,0.0,0.0,0.0,0.0,-1.8968,-1.9225,0.0,0.0,-1.9987,-2.0935,-2.1924,-2.2846,-2.3674,-2.4369,-2.473,-2.489,-2.481,-2.5064,-2.5211,-2.5144,-2.5304,-2.5411,-2.5411,-2.5478,-2.5464,-2.5358,-2.5064,-2.4917,-2.4917,-2.473,-2.4636,-2.4636,-2.4636,-2.4636,-2.4562,-2.4823,-2.513,-2.5504,-2.5398,-2.6117,-2.7384,-2.7234,-2.7494,-2.7971,-2.7648,-2.8771,-3.0823,-3.2901,-3.3672,-3.396,-3.5997,-3.4429,-3.1408,-3.2462,-3.1469,-3.0036,-3.1699,-3.3297,-3.4954,-3.6608,-3.7824,-3.8574,-3.8574,-3.8574,-3.8574,-3.8574,-3.8574,-3.8647,-3.8865,-3.8958,-3.9176,-3.9734,-3.995,-4.0166,-4.0596,-4.0811,-4.074,-4.0382,-4.031,-4.0166,-3.9971,-3.9662,-3.959,-3.9662,-3.959,-3.9518,-3.9518,-3.995,-4.0453,-4.0882,-4.0737,-4.0634,-4.0613,-3.993,-3.9468,-3.9468,-3.9468,-3.9468,-3.9468,-3.9468,-3.9468,-3.9468,-3.9468,-3.9468,-3.9468,-3.9468,-3.9468,-1.3311,-1.301,-1.3135,0.0,0.0,0.0,0.0,0.0,0.0,0.0,-2.0708,-2.0508,-2.0508,-2.0842,-2.1403,-2.2271,-2.318,-2.3968,-2.4556,-2.489,-2.501,-2.4796,-2.5037,-2.513,-2.493,-2.5104,-2.5224,-2.5224,-2.5317,-2.5371,-2.5371,-2.5104,-2.4943,-2.4943,-2.4743,-2.4636,-2.4636,-2.4636,-2.4636,-2.4562,-2.4943,-2.5313,-2.5671,-2.5671,-2.6443,-2.779,-2.7657,-2.7903,-2.8432,-2.8377,-2.982,-3.2308,-3.5649,-3.5941,-3.4804,-3.7585,-3.5476,-3.1561,-3.3146,-3.1928,-2.9804,-3.0947,-3.2766,-3.4729,-3.5867,-3.7291,-3.8613,-3.873,-3.8769,-3.8809,-3.8945,-3.8789,-3.872,-3.9103,-3.9176,-3.9393,-4.0166,-4.031,-4.0382,-4.0811,-4.0882,-4.0811,-4.0525,-4.0382,-4.0371,-4.0514,-4.0031,-3.9847,-4.0277,-4.0104,-3.993,-4.0074,-4.031,-4.0596,-4.0882,-4.0882,-4.0882,-4.0882,-4.0303,-3.9951,-3.9951,-3.9951,-3.9951,-3.9951,-3.9951,-3.9951,-3.9951,-3.9951,-3.9951,-3.9951,-3.9951,-3.9902,-1.4669,-1.3958,0.0,0.0,0.0,0.0,0.0,0.0,0.0,0.0,-2.1737,-2.1122,-2.1122,-2.1122,-2.1416,-2.2285,-2.318,-2.3981,-2.4556,-2.489,-2.5077,-2.5077,-2.5331,-2.5504,-2.5504,-2.5504,-2.5504,-2.5504,-2.5237,-2.5077,-2.5077,-2.4796,-2.4636,-2.4636,-2.4636,-2.4636,-2.4636,-2.4636,-2.4636,-2.4562,-2.493,-2.5451,-2.6129,-2.6129,-2.692,-2.8275,-2.8275,-2.8336,-2.8479,-2.9319,-3.1579,-3.4793,-3.7552,-3.7604,-3.6386,-3.797,-3.5476,-3.1561,-3.3146,-3.2614,-3.1255,-3.1255,-3.3524,-3.6164,-3.6164,-3.7291,-3.8672,-3.9082,-3.9199,-3.9316,-3.9766,-3.9238,-3.8739,-3.9123,-3.9195,-3.9413,-4.0187,-4.033,-4.0474,-4.0811,-4.0882,-4.0882,-4.0882,-4.0617,-4.0473,-4.0943,-4.0306,-3.9895,-4.0338,-4.0379,-4.0474,-4.0882,-4.0882,-4.0882,-4.0882,-4.0882,-4.0882,-4.0882,-4.0882,-4.0882,-4.0882,-4.0882,-4.0882,-4.0882,-4.0882,-4.0882,-4.0882,-4.0882,-4.0882,-4.0882,-4.0882,-4.0668,-1.4079,-1.4445,0.0,0.0,0.0,0.0,0.0,0.0,0.0,0.0,-2.2993,-2.2539,-2.2111,-2.2378,-2.2686,-2.2726,-2.3487,-2.4209,-2.4583,-2.4716,-2.477,-2.477,-2.485,-2.489,-2.489,-2.489,-2.489,-2.489,-2.481,-2.477,-2.477,-2.469,-2.4636,-2.4636,-2.4636,-2.4636,-2.4636,-2.4636,-2.4636,-2.4636,-2.473,-2.5005,-2.5437,-2.5881,-2.6641,-2.7544,-2.764,-2.7932,-2.8571,-3.1146,-3.3228,-3.5099,-3.7643,-3.8282,-3.7824,-3.7144,-3.5253,-3.2918,-3.2233,-3.0947,-2.9571,-2.9571,-3.1775,-3.4429,-3.4429,-3.6571,-3.9043,-3.916,-3.9434,-3.9802,-4.0219,-4.0136,-4.0013,-4.0458,-4.0754,-4.1122,-4.1636,-4.1709,-4.1636,-4.1395,-4.1395,-4.1395,-4.1395,-4.1322,-4.1383,-4.1821,-4.1718,-4.1604,-4.1727,-4.1718,-4.1658,-4.14,-4.1358,-4.1234,-4.0903,-4.0882,-4.0882,-4.0882,-4.0882,-4.0882,-4.0882,-4.0882,-4.0882,-4.0882,-4.0882,-4.0882,-4.0882,-4.0882,-4.0882,-4.0882,-4.0882,-4.0668,-1.4546,0.0,0.0,0.0,0.0,0.0,0.0,0.0,0.0,0.0,-2.3688,-2.3247,-2.3006,-2.306,-2.3166,-2.322,-2.3781,-2.4302,-2.4596,-2.4636,-2.4636,-2.4636,-2.4636,-2.4636,-2.4636,-2.4636,-2.4636,-2.4636,-2.4636,-2.4636,-2.4636,-2.4636,-2.4636,-2.4636,-2.4636,-2.4636,-2.4636,-2.4636,-2.4636,-2.4636,-2.4636,-2.4804,-2.5141,-2.6013,-2.6829,-2.7711,-2.8426,-2.9351,-3.0445,-3.3112,-3.4975,-3.6346,-3.7919,-3.7824,-3.6608,-3.6312,-3.4354,-3.1775,-3.1408,-3.0655,-2.9881,-2.9881,-3.2081,-3.4729,-3.4729,-3.6812,-3.9238,-3.9434,-3.9935,-4.0479,-4.0864,-4.1227,-4.1429,-4.1366,-4.1529,-4.1826,-4.2195,-4.2322,-4.2175,-4.1657,-4.1583,-4.1583,-4.136,-4.136,-4.157,-4.22,-4.2443,-4.2456,-4.2364,-4.2322,-4.2219,-4.1949,-4.1908,-4.1731,-4.1441,-4.1421,-4.1421,-4.1421,-4.1421,-4.1421,-4.1421,-4.1069,-4.0882,-4.0882,-4.0882,-4.0882,-4.0882,-4.0882,-4.0882,-4.0882,-4.0882,-4.0596,0.0,0.0,0.0,0.0,0.0,0.0,0.0,-2.3581,-2.3941,-2.4516,0.0,-2.3527,-2.3768,-2.338,-2.3193,-2.3728,-2.4048,-2.4329,-2.4596,-2.4636,-2.4636,-2.4636,-2.4636,-2.4636,-2.4636,-2.4636,-2.4636,-2.4636,-2.4636,-2.4636,-2.4636,-2.4636,-2.4636,-2.4636,-2.4636,-2.4636,-2.4636,-2.4636,-2.4636,-2.4636,-2.4636,-2.4857,-2.5327,-2.6293,-2.7364,-2.8509,-2.9945,-3.156,-3.3209,-3.4809,-3.645,-3.7969,-3.8359,-3.6719,-3.4261,-3.5551,-3.3281,-2.9726,-3.087,-3.1408,-3.1485,-3.1485,-3.3676,-3.6238,-3.6201,-3.7631,-3.9355,-3.9899,-4.0558,-4.1257,-4.1751,-4.2467,-4.28,-4.2004,-4.18,-4.1949,-4.2299,-4.2299,-4.2151,-4.1705,-4.1631,-4.1481,-4.1128,-4.1108,-4.1399,-4.2255,-4.2768,-4.2828,-4.2435,-4.2447,-4.2426,-4.2331,-4.2311,-4.2364,-4.2343,-4.2322,-4.2322,-4.2322,-4.2322,-4.2322,-4.2322,-4.14,-4.0944,-4.0944,-4.0903,-4.0882,-4.0882,-4.0882,-4.0882,-4.0882,-4.0882,-4.0433,0.0,0.0,0.0,0.0,0.0,0.0,0.0,-2.3728,-2.3941,-2.4516,-2.4489,-2.4302,-2.4142,-2.4182,-2.4222,-2.4128,-2.4356,-2.4569,-2.4549,-2.4636,-2.4636,-2.4636,-2.4636,-2.4636,-2.4636,-2.4636,-2.4636,-2.4636,-2.4636,-2.4636,-2.4636,-2.4636,-2.4636,-2.4636,-2.4636,-2.4636,-2.4636,-2.4636,-2.4636,-2.4636,-2.4931,-2.5299,-2.5681,-2.6444,-2.7364,-2.8447,-2.9067,-3.0599,-3.2775,-3.3362,-3.534,-3.793,-3.8027,-3.7827,-3.7291,-3.5028,-3.4429,-3.4278,-3.2097,-3.2173,-3.3222,-3.3222,-3.4579,-3.6219,-3.6606,-3.8085,-3.9899,-4.0633,-4.122,-4.1808,-4.2524,-4.2851,-4.2963,-4.2779,-4.2718,-4.2718,-4.2794,-4.2642,-4.2241,-4.1879,-4.1725,-4.1725,-4.1649,-4.1879,-4.2358,-4.3221,-4.3394,-4.3428,-4.3325,-4.3325,-4.318,-4.2828,-4.2766,-4.2642,-4.2364,-4.2322,-4.2322,-4.2322,-4.2322,-4.2322,-4.2322,-4.171,-4.1421,-4.1421,-4.1069,-4.0882,-4.0882,-4.0882,-4.0882,-4.0882,-4.0596,-4.0166,0.0,0.0,0.0,0.0,0.0,0.0,0.0,-2.3661,-2.3861,-2.4155,-2.4436,-2.4596,-2.4436,-2.4529,-2.4583,-2.4436,-2.4543,-2.4636,-2.4636,-2.4636,-2.4636,-2.4636,-2.4636,-2.4636,-2.4636,-2.4636,-2.4636,-2.4636,-2.4636,-2.4636,-2.4636,-2.4636,-2.4636,-2.4636,-2.4636,-2.4636,-2.4636,-2.4636,-2.4636,-2.4636,-2.5005,-2.5603,-2.6333,-2.704,-2.7745,-2.8523,-3.0346,-3.1847,-3.2986,-3.4664,-3.6265,-3.7566,-3.6971,-3.6436,-3.5741,-3.4284,-3.3751,-3.3751,-3.2766,-3.3524,-3.4879,-3.4879,-3.6015,-3.744,-3.7857,-3.8838,-4.0056,-4.0619,-4.1282,-4.1927,-4.2313,-4.2544,-4.2697,-4.2697,-4.2851,-4.2927,-4.2774,-4.2544,-4.2293,-4.185,-4.1773,-4.1773,-4.156,-4.2005,-4.26,-4.3233,-4.3462,-4.3615,-4.3615,-4.3615,-4.3511,-4.3284,-4.3263,-4.3159,-4.2932,-4.2911,-4.2911,-4.2911,-4.2911,-4.2911,-4.2911,-4.2456,-4.2124,-4.197,-4.1669,-4.1545,-4.1545,-4.1545,-4.1545,-4.1545,-4.1327,-4.1036,0.0,0.0,0.0,0.0,0.0,0.0,0.0,0.0,-2.3714,-2.3754,-2.4155,-2.4489,-2.4489,-2.4489,-2.4489,-2.4489,-2.4489,-2.4489,-2.4489,-2.4489,-2.4489,-2.4489,-2.4489,-2.4489,-2.4489,-2.4529,-2.4556,-2.4556,-2.4609,-2.4636,-2.4636,-2.4636,-2.4636,-2.4636,-2.4636,-2.4636,-2.4636,-2.4636,-2.4636,-2.4636,-2.5079,-2.588,-2.6949,-2.7565,-2.8081,-2.86,-3.1858,-3.3228,-3.3334,-3.623,-3.7313,-3.7183,-3.6206,-3.5048,-3.3979,-3.4064,-3.3449,-3.269,-3.3751,-3.5253,-3.6608,-3.6608,-3.7511,-3.8672,-3.916,-3.959,-4.0,-4.0565,-4.1264,-4.185,-4.1927,-4.2159,-4.237,-4.2293,-4.2544,-4.2697,-4.237,-4.2216,-4.2062,-4.1773,-4.1695,-4.1618,-4.1483,-4.2005,-4.2524,-4.3004,-4.3386,-4.3615,-4.3615,-4.3615,-4.3615,-4.3615,-4.3615,-4.3615,-4.3615,-4.3615,-4.3615,-4.3615,-4.3615,-4.3615,-4.3615,-4.3242,-4.287,-4.2497,-4.2405,-4.2322,-4.2322,-4.2322,-4.2322,-4.2322,-4.2269,-4.2048,0.0,0.0,0.0,0.0,0.0,0.0,0.0,0.0,-2.346,0.0,-2.3834,-2.3888,-2.3888,-2.3888,-2.3888,-2.3888,-2.3888,-2.3888,-2.3888,-2.3888,-2.3888,-2.3888,-2.3888,-2.3888,-2.3888,-2.4115,-2.4262,-2.4262,-2.4489,-2.4636,-2.4636,-2.4636,-2.4636,-2.4636,-2.4636,-2.4636,-2.4636,-2.4636,-2.4636,-2.4636,-2.5359,-2.6194,-2.6983,-2.7393,-2.7861,-2.8523,-3.0653,-3.2189,-3.3243,-3.4686,-3.61,-3.7305,-3.7132,-3.7151,-3.7158,-3.6239,-3.6608,-3.7438,-3.6312,-3.6922,-3.8282,-3.8282,-3.8428,-3.873,-3.9551,-3.9844,-4.0134,-4.1302,-4.1733,-4.185,-4.2216,-4.237,-4.2293,-4.2005,-4.1927,-4.1927,-4.1927,-4.1618,-4.1327,-4.1327,-4.125,-4.1463,-4.2139,-4.2293,-4.2677,-4.3386,-4.3539,-4.3615,-4.3615,-4.3615,-4.3615,-4.3615,-4.3615,-4.3615,-4.3615,-4.3615,-4.3615,-4.3615,-4.3615,-4.3615,-4.3615,-4.3553,-4.3491,-4.3428,-4.2663,-4.2322,-4.2322,-4.2322,-4.2322,-4.2269,-4.1974,-4.1751,0.0,0.0,0.0,0.0,0.0,0.0,0.0,0.0,-2.31,-2.3233,-2.333,-2.3367,-2.3714,-2.3768,-2.3768,-2.3768,-2.3768,-2.3768,-2.3768,-2.3768,-2.3768,-2.3768,-2.3768,-2.3768,-2.3768,-2.3888,-2.3968,-2.3968,-2.4222,-2.4396,-2.4396,-2.4556,-2.4636,-2.4636,-2.4636,-2.4636,-2.4636,-2.4636,-2.471,-2.4931,-2.5299,-2.5887,-2.6706,-2.7025,-2.749,-2.8259,-3.1189,-3.2043,-3.1696,-3.4017,-3.5123,-3.5191,-3.3839,-3.4487,-3.6115,-3.5168,-3.5849,-3.7291,-3.7438,-3.797,-3.8574,-3.8574,-3.873,-3.9043,-3.9707,-4.0059,-4.0371,-4.1228,-4.1463,-4.1483,-4.1695,-4.1695,-4.1695,-4.1483,-4.1463,-4.1463,-4.1463,-4.1327,-4.1172,-4.1172,-4.1172,-4.1405,-4.2005,-4.2216,-4.26,-4.3157,-4.3462,-4.3615,-4.3615,-4.3615,-4.3615,-4.3615,-4.3615,-4.3615,-4.3615,-4.3615,-4.3615,-4.3615,-4.3615,-4.3615,-4.3615,-4.3615,-4.3615,-4.3615,-4.3221,-4.3014,-4.3014,-4.3014,-4.3014,-4.3014,-4.2864,-4.2789,0.0,0.0,0.0,0.0,0.0,0.0,0.0,0.0,-2.2766,0.0,-2.2928,-2.3075,-2.346,-2.3541,-2.3541,-2.3541,-2.3541,-2.3541,-2.3541,-2.3541,-2.3541,-2.3541,-2.3541,-2.3541,-2.3541,-2.3607,-2.3661,-2.3661,-2.3928,-2.4102,-2.4102,-2.4302,-2.4422,-2.4422,-2.4422,-2.4422,-2.4422,-2.4489,-2.4716,-2.5226,-2.5226,-2.5593,-2.6399,-2.6643,-2.7196,-2.8115,-3.1248,-3.1721,-3.0447,-3.3203,-3.4177,-3.3772,-3.2091,-3.3127,-3.5571,-3.515,-3.57,-3.6996,-3.819,-3.8574,-3.8594,-3.8691,-3.8945,-3.9316,-3.9883,-4.0273,-4.0605,-4.1055,-4.1172,-4.1172,-4.1172,-4.1172,-4.1172,-4.1172,-4.1172,-4.1172,-4.1172,-4.1172,-4.1172,-4.1172,-4.1172,-4.1327,-4.185,-4.2216,-4.26,-4.3081,-4.3386,-4.3615,-4.3615,-4.3615,-4.3615,-4.3615,-4.3615,-4.3615,-4.3615,-4.3615,-4.3615,-4.3615,-4.3615,-4.3615,-4.3615,-4.3615,-4.3615,-4.3615,-4.3615,-4.3615,-4.3615,-4.3615,-4.3615,-4.3615,-4.3615,-4.3615,0.0,0.0,0.0,0.0,0.0,0.0,0.0,0.0,-2.2525,-2.2806,-2.2928,-2.2941,-2.2968,-2.2981,-2.2981,-2.2981,-2.2981,-2.2981,-2.2981,-2.2981,-2.2981,-2.2981,-2.2981,-2.2981,-2.2981,-2.318,-2.3354,-2.3354,-2.3621,-2.3794,-2.3794,-2.3808,-2.3808,-2.3808,-2.3808,-2.3808,-2.3808,-2.4088,-2.4588,-2.5226,-2.5226,-2.5593,-2.6399,-2.6414,-2.698,-2.8039,-3.0062,-3.0691,-3.0299,-3.2053,-3.3409,-3.4367,-3.4646,-3.5984,-3.7806,-3.818,-3.8428,-3.8501,-3.8574,-3.8574,-3.8633,-3.9043,-3.918,-3.9355,-4.0234,-4.0508,-4.0605,-4.1055,-4.1172,-4.1172,-4.1172,-4.1172,-4.1172,-4.1172,-4.1172,-4.1172,-4.1172,-4.1172,-4.1172,-4.1172,-4.1172,-4.1483,-4.2216,-4.237,-4.2677,-4.3462,-4.3615,-4.3615,-4.3615,-4.3615,-4.3615,-4.3615,-4.3615,-4.3615,-4.3615,-4.3615,-4.3615,-4.3615,-4.3615,-4.3615,-4.3615,-4.3615,-4.3615,-4.3615,-4.3615,-4.3615,-4.3615,-4.3615,-4.3615,-4.3615,-4.3615,-4.3615,0.0,0.0,0.0,0.0,0.0,0.0,0.0,-2.1243,-2.1951,-2.2231,-2.2445,-2.2632,-2.2887,-2.2928,-2.2928,-2.2928,-2.2928,-2.2928,-2.2928,-2.2928,-2.2928,-2.2928,-2.2928,-2.2928,-2.2928,-2.2966,-2.3033,-2.3033,-2.3313,-2.3487,-2.3487,-2.3661,-2.3768,-2.3768,-2.3768,-2.3861,-2.4048,-2.4155,-2.4428,-2.4784,-2.5079,-2.552,-2.6019,-2.6239,-2.6965,-2.7949,-2.8432,-2.8672,-2.8882,-3.1274,-3.2535,-3.2877,-3.2266,-3.4468,-3.7825,-3.7286,-3.7751,-3.8574,-3.8574,-3.875,-3.8837,-3.7858,-3.7877,-3.821,-3.7499,-3.8163,-3.9343,-3.9494,-4.0353,-4.1172,-4.1172,-4.1172,-4.1172,-4.1172,-4.1172,-4.1172,-4.1172,-4.1172,-4.1172,-4.1172,-4.1172,-4.1327,-4.154,-4.2082,-4.2443,-4.2388,-4.3049,-4.3511,-4.3201,-4.3428,-4.3615,-4.3615,-4.3615,-4.3615,-4.3615,-4.3615,-4.3615,-4.3615,-4.3615,-4.3615,-4.3615,-4.3615,-4.3615,-4.3615,-4.3615,-4.3462,-4.3233,-4.3462,-4.3462,-4.3233,-4.3462,-4.3615,-1.2167,0.0,0.0,0.0,0.0,0.0,0.0,0.0,-2.1136,-2.1724,-2.2071,-2.2365,-2.2659,-2.2712,-2.2752,-2.2846,-2.2928,-2.2928,-2.2928,-2.2928,-2.2928,-2.2928,-2.2928,-2.2928,-2.2928,-2.2928,-2.2928,-2.2928,-2.306,-2.3166,-2.3166,-2.3354,-2.346,-2.346,-2.346,-2.3661,-2.4062,-2.4062,-2.4249,-2.4636,-2.5005,-2.5446,-2.58,-2.6239,-2.6965,-2.7934,-2.7999,-2.7985,-2.8071,-3.034,-3.1709,-3.2351,-3.2008,-3.4467,-3.802,-3.727,-3.7677,-3.8594,-3.873,-3.8577,-3.8177,-3.7309,-3.7058,-3.6884,-3.5901,-3.7002,-3.8645,-3.8645,-3.9864,-4.1172,-4.1172,-4.1172,-4.1211,-4.1348,-4.1387,-4.1426,-4.1562,-4.1367,-4.1211,-4.1348,-4.1387,-4.1504,-4.1817,-4.2365,-4.2789,-4.2604,-4.3423,-4.3967,-4.3656,-4.3884,-4.4008,-4.3863,-4.3842,-4.378,-4.3615,-4.3615,-4.3677,-4.3842,-4.3842,-4.3905,-4.407,-4.407,-4.4008,-4.3842,-4.3842,-4.3551,-4.3004,-4.3386,-4.3462,-4.3233,-4.3462,-4.3615,0.0,0.0,0.0,0.0,0.0,0.0,-1.9359,0.0,-2.004,-2.1306,-2.171,-2.2004,-2.2338,-2.2405,-2.2498,-2.2792,-2.2914,-2.2928,-2.2928,-2.2928,-2.2928,-2.2928,-2.2928,-2.2928,-2.2928,-2.2928,-2.2928,-2.2928,-2.2928,-2.2928,-2.2928,-2.2928,-2.2928,-2.2928,-2.2928,-2.3222,-2.3768,-2.3768,-2.4062,-2.4636,-2.5005,-2.5446,-2.58,-2.6239,-2.6951,-2.7905,-2.8753,-2.8627,-2.7981,-2.9183,-3.09,-3.2912,-3.4288,-3.6409,-3.8574,-3.8574,-3.8501,-3.856,-3.8989,-3.7989,-3.667,-3.7454,-3.6631,-3.5373,-3.5731,-3.7117,-3.8566,-3.8566,-3.9786,-4.1172,-4.1191,-4.1211,-4.1308,-4.1719,-4.1816,-4.1933,-4.2344,-4.1797,-4.1328,-4.1738,-4.1816,-4.2111,-4.2922,-4.3459,-4.3836,-4.4252,-4.4646,-4.4981,-4.4981,-4.4981,-4.4795,-4.4381,-4.4319,-4.4132,-4.3698,-4.3656,-4.3842,-4.4298,-4.4319,-4.4526,-4.4981,-4.5002,-4.4774,-4.4339,-4.4319,-4.388,-4.3045,-4.3407,-4.3615,-4.3615,-4.3615,-4.3615,-1.1503,0.0,0.0,0.0,0.0,0.0,0.0,0.0,-1.7769,-1.9658,-2.01,-2.0508,-2.1857,-2.2111,-2.2124,-2.2218,-2.2646,-2.2928,-2.2928,-2.2928,-2.2928,-2.2928,-2.2928,-2.2928,-2.2928,-2.2928,-2.2928,0.0,-2.2928,-2.2928,-2.2928,-2.2928,-2.2928,-2.2928,-2.2928,-2.3222,-2.3768,-2.3768,-2.4206,-2.5005,-2.5166,-2.5593,-2.6239,-2.6326,-2.6835,-2.7583,-2.7598,-2.7584,-2.7732,-2.8899,-3.067,-3.2694,-3.1979,-3.4482,-3.8428,-3.7291,-3.6849,-3.6905,-3.7222,-3.6479,-3.5262,-3.4484,-3.4096,-3.3709,-3.2577,-3.4376,-3.6717,-3.6717,-3.8901,-4.125,-4.1543,-4.1855,-4.2109,-4.2226,-4.2246,-4.2285,-4.2402,-4.2485,-4.2506,-4.2306,-4.2246,-4.2445,-4.2962,-4.3459,-4.3755,-4.3844,-4.4194,-4.4484,-4.4484,-4.4484,-4.4567,-4.4774,-4.4795,-4.4753,-4.4629,-4.4608,-4.467,-4.4795,-4.4795,-4.4857,-4.4981,-4.5002,-4.494,-4.4795,-4.4795,-4.4654,-4.4452,-4.3869,-4.3462,-4.3157,-4.3462,-4.3615,-1.2184,-1.2585,-1.3213,-1.3227,0.0,0.0,-1.5337,-1.5805,-1.65,0.0,-1.9105,-1.9613,-2.1002,-2.1256,-2.1376,-2.175,-2.2164,-2.2472,-2.2645,-2.2672,-2.2726,-2.2846,-2.2928,-2.2928,-2.2928,-2.2928,-2.2928,-2.2928,-2.2928,-2.2928,-2.2928,-2.2928,-2.2928,-2.2928,-2.2928,-2.3222,-2.3768,-2.3981,-2.4408,-2.5226,-2.552,-2.596,-2.6399,-2.6546,-2.6939,-2.7466,-2.713,-2.7174,-2.754,-2.82,-2.979,-3.1759,-3.1465,-3.3453,-3.6534,-3.6312,-3.5809,-3.5481,-3.6558,-3.5649,-3.3908,-3.3242,-3.2683,-3.2293,-3.1963,-3.3822,-3.619,-3.7088,-3.943,-4.1758,-4.1992,-4.2246,-4.248,-4.2656,-4.2695,-4.2754,-4.293,-4.3293,-4.3476,-4.3037,-4.3098,-4.3398,-4.3839,-4.4261,-4.4501,-4.4496,-4.4851,-4.5147,-4.5147,-4.5147,-4.5188,-4.5271,-4.5291,-4.5209,-4.5022,-4.5002,-4.5064,-4.5271,-4.5291,-4.5374,-4.5561,-4.5561,-4.5478,-4.5291,-4.5291,-4.5188,-4.5002,-4.4256,-4.3648,-4.3233,-4.3462,-4.3615,-1.3092,-1.3186,-1.3561,-1.4215,-1.3507,0.0,-1.5712,-1.5765,-1.5845,0.0,-1.8357,-1.8824,-1.976,-1.9973,-2.0241,-2.1052,-2.132,-2.159,-2.2271,-2.2378,-2.2472,-2.2739,-2.2834,-2.2834,-2.2834,-2.2861,-2.2819,-2.2819,-2.2914,-2.2928,-2.2928,-2.2928,-2.2928,-2.2928,-2.2928,-2.3222,-2.3825,-2.4167,-2.4682,-2.5299,-2.6034,-2.6385,-2.6473,-2.6838,-2.7144,-2.7408,-2.7115,-2.7159,-2.7422,-2.7466,-2.8683,-3.0521,-3.1645,-3.2747,-3.3885,-3.5178,-3.49,-3.4214,-3.6059,-3.4868,-3.2629,-3.2991,-3.2046,-3.1067,-3.2623,-3.4506,-3.6535,-3.8894,-4.0948,-4.25,-4.25,-4.2539,-4.2676,-4.3066,-4.3144,-4.3242,-4.3633,-4.4123,-4.4333,-4.3936,-4.42,-4.4563,-4.4985,-4.5372,-4.5719,-4.58,-4.6063,-4.6204,-4.6266,-4.6225,-4.614,-4.5788,-4.5768,-4.5602,-4.5188,-4.5147,-4.5312,-4.5726,-4.5768,-4.5933,-4.6246,-4.6266,-4.6161,-4.5768,-4.5768,-4.554,-4.5064,-4.4608,-4.4174,-4.376,-4.376,-4.376,-1.403,-1.4258,-1.4472,-1.3654,-1.4135,0.0,-1.3749,-1.4122,-1.4937,0.0,-1.6046,-1.65,-1.7849,-1.8303,-1.8395,-1.837,-1.9359,-2.0588,-2.1884,-2.2071,-2.2084,-2.2151,-2.2151,-2.2151,-2.2151,-2.2365,-2.2498,-2.2498,-2.2726,-2.2928,-2.2928,-2.2928,-2.2928,-2.2928,-2.2928,-2.3348,-2.4154,-2.4309,-2.4897,-2.618,-2.6326,-2.6546,-2.691,-2.6983,-2.7027,-2.7086,-2.7013,-2.7027,-2.71,-2.7364,-2.8683,-3.033,-2.9502,-3.1042,-3.3583,-3.2614,-3.2248,-3.2372,-3.3041,-3.2218,-3.0885,-3.1212,-3.1067,-3.0817,-3.1233,-3.3768,-3.7259,-4.0787,-4.2375,-4.2949,-4.2949,-4.3203,-4.3476,-4.3555,-4.3574,-4.3594,-4.3691,-4.4288,-4.4862,-4.4762,-4.4823,-4.5027,-4.5454,-4.5617,-4.58,-4.6104,-4.5956,-4.5933,-4.6306,-4.6037,-4.5912,-4.6182,-4.6223,-4.6182,-4.6078,-4.6078,-4.6119,-4.6223,-4.6223,-4.6264,-4.6266,-4.6266,-4.6225,-4.6223,-4.6223,-4.5995,-4.554,-4.5084,-4.4815,-4.4733,-4.4733,-4.4733,-1.4937,-1.4843,-1.4941,-1.4589,-1.4522,0.0,0.0,-1.3854,-1.4162,-1.519,-1.5164,-1.5364,-1.6687,-1.6927,-1.7088,-1.7515,-1.8464,-1.9452,-2.0334,-2.1216,-2.1817,-2.1964,-2.1991,-2.1991,-2.1991,-2.2111,-2.2258,-2.2405,-2.2552,-2.2712,-2.2928,-2.2928,-2.2928,-2.2928,-2.3065,-2.343,-2.4025,-2.4593,-2.5327,-2.6093,-2.6546,-2.6765,-2.6983,-2.6983,-2.6983,-2.6983,-2.6983,-2.6983,-2.71,-2.8384,-2.9043,-2.9077,-2.8606,-2.9594,-3.1315,-3.1331,-3.1137,-3.0971,-3.1936,-3.1538,-3.0612,-3.0773,-3.0817,-3.0984,-3.1798,-3.5015,-3.8906,-4.1871,-4.3066,-4.3398,-4.3398,-4.3555,-4.3711,-4.3711,-4.3711,-4.3711,-4.3711,-4.437,-4.4964,-4.4964,-4.5372,-4.5698,-4.5942,-4.6023,-4.6104,-4.6266,-4.6161,-4.6099,-4.6225,-4.6161,-4.6099,-4.6246,-4.6266,-4.6266,-4.6266,-4.6266,-4.6266,-4.6266,-4.6266,-4.6266,-4.6266,-4.6266,-4.6266,-4.6266,-4.6266,-4.6244,-4.6016,-4.5788,-4.5436,-4.5002,-4.5002,-4.5002,-1.6032,-1.5738,-1.5671,-1.5555,-1.4878,-1.4217,0.0,0.0,0.0,-1.4576,-1.4366,0.0,0.0,0.0,0.0,-1.6673,0.0,0.0,0.0,-1.9746,0.0,-2.1349,-2.155,-2.1643,-2.1643,-2.1603,-2.1777,-2.2298,-2.2178,-2.2285,-2.2752,-2.2832,-2.2928,-2.2928,-2.3133,-2.35,-2.3897,-2.489,-2.5555,-2.5946,-2.6619,-2.6983,-2.6983,-2.6983,-2.6983,-2.6983,-2.7274,-2.745,-2.77,-2.9881,-3.0107,-2.8958,-2.8924,-2.8898,-2.9056,-3.0423,-3.0681,-3.059,-3.1917,-3.2177,-3.1798,-3.1798,-3.1594,-3.1821,-3.4015,-3.6942,-3.9997,-4.2495,-4.3437,-4.3711,-4.3711,-4.3711,-4.3711,-4.3711,-4.3711,-4.3711,-4.3793,-4.437,-4.4964,-4.5127,-4.5698,-4.6185,-4.6266,-4.6266,-4.6266,-4.6266,-4.6266,-4.6266,-4.6266,-4.6266,-4.6266,-4.6266,-4.6266,-4.6266,-4.6266,-4.6266,-4.6266,-4.6266,-4.6266,-4.6266,-4.6266,-4.6266,-4.6266,-4.6266,-4.6266,-4.6266,-4.6266,-4.6266,-4.5975,-4.525,-4.525,-4.525,-1.7435,-1.7702,-1.7569,-1.5218,-1.5507,-1.5477,-1.2123,0.0,-1.2526,-1.2644,0.0,-1.2603,-1.3701,0.0,0.0,0.0,0.0,0.0,-1.6206,-1.7248,-1.8343,-1.9172,-1.996,-2.0366,-2.0366,-2.0201,-2.0601,-2.1937,-2.1309,-2.1336,-2.2418,-2.2712,-2.2928,-2.2928,-2.2928,-2.3348,-2.4225,-2.4734,-2.5398,-2.6312,-2.6765,-2.6983,-2.6983,-2.6983,-2.6983,-2.7056,-2.8403,-2.9208,-2.9743,-3.1576,-3.2459,-3.2574,-3.1446,-3.016,-2.893,-2.9444,-3.0721,-3.2284,-3.2665,-3.3968,-3.543,-3.543,-3.4605,-3.4285,-3.7989,-3.8625,-3.8799,-4.257,-4.3672,-4.3711,-4.3711,-4.3711,-4.3711,-4.3711,-4.3711,-4.3793,-4.4205,-4.437,-4.4698,-4.5454,-4.5719,-4.5861,-4.6266,-4.6266,-4.6266,-4.6266,-4.6266,-4.6266,-4.6266,-4.6266,-4.6266,-4.6266,-4.6266,-4.6266,-4.6266,-4.6266,-4.6266,-4.6266,-4.6266,-4.6266,-4.6266,-4.6266,-4.6266,-4.6266,-4.6266,-4.6266,-4.6266,-4.6266,-4.6204,-4.6122,-4.6122,-4.6122,-1.7756,-1.7339,-1.6742,-1.5528,-1.4844,-1.3965,-1.2089,-1.1587,-1.1586,-1.1677,0.0,0.0,0.0,0.0,0.0,0.0,-1.4803,0.0,0.0,0.0,-1.7154,0.0,0.0,0.0,-1.9158,-1.9265,-1.9826,-2.1122,-2.0575,-2.0748,-2.2098,-2.2445,-2.2821,-2.3201,-2.3201,-2.3625,-2.465,-2.5017,-2.5627,-2.6399,-2.6838,-2.6983,-2.7071,-2.7913,-2.784,-2.7129,-2.9536,-3.0304,-3.0082,-3.2829,-3.3722,-3.322,-3.2844,-3.1699,-3.0237,-2.9646,-3.0673,-3.2507,-3.2777,-3.4243,-3.5994,-3.5994,-3.5047,-3.4433,-3.7435,-3.8049,-3.8432,-4.1296,-4.2863,-4.3711,-4.3711,-4.3711,-4.3711,-4.3711,-4.3711,-4.3793,-4.4288,-4.4616,-4.4964,-4.5556,-4.5861,-4.6104,-4.6266,-4.6266,-4.6266,-4.6266,-4.6266,-4.6266,-4.6266,-4.6266,-4.6266,-4.6266,-4.6266,-4.6266,-4.6266,-4.6266,-4.6266,-4.6266,-4.6266,-4.6266,-4.6266,-4.6266,-4.6266,-4.6266,-4.6266,-4.6266,-4.6266,-4.6266,-4.6266,-4.6266,-4.6266,-4.6266,-1.8437,-1.7495,-1.6546,-1.5567,-1.3992,-1.2432,-1.1462,-1.0794,-1.0539,-1.1007,-1.1552,0.0,0.0,0.0,-1.3774,-1.4041,0.0,-1.471,0.0,-1.487,0.0,0.0,0.0,0.0,0.0,-1.8263,-1.8784,-2.0214,-1.9626,-1.9933,-2.1657,-2.2098,-2.2566,-2.3134,-2.3229,-2.3763,-2.4734,-2.5158,-2.5698,-2.6399,-2.6838,-2.6983,-2.7056,-2.8114,-2.8259,-2.7768,-3.0376,-3.1426,-3.1521,-3.4467,-3.5265,-3.4711,-3.4007,-3.3044,-3.1969,-3.0711,-3.1145,-3.2602,-3.3996,-3.5772,-3.7472,-3.7579,-3.6649,-3.5891,-3.807,-3.8706,-3.9077,-4.1165,-4.2697,-4.3711,-4.3711,-4.3711,-4.3711,-4.3711,-4.3711,-4.3876,-4.4452,-4.4718,-4.5046,-4.5698,-4.6023,-4.6226,-4.6432,-4.6268,-4.6104,-4.6104,-4.6023,-4.6023,-4.6104,-4.6023,-4.6023,-4.6104,-4.6104,-4.6104,-4.6104,-4.6266,-4.6266,-4.6266,-4.6266,-4.6266,-4.6266,-4.6185,-4.6104,-4.6104,-4.6104,-4.6104,-4.6104,-4.6266,-4.6266,-4.6266,-4.6266,-4.6266,-1.9973,-1.9213,-1.7937,-1.4813,-1.3299,-1.183,-0.9315,-0.8927,-0.9444,-1.0315,-1.1481,-1.2563,-1.352,-1.4371,-1.4767,-1.4175,-1.4335,0.0,0.0,0.0,0.0,0.0,0.0,0.0,0.0,-1.7034,-1.7208,0.0,-1.8317,-1.8677,-2.1015,-2.1683,-2.2138,-2.2418,-2.278,-2.3348,-2.4296,-2.4734,-2.5412,-2.6399,-2.6838,-2.6983,-2.6983,-2.7056,-2.784,-2.925,-3.0801,-3.2773,-3.4935,-3.6559,-3.7721,-3.8097,-3.4936,-3.3898,-3.3949,-3.2789,-3.2459,-3.3031,-3.7072,-3.961,-4.1074,-4.1483,-4.0655,-3.9977,-4.2241,-4.2004,-4.1323,-4.3112,-4.3628,-4.3711,-4.3711,-4.3711,-4.3711,-4.3711,-4.3711,-4.3958,-4.48,-4.4698,-4.478,-4.6023,-4.5942,-4.6004,-4.6865,-4.625,-4.5719,-4.5719,-4.5291,-4.5209,-4.5637,-4.5291,-4.5209,-4.5698,-4.5719,-4.5719,-4.5719,-4.6104,-4.6266,-4.6266,-4.6266,-4.6266,-4.6266,-4.5942,-4.5719,-4.5719,-4.5719,-4.5719,-4.5719,-4.6104,-4.6266,-4.6266,-4.6266,-4.6266,-1.8018,-1.6979,-1.5862,-1.4046,-1.2562,-1.1076,-0.9492,-1.0026,-1.0801,-1.0715,-1.2587,-1.4264,-1.4267,-1.4782,-1.5057,-1.4469,-1.4295,0.0,0.0,0.0,0.0,0.0,0.0,0.0,0.0,0.0,0.0,-1.8384,-1.7929,-1.8561,-2.072,-2.1397,-2.2092,-2.2772,-2.3079,-2.3832,-2.5088,-2.5243,-2.5669,-2.6445,-2.6808,-2.6881,-2.6676,-2.7951,-2.8748,-2.9322,-3.219,-3.4034,-3.5115,-3.6937,-3.8047,-3.8263,-3.4954,-3.3898,-3.3889,-3.1619,-3.1579,-3.3355,-3.7258,-3.9147,-4.0062,-4.1343,-4.1043,-4.0198,-4.1006,-4.1092,-4.1155,-4.176,-4.278,-4.3711,-4.3711,-4.3711,-4.3711,-4.3711,-4.3945,-4.441,-4.5303,-4.5627,-4.6014,-4.7072,-4.7155,-4.7051,-4.6967,-4.6532,-4.6264,-4.6513,-4.5918,-4.5488,-4.5653,-4.5309,-4.5046,-4.5209,-4.5535,-4.5841,-4.6147,-4.6825,-4.7237,-4.7237,-4.7237,-4.7072,-4.6762,-4.6393,-4.6003,-4.5736,-4.5698,-4.5719,-4.5719,-4.6104,-4.6266,-4.6266,-4.6266,-4.6266,-1.7108,-1.6028,-1.4979,-1.3863,-1.2443,-1.1062,-0.9981,-1.068,-1.1541,-1.1656,-1.3434,-1.5134,-1.5704,-1.583,-1.5671,0.0,0.0,0.0,0.0,-1.1917,0.0,0.0,0.0,-1.4593,0.0,-1.5257,-1.6005,-1.7609,-1.7257,-1.7874,0.0,-2.0971,-2.182,-2.2651,-2.3195,-2.4079,-2.5511,-2.541,-2.5767,-2.6676,-2.6778,-2.6764,-2.6763,-2.7879,-2.8676,-2.9338,-3.1687,-3.3285,-3.4252,-3.5611,-3.6456,-3.6608,-3.3902,-3.3142,-3.3314,-3.1507,-3.2201,-3.4259,-3.6224,-3.7506,-3.8581,-4.0589,-4.0796,-4.0418,-4.1229,-4.1721,-4.1928,-4.1928,-4.278,-4.3711,-4.3711,-4.3711,-4.375,-4.3906,-4.418,-4.4685,-4.5744,-4.6172,-4.6626,-4.7526,-4.7693,-4.7567,-4.7333,-4.7037,-4.6828,-4.6562,-4.5881,-4.5533,-4.57,-4.5274,-4.5032,-4.528,-4.5694,-4.6228,-4.6845,-4.7361,-4.7693,-4.7693,-4.7526,-4.7359,-4.7276,-4.6697,-4.6367,-4.6201,-4.6166,-4.6188,-4.6188,-4.6578,-4.6823,-4.6823,-4.6658,-4.6514]}]]